     2              OBSERVATION DATA    GPS                 RINEX VERSION / TYPE
TRRINEXO V2.4.6 UX                                          PGM / RUN BY / DATE
                                                            COMMENT
Original Marker Name: 0049                                  COMMENT
Campaign Name: STRC 1995                                    COMMENT
4-Character Station Name: LAKE                              COMMENT
6-Character Antenna Code: TRMSST                            COMMENT
Vertical Measurement Point: TGP                             COMMENT
Vertical Offset to Rinex Ref. Point: 0.0629                 COMMENT
Radial Measurement Point: NGP                               COMMENT
Radial Offset to Rinex Ref. Point: 0.2334                   COMMENT
Antenna Height from Field Measurement: 1.6893 m             COMMENT
Original XYZ: -2443356.5809 -4722862.2955 3511942.6626      COMMENT
New XYZ position is based on association with SCEC monument COMMENT
E1D0F6T0+0011. Position of that monument is believed to be  COMMENT
valid to within 1 m horizontally; vertical accuracy         COMMENT
should be no worse than 3-times this value.                 COMMENT
                                                            COMMENT
Revised Rinex header created by UCSD GPS archive for        COMMENT
GSAC on 12-Apr-1999 (1999:102) 04:26:25 GMT                 COMMENT
For assistance contact dagnew@ucsd.edu or hjohnson@ucsd.edu COMMENT
                                                            COMMENT
LAKE E                                                      MARKER NAME
0049LAKE                                                    MARKER NUMBER
A. Sunduval RIVERSIDE COUNTY FCWCD                          OBSERVER / AGENCY
3059 TRIMBLE 4000 SSE 6.10                                  REC # / TYPE / VERS
68283 TR 4000SST L1/L2 GEO                                  ANT # / TYPE
 -2443351.0000 -4722859.0000  3511926.0000                  APPROX POSITION XYZ
        1.6102        0.0000        0.0000                  ANTENNA: DELTA H/E/N
     1     1     0                                          WAVELENGTH FACT L1/2
     5    C1    L1    L2    P2    P1                        # / TYPES OF OBSERV
    30                                                      INTERVAL
  1995     2     7    16     0   30.000000                  TIME OF FIRST OBS
  1995     2     7    23     0    0.000000                  TIME OF LAST OBS
     0                                                      # OF SATELLITES
                                                            END OF HEADER
 95  2  7 16  0 30.0000000  0  8  1 14 15 20 21 22 25 29
  23524742.836     3250468.10216   2459685.72659  23524744.6994
  22780151.164    -3475375.33516  -2624703.63159  22780152.9344
  21039343.859      262939.39217    206658.62559  21039345.5004
  24747010.586      312203.38915    250599.17159  24747013.2464
  24030302.516     3721820.90115   2885432.24859  24030304.3794
  24501977.953     -803133.16814   -523444.10058  24501983.0274
  20841128.258      470590.98918    367460.96559  20841128.2114
  24143692.703    -2328076.43915  -2141956.89859  24143694.4384
 95  2  7 16  1  0.0000000  0  7  1 14 15 21 22 25 29
  23539497.477     3328003.687 6   2520103.04049  23539499.0824
  22765285.648    -3553493.011 6  -2685574.53049  22765287.1604
  21043357.414      284031.079 7    223093.68849  21043358.6684
  24048380.414     3816822.591 5   2959459.48449  24048383.2274
  24485640.133     -888990.773 5   -590346.02649  24485644.8794
  20845700.703      494619.949 8    386184.82649  20845700.7734
  24131809.039    -2390527.559 5  -2190620.11749  24131811.6054
 95  2  7 16  1 30.0000000  0  7  1 14 15 21 22 25 29
  23554263.570     3405598.933 6   2580566.83249  23554264.9884
  22750449.453    -3631456.992 6  -2746325.66349  22750450.9654
  21047500.289      305802.496 7    240058.41649  21047501.7304
  24066508.539     3912089.383 5   3033693.26149  24066511.8324
  24469303.586     -974834.836 4   -657237.37849  24469309.1764
  20850387.219      519248.353 8    405375.78849  20850387.2424
  24119959.555    -2452799.851 5  -2239143.96949  24119960.8324
 95  2  7 16  2  0.0000000  0  7  1 14 15 21 22 25 29
  23569041.742     3483258.572 6   2641080.81349  23569043.6294
  22735641.469    -3709274.630 6  -2806962.76649  22735643.0274
  21051772.375      328251.294 7    257550.97449  21051774.0044
  24084688.141     4007618.850 5   3108131.73349  24084691.3874
  24452972.609    -1060655.131 4   -724110.22449  24452978.2814
  20855189.047      544482.208 8    425038.53249  20855189.0354
  24108139.141    -2514915.977 5  -2287546.13949  24108140.3244
 95  2  7 16  2 30.0000000  0  7  1 14 15 21 22 25 29
  23583831.461     3560980.674 6   2701643.47249  23583832.7384
  22720858.984    -3786954.467 6  -2867492.48749  22720860.6604
  21056172.148      351371.877 7    275567.00349  21056173.7894
  24102914.258     4103400.768 5   3182766.87549  24102918.4414
  24436645.984    -1146455.127 5   -790967.23849  24436650.7774
  20860101.406      570296.334 8    445153.44149  20860101.5234
  24096348.031    -2576882.386 5  -2335831.64849  24096348.1024
 95  2  7 16  3  0.0000000  0  7  1 14 15 21 22 25 29
  23598633.367     3638764.269 6   2762254.04149  23598635.2194
  22706103.617    -3864493.899 6  -2927912.80949  22706105.0354
  21060700.109      375167.018 7    294108.65949  21060701.5744
  24121188.648     4199431.103 5   3257595.62749  24121192.7384
  24420323.789    -1232230.371 5   -857805.02749  24420327.5044
  20865121.828      596679.170 8    465711.49949  20865122.0394
  24084586.711    -2638687.750 5  -2383991.63949  24084587.7894
 95  2  7 16  3 30.0000000  0  7  1 14 15 21 22 25 29
  23613447.266     3716609.552 6   2822912.66349  23613448.7544
  22691380.000    -3941868.867 6  -2988204.97849  22691381.7234
  21065358.008      399643.865 7    313181.51749  21065359.4964
  24139515.750     4295738.038 5   3332639.90749  24139519.8284
  24404008.703    -1317970.060 5   -924615.01949  24404012.8984
  20870249.898      623628.139 8    486710.69849  20870250.1334
  24072858.055    -2700318.296 5  -2432015.42749  24072858.3594
 95  2  7 16  4  0.0000000  0  7  1 14 15 21 22 25 29
  23628269.570     3794504.293 6   2883609.84549  23628271.3524
  22676686.688    -4019085.342 6  -3048373.64449  22676688.3054
  21070143.102      424789.916 7    332775.82849  21070144.6844
  24157893.414     4392312.890 5   3407892.96549  24157896.8594
  24387695.656    -1403692.388 5   -991411.52648  24387700.2274
  20875483.336      651129.254 8    508140.13849  20875483.4414
  24061162.359    -2761779.185 5  -2479907.00549  24061162.8984
 95  2  7 16  4 30.0000000  0  7  1 14 15 21 22 25 29
  23643103.078     3872453.587 6   2944349.52349  23643104.7424
  22662026.312    -4096125.914 6  -3108405.24749  22662027.5784
  21075057.852      450617.539 7    352901.23749  21075059.3754
  24176321.273     4489156.948 5   3483355.79549  24176325.1054
  24371390.070    -1489377.818 5  -1058179.29749  24371394.3714
  20880823.125      679189.773 8    530005.48149  20880823.0784
  24049504.961    -2823045.823 5  -2527647.21449  24049506.2034
 95  2  7 16  5  0.0000000  0  7  1 14 15 21 22 25 29
  23657945.992     3950451.932 6   3005127.41849  23657947.0594
  22647395.977    -4173005.748 6  -3168311.60349  22647397.7814
  21080099.734      477111.516 7    373545.88549  21080101.0124
  24194800.961     4586260.335 5   3559020.64649  24194805.2274
  24355092.734    -1575022.160 5  -1124915.01848  24355097.4924
  20886268.461      707805.551 8    552303.48949  20886268.5554
  24037878.711    -2884132.887 5  -2575247.51649  24037879.3204
 95  2  7 16  5 30.0000000  0  7  1 14 15 21 22 25 29
  23672802.250     4028521.814 6   3065961.05349  23672803.7504
  22632797.766    -4249720.730 6  -3228089.50249  22632799.4884
  21085268.922      504276.526 7    394713.40849  21085270.6454
  24213332.148     4683644.436 5   3634904.29749  24213335.6644
  24338802.586    -1660625.407 5  -1191618.77249  24338807.4964
  20891822.656      736991.429 8    575045.73749  20891822.8794
  24026289.227    -2945044.365 5  -2622710.98949  24026290.9734
 95  2  7 16  6  0.0000000  0  7  1 14 15 21 22 25 29
  23687675.359     4106683.928 6   3126866.57449  23687677.0474
  22618231.242    -4326268.265 6  -3287736.91849  22618232.7774
  21090567.570      532120.963 7    416410.35349  21090569.4804
  24231919.828     4781325.730 5   3711019.48249  24231923.1454
  24322520.898    -1746180.779 5  -1258285.22249  24322525.6454
  20897489.094      766768.994 8    598249.03849  20897489.1054
  24014731.828    -3005778.122 5  -2670035.95949  24014733.1644
 95  2  7 16  6 30.0000000  0  7  1 14 15 21 22 25 29
  23702569.711     4184954.340 6   3187856.46749  23702571.3054
  22603695.609    -4402652.784 6  -3347257.30949  22603697.1914
  21095996.945      560651.770 7    438642.13849  21095998.8204
  24250566.359     4879314.787 5   3787374.51949  24250569.9694
  24306253.023    -1831674.825 5  -1324903.89349  24306258.6024
  20903267.555      797135.216 8    621911.03749  20903267.4964
  24003208.609    -3066329.860 5  -2717219.10349  24003209.8054
 95  2  7 16  7  0.0000000  0  7  1 14 15 21 22 25 29
  23717484.883     4263332.314 6   3248930.18749  23717486.6524
  22589185.695    -4478900.273 6  -3406670.92049  22589187.1374
  21101553.836      589854.308 7    461397.35849  21101555.3364
  24269272.375     4977612.473 5   3863969.99349  24269276.0314
  24289990.625    -1917130.286 5  -1391492.50048  24289996.8834
  20909156.188      828079.619 8    646023.56249  20909156.0824
  23991717.422    -3126721.029 5  -2764277.13949  23991718.3244
 95  2  7 16  7 30.0000000  0  7  1 14 15 21 22 25 29
  23732422.664     4341830.832 6   3310097.83149  23732424.5864
  22574707.602    -4554985.688 6  -3465958.25049  22574709.4654
  21107242.766      619748.854 7    484691.80049  21107244.2774
  24288037.578     5076224.155 5   3940810.17349  24288041.3524
  24273739.328    -2002532.287 5  -1458039.44049  24273744.0744
  20915157.641      859617.273 8    670598.36549  20915157.5594
  23980259.070    -3186929.292 5  -2811192.65649  23980259.9264
 95  2  7 16  8  0.0000000  0  7  1 14 15 21 22 25 29
  23747377.336     4420417.020 6   3371333.78449  23747378.6724
  22560258.352    -4630916.140 6  -3525124.82349  22560260.1094
  21113060.203      650318.677 7    508512.42749  21113061.7274
  24306854.609     5175107.759 5   4017862.24149  24306857.9964
  24257496.773    -2087886.008 5  -1524548.76849  24257502.4344
  20921266.250      891719.188 8    695612.84549  20921266.2624
  23968834.734    -3246965.351 5  -2857974.00949  23968836.1174
 95  2  7 16  8 30.0000000  0  7  1 14 15 21 22 25 29
  23762344.789     4499074.087 6   3432624.96449  23762346.6294
  22545839.711    -4706686.990 6  -3584167.03049  22545841.9494
  21119003.820      681553.524 7    532851.25849  21119005.3914
  24325717.344     5274230.647 5   4095100.72849  24325720.7304
  24241262.422    -2173199.724 5  -1591026.89849  24241268.3984
  20927479.641      924371.698 8    721056.36549  20927479.8874
  23957444.117    -3306825.299 5  -2904618.12349  23957445.2074
 95  2  7 16  9  0.0000000  0  7  1 14 15 21 22 25 29
  23777325.656     4577795.575 6   3493966.34949  23777327.2384
  22531456.875    -4782270.185 6  -3643063.01849  22531458.4344
  21125075.250      713459.306 7    557712.89249  21125076.8914
  24344625.797     5373595.231 5   4172527.57149  24344629.1024
  24225036.563    -2258466.514 5  -1657468.47649  24225041.6954
  20933800.867      957588.994 8    746939.97549  20933801.0664
  23946087.547    -3366502.552 5  -2951119.89249  23946088.7194
 95  2  7 16  9 30.0000000  0  7  1 14 15 21 22 25 29
  23792316.992     4656574.256 6   3555352.30349  23792318.4224
  22517114.953    -4857635.995 6  -3701789.61249  22517116.2304
  21131275.422      746041.543 7    583101.64249  21131277.0394
  24363579.531     5473195.984 5   4250138.44849  24363584.6994
  24208823.570    -2343667.194 5  -1723858.53149  24208828.0234
  20940228.578      991366.398 8    773260.03349  20940228.6134
  23934769.109    -3425982.139 5  -2997467.62449  23934769.7894
 95  2  7 16 10  0.0000000  0  7  1 14 15 21 22 25 29
  23807316.320     4735398.970 6   3616774.12449  23807318.0314
  22502814.102    -4932788.077 6  -3760349.66749  22502815.4024
  21137602.766      779291.862 7    609010.97049  21137604.3244
  24382578.430     5573039.005 5   4327938.10749  24382581.8754
  24192623.750    -2428798.481 5  -1790194.47849  24192627.7114
  20946762.109     1025701.758 8    800014.86249  20946761.9694
  23923487.164    -3485266.635 5  -3043663.32549  23923488.5474
 95  2  7 16 10 30.0000000  0  7  1 14 15 21 22 25 29
  23822330.727     4814299.367 6   3678254.91149  23822332.7664
  22488557.141    -5007710.477 6  -3818730.74949  22488558.2304
  21144060.758      813228.313 7    635454.93949  21144062.5274
  24401631.852     5673165.653 5   4405958.75549  24401635.5204
  24176441.109    -2513836.051 5  -1856457.42049  24176444.9064
  20953406.375     1060615.847 8    827220.64449  20953406.3404
  23912246.328    -3544342.453 5  -3089696.42849  23912248.3324
 95  2  7 16 11  0.0000000  0  7  1 14 15 21 22 25 29
  23837354.438     4893250.924 6   3739775.58049  23837355.9494
  22474339.109    -5082425.873 6  -3876950.53249  22474340.6564
  21150646.031      847834.428 7    662420.72249  21150647.7664
  24420740.047     5773577.116 5   4484201.32249  24420745.2854
  24160277.312      -39626.34115  -1922649.24349  24160281.0864
  20960155.070     1096080.679 8    854855.58349  20960155.2814
  23901040.430    -3603228.724 5  -3135581.82349  23901041.3094
 95  2  7 16 11 30.0000000  0  7  1 14 15 21 22 25 29
  23852388.031     4972254.758 6   3801336.96249  23852389.6254
  22460157.883    -5156950.255 6  -3935021.46649  22460159.3834
  21157357.680      883104.850 7    689904.15349  21157359.3444
  24439901.062     5874269.390 5   4562662.69549  24439905.3404
  24144129.391     -124479.521 5  -1988768.42149  24144133.5164
  20967008.414     1132094.838 8    882918.56549  20967008.7194
  23889871.078    -3661925.688 5  -3181319.71449  23889872.8244
 95  2  7 16 12  0.0000000  0  7  1 14 15 21 22 25 29
  23867437.836     5051338.130 6   3862960.33449  23867439.5704
  22446014.180    -5231275.629 6  -3992937.33349  22446015.6684
  21164198.617      919053.264 7    717915.89049  21164200.2934
  24459120.742     5975269.608 5   4641364.05249  24459125.1374
  24128000.258     -209235.800 5  -2054812.14949  24128005.1684
  20973971.297     1168686.402 8    911431.47149  20973971.3324
  23878738.313    -3720427.686 5  -3226905.67949  23878739.6134
 95  2  7 16 12 30.0000000  0  7  1 14 15 21 22 25 29
  23882500.680     5130492.957 6   3924639.36749  23882502.6254
  22431906.281    -5305410.932 6  -4050705.08249  22431907.7464
  21171166.031      955666.572 7    746445.72349  21171167.3914
  24478396.008     6076558.565 5   4720290.39049  24478399.4304
  24111886.336     -293914.684 5  -2120795.55249  24111890.8714
  20981042.539     1205845.215 8    940386.39249  20981042.5394
  23867640.367    -3778748.698 5  -3272350.62549  23867641.3284
 95  2  7 16 13  0.0000000  0  6  1 14 15 21 25 29
  23897579.484     5209732.867 6   3986384.73349  23897580.9144
  22417839.727    -5379333.159 6  -4108306.80649  22417841.2154
  21178262.266      992958.732 7    775504.53249  21178263.8244
  24497726.352     6178140.094 5   4799444.68249  24497729.9024
  20988224.781     1243588.479 8    969796.72849  20988224.7114
  23856580.805    -3836864.668 5  -3317635.78249  23856581.3204
 95  2  7 16 13 30.0000000  0  7  1 14 15 21 22 25 29
  23912674.586     5289058.039 6   4048196.51249  23912676.6374
  22403810.086    -5453060.072 6  -4165756.33349  22403811.6094
  21185485.773     1030916.261 7    805081.81249  21185487.1684
  24517107.602     6279989.701 5   4878807.89949  24517109.7234
  24079706.734      -14076.27415
  20995520.508     1281927.050 8    999670.94349  20995520.3324
  23845556.461    -3894798.886 5  -3362779.32349  23845557.6804
 95  2  7 16 14  0.0000000  0  7  1 14 15 21 22 25 29
  23927789.789     5368490.286 6   4110091.72649  23927791.5004
  22389820.953    -5526571.575 6  -4223038.01249  22389822.1024
  21192838.156     1069554.406 7    835189.44749  21192839.6214
  24536541.664     6382117.436 5   4958387.82948  24536545.6134
  24063643.195      -98491.826 5
  21002931.672     1320873.562 8   1030018.86849  21002931.7074
  23834567.562    -3952545.892 5  -3407776.97749  23834568.7344
 95  2  7 16 14 30.0000000  0  7  1 14 15 21 22 25 29
  23942924.859     5448022.292 6   4172064.68449  23942926.7704
  22375870.906    -5599880.197 6  -4280161.59849  22375872.3124
  21200319.359     1108867.961 7    865823.36749  21200321.0704
  24556025.203     6484503.843 5   5038169.28448  24556029.7384
  24047601.516     -182787.528 5    -56919.36059  24047606.0394
  21010453.672     1360401.211 8   1060819.63049  21010453.6954
  23823612.773    -4010109.089 5  -3452631.42449  23823613.8404
 95  2  7 16 15  0.0000000  0  7  1 14 15 21 22 25 29
  23958075.711     5527642.893 6   4234106.65749  23958077.2344
  22361954.555    -5673011.166 6  -4337146.75549  22361956.0434
  21207926.422     1148845.267 7    896974.48649  21207928.6954
  24575555.789     6587135.034 5   5118141.48049  24575560.2424
  24031582.906     -266968.050 5   -122514.44649  24031587.4184
  21018080.438     1400482.207 8   1092051.57449  21018080.2974
  23812692.289    -4067501.584 5  -3497352.82249  23812693.1914
 95  2  7 16 15 30.0000000  0  7  1 14 15 21 22 25 29
  23973244.070     5607350.598 6   4296216.51849  23973245.9694
  22348074.039    -5745955.201 6  -4393986.25249  22348075.5164
  21215661.695     1189492.879 7    928647.92949  21215664.3914
  24595134.219       75470.81015
  24015586.828     -351028.393 5   -188015.88149  24015591.1414
  21025811.945     1441110.738 8   1123710.16649  21025811.8404
  23801803.344    -4124721.230 5  -3541939.56849  23801803.7544
 95  2  7 16 16  0.0000000  0  6  1 14 15 22 25 29
  23988426.258     5687136.004 6   4358386.91849  23988428.0984
  22334230.570    -5818702.723 6  -4450672.61749  22334231.9534
  21223522.531     1230801.896 7    960836.78549  21223524.3014
  23999611.805     -434974.201 5   -253428.06949  23999616.5624
  21033641.242     1482253.717 8   1155769.62149  21033641.3594
  23790950.344    -4181757.729 5  -3586383.58049  23790950.5784
 95  2  7 16 16 30.0000000  0  7  1 14 15 21 22 25 29
  24003627.633     5767019.226 6   4420633.54049  24003629.9184
  22320431.469    -5891216.228 6  -4507176.63249  22320432.6764
  21231514.734     1272801.060 7    993563.38749  21231516.3754
  24634442.211       75872.61115
  23983664.078     -518781.712 5   -318732.51549  23983668.2974
  21041574.914     1523945.173 8   1188256.46549  21041574.9964
  23780139.344    -4238566.084 5  -3630649.81449  23780140.6214
 95  2  7 16 17  0.0000000  0  7  1 14 15 21 22 25 29
  24018843.703     5846981.627 6   4482941.85549  24018845.7194
  22306679.469    -5963482.618 6  -4563488.08149  22306681.0624
  21239637.062     1315483.556 7   1026822.46049  21239638.7854
  24654179.422      179591.843 5     21571.42858  24654183.9574
  23967739.758     -602464.480 5   -383939.76749  23967743.5314
  21049616.711     1566205.545 8   1221186.62049  21049616.8164
  23769371.453    -4295151.314 5  -3674742.19349  23769372.8014
 95  2  7 16 17 30.0000000  0  7  1 14 15 21 22 25 29
  24034074.195     5927016.377 6   4545306.54649  24034076.6214
  22292977.422    -6035489.204 6  -4619597.09149  22292978.7934
  21247886.531     1358835.999 7   1060603.56649  21247888.3714
  24673968.359      283581.460 4    102602.15948  24673973.5274
  23951839.406     -686022.641 5   -449049.92549  23951843.3914
  21057768.164     1609040.888 8   1254564.80349  21057768.2584
  23758644.336    -4351522.258 5  -3718667.57549  23758646.2814
 95  2  7 16 18  0.0000000  0  7  1 14 15 21 22 25 29
  24049321.195     6007139.143 6   4607739.82949  24049322.9534
  22279324.742    -6107232.266 6  -4675500.76449  22279325.9734
  21256265.008     1402863.837 7   1094910.94749  21256266.8484
  24693808.094      387847.805 3    183848.49847  24693814.4224
  23935967.398     -769427.668 5   -514040.76049  23935971.2774
  21066033.211     1652472.976 8   1288407.98249  21066033.2814
  23747959.859    -4407669.855 5  -3762418.93449  23747961.5124
 95  2  7 16 18 30.0000000  0  7  1 14 15 21 22 25 29
  24064583.266     6087340.756 6   4670234.54149  24064585.9384
  22265722.781    -6178712.562 7  -4731199.68249  22265724.1524
  21264771.070     1447564.311 7   1129742.46949  21264772.7704
  24713702.617      492387.066 4    265307.46247  24713709.0164
  23920127.945     -852669.097 5   -578904.13349  23920131.7304
  21074410.594     1696497.151 8   1322712.52749  21074410.7234
  23737316.312    -4463601.704 5  -3806002.14949  23737317.4494
 95  2  7 16 19  0.0000000  0  7  1 14 15 21 22 25 29
  24079860.906     6167626.149 6   4732794.53949  24079863.1914
  22252172.938    -6249918.228 7  -4786684.60049  22252174.2504
  21273406.258     1492941.731 7   1165101.47349  21273407.8874
  24733649.016      597200.898 4    346980.43347  24733652.9884
  23904322.070     -935723.894 5   -643622.07549  23904326.3014
  21082898.789     1741102.713 8   1357470.10249  21082899.0124
  23726713.953    -4519318.123 5  -3849417.51649  23726715.1724
 95  2  7 16 19 30.0000000  0  7  1 14 15 21 22 25 29
  24095156.234     6248004.437 6   4795426.92449  24095158.2624
  22238672.562    -6320862.586 7  -4841965.90449  22238673.7814
  21282169.023     1538990.429 7   1200983.56349  21282170.4414
  24753647.922      702297.027 4    428873.38348  24753651.8014
  23888552.797    -1018597.205 5   -708198.59849  23888557.2624
  21091493.906     1786270.169 8   1392665.51449  21091494.1884
  23716151.477    -4574824.238 5  -3892669.01749  23716152.7664
 95  2  7 16 20  0.0000000  0  7  1 14 15 21 22 25 29
  24110465.109     6328450.124 6   4858111.82349  24110467.2074
  22225214.234    -6391584.825 6  -4897074.12549  22225215.3484
  21291055.805     1585689.252 7   1237372.24349  21291057.2934
  24773701.148                       59750.30413
  23872811.930    -1101311.534 5   -772651.29149  23872815.5164
  21100189.766     1831968.942 8   1428274.93849  21100190.0124
  23705623.562    -4630149.089 6  -3935779.25849  23705624.8284
 95  2  7 16 20 30.0000000  0  6  1 14 15 22 25 29
  24125788.617     6408976.559 6   4920859.65049  24125790.4574
  22211802.625    -6462063.931 7  -4951992.89849  22211803.9024
  21300068.633     1633054.875 7   1274280.50549  21300070.3554
  23857103.516    -1183859.819 5   -836974.54149  23857107.9924
  21108990.633     1878216.140 8   1464311.71249  21108990.7734
  23695132.242    -4685282.177 6  -3978740.10449  23695132.9574
 95  2  7 16 21  0.0000000  0  6  1 14 15 22 25 29
  24141132.930     6489611.302 6   4983691.87649  24141134.6994
  22198438.477    -6532293.562 7  -5006717.27249  22198439.7774
  21309211.594     1681099.144 7   1311717.57849  21309213.3634
  23841427.461    -1266241.335 5   -901167.88249  23841430.9654
  21117900.648     1925040.112 8   1500797.91749  21117900.9064
  23684677.844    -4740219.526 6  -4021548.40949  23684679.2854
 95  2  7 16 21 30.0000000  0  6  1 14 15 22 25 29
  24156495.711     6570346.839 6   5046602.63549  24156497.5514
  22185116.445    -6602299.406 6  -5061267.26349  22185117.7934
  21318479.992     1729806.762 7   1349671.54649  21318481.9384
  23825777.352    -1348481.371 5   -965250.99449  23825779.9654
  21126918.898     1972430.757 8   1537725.68849  21126919.1214
  23674259.047    -4794969.154 6  -4064210.44149  23674260.5474
 95  2  7 16 22  0.0000000  0  6  1 14 15 22 25 29
  24171879.078     6651181.839 6   5109590.88449  24171881.0824
  22171840.914    -6672064.233 7  -5115629.45549  22171842.3674
  21327875.656     1779180.410 7   1388144.49949  21327877.5904
  23810155.766    -1430572.466 5  -1029218.03449  23810159.6454
  21136044.281     2020384.466 8   1575092.21249  21136044.4344
  23663879.039    -4849518.034 6  -4106716.05349  23663880.5274
 95  2  7 16 22 30.0000000  0  6  1 14 15 22 25 29
  24187283.578     6732137.137 6   5172672.88449  24187286.1684
  22158619.188    -6741544.171 7  -5169769.65349  22158620.6174
  21337400.258     1829233.178 7   1427146.63049  21337402.2624
  23794566.359    -1512498.025 5  -1093056.10849  23794570.2734
  21145278.164     2068908.461 8   1612903.11549  21145278.3984
  23653540.508    -4903846.592 5  -4149049.98049  23653541.8794
 95  2  7 16 23  0.0000000  0  6  1 14 15 22 25 29
  24202716.641     6813234.439 6   5235865.54049  24202718.6684
  22145456.164    -6810716.790 7  -5223670.38349  22145457.9344
  21347057.258     1879982.443 7   1466691.49149  21347059.3554
  23779013.961    -1594226.977 5  -1156740.96549  23779018.5084
  21154621.539     2118008.325 8   1651162.74849  21154621.8094
  23643248.289    -4957932.485 6  -4191194.80849  23643250.0354
 95  2  7 16 23 30.0000000  0  6  1 14 15 22 25 29
  24218170.391     6894445.197 6   5299146.59449  24218172.8634
  22132348.336    -6879598.515 7  -5277344.44249  22132350.1054
  21356842.867     1931403.421 7   1506759.76849  21356844.6604
  23763496.078    -1675770.299 5  -1220281.16149  23763499.1134
  21164068.383     2167653.226 8   1689847.09049  21164068.6294
  23632997.789    -5011799.046 5  -4233168.71049  23632999.2664
 95  2  7 16 24  0.0000000  0  6  1 14 15 22 25 29
  24233649.570     6975790.085 6   5362532.16749  24233651.9734
  22119301.969    -6948157.318 7  -5330766.87449  22119303.7854
  21366757.750     1983506.395 7   1547359.47149  21366759.5204
  23748018.641    -1757104.978 5  -1283658.78449  23748022.4264
  21173623.547     2217864.782 8   1728972.97749  21173623.8164
  23622788.562    -5065448.814 6  -4274973.71149  23622790.0514
 95  2  7 16 24 30.0000000  0  6  1 14 15 22 25 29
  24249155.953     7057277.594 6   5426028.86949  24249158.5554
  22106316.352    -7016397.578 7  -5383941.08249  22106318.1684
  21376802.133     2036289.483 7   1588489.12949  21376803.7974
  23732583.219    -1838217.976 5  -1346863.65249  23732587.3554
  21183289.547     2268659.769 8   1768553.48949  21183289.8284
  23612620.547    -5118883.081 6  -4316610.79549  23612621.5314
 95  2  7 16 25  0.0000000  0  6  1 14 15 22 25 29
  24264687.250     7138896.720 6   5489628.13949  24264689.6414
  22093386.539    -7084343.514 7  -5436885.95249  22093388.4494
  21386974.781     2089747.604 7   1630144.78849  21386976.5624
  23717190.609    -1919108.686 5  -1409895.31849  23717193.8554
  21193066.875     2320038.120 8   1808588.56849  21193066.9694
  23602493.906    -5172095.936 5  -4358075.34049  23602495.2664
 95  2  7 16 25 30.0000000  0  6  1 14 15 22 25 29
  24280247.383     7220660.154 6   5553339.85549  24280249.9614
  22080516.086    -7151979.253 7  -5489589.11249  22080517.8324
  21397277.195     2143889.318 7   1672333.12049  21397279.3284
  23701839.836    -1999775.488 5  -1472752.48449  23701843.6454
  21202957.852     2372015.949 8   1849090.77349  21202957.8054
  23592414.602    -5225064.541 5  -4399349.56849  23592416.2074
 95  2  7 16 26  0.0000000  0  6  1 14 15 22 25 29
  24295830.062     7302548.373 6   5617148.80149  24295832.6414
  22067701.250    -7219319.691 7  -5542062.16449  22067703.1254
  21407708.273     2198703.496 7   1715045.44549  21407710.4414
  23686531.141    -2080221.844 5  -1535437.86549  23686535.3954
  21212959.375     2424574.810 8   1890045.73049  21212959.4574
  23582383.883    -5277779.834 6  -4440426.39449  23582384.3634
 95  2  7 16 26 30.0000000  0  6  1 14 15 22 25 29
  24311431.781     7384537.619 6   5681036.47649  24311434.3014
  22054939.422    -7286384.396 7  -5594320.36249  22054941.2034
  21418266.141     2254184.671 7   1758277.51049  21418267.9694
  23671265.414    -2160445.929 5  -1597950.04849  23671269.0354
  21223067.984     2477697.182 8   1931439.78949  21223068.0664
  23572401.352    -5330236.607 6  -4481301.79349  23572402.1954
 95  2  7 16 27  0.0000000  0  6  1 14 15 22 25 29
  24327050.438     7466615.974 5   5744993.58649  24327053.6604
  22042230.539    -7353171.159 7  -5646361.98449  22042232.3324
  21428950.477     2310331.809 7   1802028.50649  21428952.3054
  23656040.406    -2240450.827 5  -1660291.44649  23656044.4614
  21233280.586     2531364.239 8   1973258.27749  21233280.6454
  23562466.430    -5382443.088 5  -4521982.13949  23562467.2854
 95  2  7 16 27 30.0000000  0  6  1 14 15 22 25 29
  24342686.852     7548784.276 5   5809020.78949  24342688.8554
  22029577.734    -7419661.875 7  -5698172.91649  22029579.3164
  21439761.688     2367144.385 7   1846298.02549  21439763.3984
  23640861.547    -2320216.027 5  -1722446.04949  23640865.3324
  21243598.047     2585582.819 8   2015506.52849  21243598.2814
  23552577.109    -5434410.981 5  -4562476.58949  23552578.1414
 95  2  7 16 28  0.0000000  0  6  1 14 15 22 25 29
  24358340.773     7631044.206 5   5873119.38549  24358343.7384
  22016981.578    -7485854.287 7  -5749751.40249  22016983.2544
  21450699.875     2424623.777 7   1891087.14349  21450701.3284
  23625733.445    -2399714.634 5  -1784392.91149  23625737.3484
  21254021.070     2640355.988 8   2058186.91849  21254020.8484
  23542731.375    -5486152.676 5  -4602794.76849  23542732.6884
 95  2  7 16 28 30.0000000  0  6  1 14 15 22 25 29
  24374012.961     7713402.454 5   5937294.57049  24374014.5664
  22004442.945    -7551743.721 7  -5801093.80549  22004444.5514
  21461762.062     2482755.051 7   1936384.22249  21461763.3754
  23610651.891    -2478967.481 5  -1846148.26949  23610656.2974
  21264548.273     2695677.125 8   2101294.30049  21264548.0864
  23532923.422    -5537692.990 6  -4642956.03449  23532924.5704
 95  2  7 16 29  0.0000000  0  6  1 14 15 22 25 29
  24389710.992     7795893.641 5   6001573.35949  24389713.3484
  21991967.016    -7617306.896 7  -5852181.98749  21991968.5744
  21472948.422     2541539.901 7   1982190.57349  21472949.9574
  23595616.930    -2557974.011 5  -1907711.71849  23595620.7274
  21275182.320     2751560.018 8   2144839.40349  21275182.2624
  23523154.117    -5589032.742 6  -4682961.01549  23523155.2074
 95  2  7 16 29 30.0000000  0  6  1 14 15 22 25 29
  24405434.031     7878524.232 5   6065960.79749  24405436.0124
  21979552.352    -7682546.962 7  -5903018.38349  21979553.8284
  21484258.367     2600974.772 7   2028503.45449  21484259.9144
  23580628.375    -2636740.258 5  -1969087.89649  23580632.1254
  21285925.578     2808014.973 8   2188830.28449  21285925.3204
  23513423.063    -5640167.293 6  -4722806.07649  23513423.4144
 95  2  7 16 30  0.0000000  0  6  1 14 15 22 25 29
  24421185.148     7961292.441 5   6130455.42249  24421187.8914
  21967198.023    -7747468.161 7  -5953606.31449  21967199.5944
  21495691.094     2661053.147 7   2075317.74749  21495692.8874
  23565680.195    -2715293.935 5  -2030298.47449  23565683.8874
  21296773.703     2865021.739 8   2233251.13649  21296773.5984
  23503732.461    -5691094.588 6  -4762489.67849  23503733.1994
 95  2  7 16 30 30.0000000  0  6  1 14 15 22 25 29
  24436960.070     8044190.212 5   6195051.04649  24436961.8634
  21954906.773    -7812060.536 7  -6003938.02049  21954908.0984
  21507246.492     2721777.265 7   2122635.22549  21507248.3674
  23550771.812    -2793641.911 6  -2091348.76149  23550774.6484
  21307724.672     2922569.730 8   2278093.72849  21307724.5434
  23494082.055    -5741808.220 6  -4802006.78249  23494083.1334
 95  2  7 16 31  0.0000000  0  6  1 14 15 22 25 29
  24452753.781     8127183.869 6   6259721.35749  24452756.1484
  21942673.625    -7876345.809 7  -6054030.43249  21942674.8794
  21518922.133     2783135.563 7   2170446.86549  21518924.1844
  23535904.344    -2871766.615 5  -2152225.06349  23535908.1174
  21318775.906     2980645.364 8   2323347.46549  21318776.0594
  23484470.055    -5792317.646 6  -4841364.74049  23484470.9804
 95  2  7 16 31 30.0000000  0  6  1 14 15 22 25 29
  24468558.594     8210243.441 5   6324443.05049  24468561.5944
  21930498.125    -7940330.921 7  -6103888.94749  21930499.4024
  21530719.727     2845130.487 7   2218754.57549  21530721.5554
  23521086.039    -2949640.984 6  -2212906.28549  23521089.1094
  21329925.914     3039237.906 8   2369003.98949  21329926.0554
  23474899.727    -5842611.823 6  -4880554.98349  23474900.9694
 95  2  7 16 32  0.0000000  0  6  1 14 15 22 25 29
  24484376.367     8293364.970 5   6389213.02149  24484378.0554
  21918378.539    -8004017.539 7  -6153514.86749  21918379.7344
  21542635.766     2907749.843 7   2267548.85749  21542637.3124
  23506315.266    -3027255.377 5  -2273384.93849  23506318.9694
  21341171.641     3098335.234 8   2415053.85149  21341171.3594
  23465369.547    -5892693.810 6  -4919579.88549  23465370.5664
 95  2  7 16 32 30.0000000  0  6  1 14 15 22 25 29
  24500210.102     8376570.840 5   6454048.69949  24500212.6454
  21906316.000    -8067406.297 7  -6202908.69249  21906317.2194
  21554671.484     2970997.790 7   2316832.95849  21554673.4064
  23491600.437    -3104585.665 6  -2333642.21149  23491604.0824
  21352517.906     3157959.934 8   2461514.65449  21352517.7894
  23455880.664    -5942555.514 6  -4958433.13549  23455881.5434
 95  2  7 16 33  0.0000000  0  6  1 14 15 22 25 29
  24516062.336     8459871.835 5   6518958.51449  24516064.3634
  21894309.789    -8130500.841 7  -6252073.25749  21894310.8444
  21566825.289     3034868.441 7   2366602.27449  21566827.6564
  23476937.945    -3181636.948 6  -2393682.07549  23476941.3324
  21363965.445     3218115.437 8   2508389.06449  21363965.1764
  23446434.680    -5992196.245 6  -4997114.20949  23446435.6884
 95  2  7 16 33 30.0000000  0  6  1 14 15 22 25 29
  24531934.438     8543281.632 5   6583953.10449  24531936.3714
  21882361.703    -8193284.656 7  -6300995.69949  21882362.8874
  21579097.453     3099357.486 7   2416853.45849  21579099.7504
  23462324.562    -3258434.036 6  -2453523.86749  23462327.1994
  21375513.336     3278800.728 8   2555676.29749  21375513.0314
  23437028.883    -6041622.628 6  -5035628.23849  23437029.7504
 95  2  7 16 34  0.0010000  0  6  1 14 15 22 25 29
  24547832.872     8626829.282 5   6649055.12849  24547834.8534
  21870476.349    -8255745.109 7  -6349666.17149  21870477.7784
  21591488.021     3164469.827 7   2467590.32249  21591489.9074
  23447754.028    -3335000.012 6  -2513185.56549  23447756.2084
  21387163.974     3340025.923 8   2603384.23849  21387163.8334
  23427661.481    -6090847.171 6  -5073984.99449  23427662.5604
 95  2  7 16 34 30.0010000  0  6  1 14 15 22 25 29
  24563753.997     8710493.632 5   6714248.05649  24563756.7044
  21858655.294    -8317863.609 7  -6398070.18649  21858656.4894
  21603997.208     3230206.127 7   2518813.40149  21603999.1654
  23433229.036    -3411327.180 6  -2572661.19049  23433231.8954
  21398913.997     3401774.025 8   2651499.64249  21398914.1264
  23418331.622    -6139876.144 6  -5112189.35849  23418333.0994
 95  2  7 16 35  0.0010000  0  6  1 14 15 22 25 29
  24579688.411     8794230.942 5   6779497.86049  24579690.5674
  21846897.146    -8379654.566 7  -6446218.97149  21846898.7394
  21616619.989     3296539.315 7   2570501.57049  21616621.7354
  23418746.302    -3487433.737 6  -2631964.88549  23418749.4784
  21410755.911     3464004.143 8   2699990.63649  21410756.1224
  23409033.302    -6188740.953 6  -5150265.79249  23409034.0524
 95  2  7 16 35 30.0010000  0  6  1 14 15 22 25 29
  24595638.224     8878042.337 5   6844805.39749  24595640.5094
  21835202.653    -8441107.073 7  -6494104.02549  21835204.0834
  21629359.114     3363483.820 7   2622666.09449  21629360.8604
  23404310.005    -3563297.250 6  -2691079.20749  23404313.7314
  21422692.505     3526732.227 8   2748869.65749  21422692.5874
  23399768.630    -6237428.214 6  -5188203.91149  23399769.3104
 95  2  7 16 36  0.0010000  0  6  1 14 15 22 25 29
  24611599.786     8961923.586 5   6910167.36649  24611602.2004
  21823572.810    -8502223.079 7  -6541726.87749  21823574.4274
  21642214.935     3431040.665 7   2675307.76149  21642216.6924
  23389924.513    -3638892.160 6  -2749984.24649  23389928.2164
  21434723.060     3589950.923 8   2798130.97549  21434722.9544
  23390540.942    -6285922.590 6  -5225991.71049  23390542.1494
 95  2  7 16 36 30.0010000  0  6  1 14 15 22 25 29
  24627575.458     9045875.251 5   6975584.16049  24627577.6494
  21812006.716    -8563003.450 7  -6589088.19249  21812008.4624
  21655187.278     3499210.467 7   2728427.06349  21655189.2944
  23375594.575    -3714195.965 6  -2808662.41749  23375598.2204
  21446848.575     3653670.728 8   2847782.75849  21446848.6574
  23381353.036    -6334201.744 6  -5263611.81949  23381354.1614
 95  2  7 16 37  0.0010000  0  6  1 14 15 22 25 29
  24643566.036     9129908.853 5   7041064.84449  24643568.5094
  21800500.481    -8623468.196 7  -6636203.56949  21800502.0054
  21668274.224     3567985.393 7   2782017.89349  21668276.2164
  23361319.583    -3789212.863 6  -2867117.04949  23361323.4274
  21459070.981     3717901.200 8   2897832.46549  21459071.3454
  23372206.599    -6382266.731 6  -5301065.03849  23372207.4664
 95  2  7 16 37 30.0010000  0  6  1 14 15 22 25 29
  24659575.497     9214041.120 5   7106622.41249  24659578.7784
  21789055.255    -8683614.197 7  -6683070.57749  21789056.7084
  21681478.325     3637372.142 7   2836085.47749  21681480.3174
  23347098.028    -3863946.379 6  -2925350.86749  23347101.1694
  21471393.380     3782654.820 8   2948289.82349  21471393.6854
  23363102.677    -6430106.304 6  -5338342.60149  23363104.2594
 95  2  7 16 38  0.0010000  0  6  1 14 15 22 25 29
  24675606.606     9298281.438 5   7172264.18249  24675609.2784
  21777671.271    -8743438.738 7  -6729687.09649  21777672.7124
  21694797.388     3707363.575 7   2890624.22749  21694799.0994
  23332932.060    -3938390.182 6  -2983358.92449  23332935.9624
  21483814.419     3847929.048 8   2999152.84849  21483814.7474
  23354042.521    -6477719.993 6  -5375444.16049  23354042.8604
 95  2  7 16 38 30.0010000  0  6  1 14 15 22 25 29
  24691657.364     9382630.133 5   7237990.38749  24691660.3064
  21766346.177    -8802952.854 7  -6776061.71649  21766347.5834
  21708229.841     3777951.182 7   2945627.52749  21708231.5524
  23318817.528    -4012558.781 6  -3041152.56049  23318820.9744
  21496334.442     3913720.964 8   3050419.26549  21496334.7594
  23345022.442    -6525117.708 6  -5412377.43349  23345023.3104
 95  2  7 16 39  0.0010000  0  6  1 14 15 22 25 29
  24707728.583     9467083.572 5   7303798.19749  24707731.8414
  21755082.810    -8862139.986 7  -6822181.55149  21755084.0874
  21721775.333     3849133.936 7   3001094.57749  21721776.7984
  23304756.653    -4086448.216 6  -3098728.69249  23304759.5484
  21508949.653     3980013.443 8   3102075.72949  21508949.8764
  23336043.716    -6572299.403 6  -5449142.35649  23336044.6654
 95  2  7 16 39 30.0010000  0  6  1 14 15 22 25 29
  24723818.786     9551636.965 5   7369683.91449  24723821.9384
  21743886.521    -8920978.388 7  -6868029.64849  21743887.9034
  21735433.724     3920909.731 7   3057023.73749  21735435.6454
  23290750.849    -4160052.615 6  -3156082.68549  23290753.2394
  21521659.060     4046801.670 8   3154118.48949  21521659.2474
  23327108.489    -6619257.076 6  -5485732.72349  23327109.3804
 95  2  7 16 40  0.0010000  0  6  1 14 15 22 25 29
  24739929.591     9636300.310 5   7435655.27749  24739932.0284
  21732758.536    -8979455.750 7  -6913596.41549  21732759.8494
  21749206.692     3993285.486 7   3113420.39649  21749209.0834
  23276802.192    -4233349.831 6  -3213197.32449  23276805.5324
  21534463.567     4114090.718 8   3206551.50049  21534463.6384
  23318216.200    -6665985.633 6  -5522144.57149  23318217.3254
 95  2  7 16 40 30.0010000  0  6  1 14 15 22 25 29
  24756062.458     9721078.047 5   7501715.81049  24756064.9894
  21721702.130    -9037558.813 7  -6958871.51649  21721703.2434
  21763093.247     4066259.592 7   3170283.30349  21763095.5214
  23262913.763    -4306336.097 6  -3270069.67749  23262917.0914
  21547361.825     4181871.229 8   3259367.46749  21547362.2004
  23309366.302    -6712494.447 6  -5558385.18449  23309367.7434
 95  2  7 16 41  0.0010000  0  6  1 14 15 22 25 29
  24772214.997     9805960.767 5   7567858.13349  24772218.2904
  21710718.317    -9095279.723 7  -7003848.84249  21710719.5714
  21777091.341     4139819.736 7   3227602.86849  21777093.4154
  23249083.419    -4379016.399 6  -3326703.61849  23249086.0914
  21560353.138     4250140.373 8   3312564.19049  21560353.3724
  23300554.075    -6758800.865 6  -5594468.08649  23300555.1884
 95  2  7 16 41 30.0010000  0  6  1 14 15 22 25 29
  24788389.981     9890958.519 5   7634090.08949  24788393.7434
  21699805.185    -9152628.160 7  -7048535.92749  21699806.3334
  21791200.669     4213963.654 7   3285377.32749  21791202.3214
  23235312.810    -4451384.493 6  -3383094.26149  23235315.2944
  21573438.880     4318907.214 8   3366148.73049  21573439.0564
  23291779.255    -6804914.007 6  -5630400.38649  23291780.2164
 95  2  7 16 42  0.0010000  0  6  1 14 15 22 25 29
  24804588.599     9976084.827 5   7700422.22549  24804592.1264
  21688963.919    -9209599.844 7  -7092929.43849  21688965.3024
  21805422.247     4288699.038 7   3343612.66649  21805424.3104
  23221604.216    -4523424.917 6  -3439229.59349  23221607.4624
  21586620.856     4388179.115 8   3420126.82749  21586621.0444
  23283041.521    -6850830.489 6  -5666179.44049  23283042.7864
 95  2  7 16 42 30.0010000  0  6  1 14 15 22 25 29
  24820809.786    10061327.123 5   7766844.74149  24820811.8964
  21678193.802    -9266196.019 7  -7137030.34249  21678195.1734
  21819754.942     4364019.289 7   3402303.73849  21819756.8994
  23207955.528    -4595144.140 6  -3495114.65949  23207958.4464
  21599897.958     4457949.769 8   3474493.56049  21599898.1694
  23274342.294    -6896548.947 6  -5701804.19149  23274343.0914
 95  2  7 16 43  0.0010000  0  6  1 14 15 22 25 29
  24837054.442    10146693.845 5   7833364.18549  24837057.8764
  21667495.013    -9322419.177 7  -7180840.58549  21667496.2314
  21834201.403     4439935.893 7   3461459.51249  21834203.5014
  23194371.216    -4666531.124 6  -3550740.81449  23194373.3024
  21613271.747     4528228.868 8   3529256.48549  21613271.6654
  23265683.833    -6942045.561 6  -5737256.07649  23265684.8294
 95  2  7 16 43 30.0010000  0  6  1 14 15 22 25 29
  24853320.997    10232170.499 5   7899969.31049  24853323.3174
  21656864.200    -9378283.859 7  -7224371.50249  21656865.5134
  21848761.060     4516444.867 7   3521076.87149  21848763.1814
  23180851.364    -4737578.211 6  -3606102.11249  23180854.2474
  21626738.927     4598999.420 8   3584402.35549  21626738.8684
  23257068.552    -6987319.334 6  -5772534.31249  23257069.2674
 95  2  7 16 44  0.0010000  0  6  1 14 15 22 25 29
  24869601.388    10317728.831 5   7966638.10549  24869603.9314
  21646300.794    -9433795.773 7  -7267627.52949  21646302.3884
  21863429.231     4593527.250 7   3581141.04149  21863431.2474
  23167392.294    -4808306.359 6  -3661214.87949  23167395.9384
  21640296.864     4670247.102 8   3639920.02349  21640296.7354
  23248492.825    -7032387.141 6  -5807652.05849  23248494.0094
 95  2  7 16 44 30.0010000  0  6  1 14 15 22 25 29
  24885900.755    10403384.334 5   8033382.59649  24885903.1224
  21635807.458    -9488939.259 7  -7310596.46849  21635808.8764
  21878207.692     4671190.135 7   3641657.54949  21878209.8024
  23153997.122    -4878695.939 6  -3716063.87549  23153998.7984
  21653946.294     4741975.007 8   3695811.89049  21653946.2354
  23239955.458    -7077249.958 6  -5842610.06649  23239956.5244
 95  2  7 16 45  0.0010000  0  6  1 14 15 22 25 29
  24902218.911    10489133.958 5   8100200.42249  24902221.6064
  21625383.200    -9543717.797 7  -7353281.03449  21625384.5364
  21893095.692     4749427.514 7   3702621.71349  21893098.0244
  23140668.731    -4948733.413 6  -3770638.47349  23140672.4354
  21667686.122     4814178.717 8   3752074.51549  21667686.2744
  23231456.458    -7121912.765 6  -5877412.23249  23231457.6424
 95  2  7 16 45 30.0010000  0  6  1 14 15 22 25 29
  24918554.403    10574978.399 5   8167092.10849  24918557.2984
  21615034.294    -9598100.563 7  -7395657.20549  21615035.8994
  21908095.614     4828252.215 7   3764043.52149  21908098.1464
  23127413.161    -5018395.503 6  -3824920.54949  23127416.0674
  21681521.169     4886881.805 8   3808726.26849  21681521.2284
  23222996.177    -7166370.041 6  -5912054.25349  23222997.3494
 95  2  7 16 46  0.0010000  0  6  1 14 15 22 25 29
  24934910.044    10660929.415 5   8234066.86949  24934912.8454
  21604762.661    -9652079.184 7  -7437718.45349  21604764.3954
  21923207.544     4907663.697 7   3825922.56749  21923209.8414
  23114229.278    -5087675.632 6  -3878905.01649  23114232.0214
  21695451.981     4960090.607 8   3865772.08249  21695452.2284
  23214576.544    -7210616.173 6  -5946531.74249  23214577.3064
 95  2  7 16 46 30.0010000  0  6  1 14 15 22 25 29
  24951285.575    10746979.941 5   8301119.15549  24951288.6104
  21594564.466    -9705670.848 7  -7479478.18749  21594566.1424
  21938427.864     4987647.593 7   3888247.65249  21938430.1614
  23101116.294    -5156584.539 6  -3932600.21049  23101119.3064
  21709475.638     5033785.860 8   3923196.94749  21709475.9784
  23206198.575    -7254644.865 6  -5980839.79649  23206199.1384
 95  2  7 16 47  0.0010000  0  6  1 14 15 22 25 29
  24967679.114    10833127.360 5   8368246.96249  24967682.7354
  21584441.888    -9758865.558 7  -7520928.60049  21584443.5054
  21953758.169     5068210.183 7   3951023.66649  21953760.7244
  23088071.724    -5225137.974 6  -3986018.39749  23088074.3844
  21723595.739     5107986.028 8   3981015.25149  21723595.9154
  23197866.739    -7298425.627 6  -6014954.66949  23197867.6184
 95  2  7 16 47 30.0010000  0  6  1 14 15 22 25 29
  24984093.856    10919387.033 5   8435462.22049  24984095.9894
  21574397.810    -9811646.901 7  -7562056.91049  21574399.0874
  21969199.317     5149352.409 7   4014251.34449  21969201.8494
  23075090.763    -5293351.278 6  -4039171.56649  23075094.1854
  21737810.935     5182688.428 8   4039224.90449  21737810.8644
  23189582.677    -7341961.403 6  -6048878.62349  23189583.3104
 95  2  7 16 48  0.0010000  0  6  1 14 15 22 25 29
  25000531.888    11005770.685 5   8502774.08849  25000535.4034
  21564430.388    -9864027.694 7  -7602873.10849  21564431.6304
  21984747.403     5231059.123 7   4077918.88849  21984749.9704
  23062171.349    -5361244.057 6  -4092074.98149  23062174.1384
  21752119.247     5257877.022 8   4097813.40549  21752119.1424
  23181345.013    -7385250.073 6  -6082610.03849  23181346.3604
 95  2  7 16 48 30.0010000  0  6  1 14 15 22 25 29
  25016995.802    11092287.991 5   8570190.12149  25016998.5564
  21554541.450    -9915994.792 7  -7643366.94249  21554542.5634
  22000404.364     5313335.807 7   4142030.56249  22000406.6854
  23049312.864    -5428811.521 6  -4144724.91449  23049315.2674
  21766519.450     5333549.229 8   4156778.74949  21766519.4034
  23173154.989    -7428287.170 6  -6116145.42649  23173156.1144
 95  2  7 16 49  0.0010000  0  6  1 14 15 22 25 29
  25033486.747    11178947.388 5   8637716.86249  25033489.0204
  21544731.966    -9967542.364 7  -7683533.87149  21544733.3024
  22016169.146     5396180.321 7   4206584.70049  22016171.2674
  23036522.380    -5496027.196 6  -4197100.71249  23036524.7944
  21781010.692     5409702.714 8   4216119.11649  21781010.7514
  23165009.856    -7471090.838 6  -6149498.91249  23165010.7824
 95  2  7 16 49 30.0010000  0  6  1 14 15 22 25 29
  25050004.505    11265747.653 5   8705353.36349  25050008.2084
  21534999.310   -10018685.938 7  -7723386.00149  21535000.7634
  22032039.255     5479577.841 7   4271569.75049  22032041.3414
  23023803.091    -5562868.959 6  -4249185.16849  23023805.1304
  21795588.239     5486309.469 8   4275812.67349  21795588.5564
  23156903.435    -7513690.988 6  -6182693.82049  23156903.8214
 95  2  7 16 50  0.0010000  0  6  1 14 15 22 25 29
  25066548.817    11352693.822 5   8773103.54849  25066551.6654
  21525344.669   -10069423.221 7  -7762921.54249  21525346.2744
  22048016.114     5563538.877 7   4336993.90749  22048018.3414
  23011162.380    -5629296.469 6  -4300946.81149  23011164.7594
  21810253.669     5563376.761 7   4335865.09349  21810254.1614
  23148839.208    -7556067.291 6  -6215714.29649  23148840.0174
 95  2  7 16 50 30.0010000  0  6  1 14 15 22 25 29
  25083120.341    11439774.348 5   8840958.43449  25083123.4234
  21515767.942   -10119749.937 7  -7802137.15849  21515769.2314
  22064099.021     5648055.425 7   4402850.92549  22064101.2944
  22998601.685    -5695304.376 6  -4352381.49549  22998604.0994
  21825004.599     5640894.609 7   4396268.59149  21825004.9274
  23140813.177    -7598244.255 6  -6248579.44249  23140814.2904
 95  2  7 16 51  0.0010000  0  6  1 14 15 22 25 29
  25099719.833    11527005.834 5   8908930.95649  25099722.4114
  21506272.528   -10169647.519 7  -7841018.38149  21506273.9114
  22080290.192     5733139.445 7   4469150.12849  22080292.2674
  22986124.325    -5760867.993 6  -4403470.00049  22986127.8644
  21839845.052     5718879.716 7   4457036.18849  21839845.5214
  23132827.599    -7640209.630 6  -6281279.71649  23132827.9034
 95  2  7 16 51 30.0010000  0  6  1 14 15 22 25 29
  25116341.685    11614353.781 5   8976994.22249  25116345.6574
  21496855.067   -10219137.398 7  -7879581.91749  21496856.3564
  22096583.653     5818762.375 7   4535869.26649  22096585.7634
  22973725.747    -5826025.708 6  -4454242.21649  22973727.7164
  21854768.380     5797302.026 7   4518144.45749  21854768.6734
  23124880.294    -7681972.780 6  -6313822.40449  23124880.6924
 95  2  7 16 52  0.0010000  0  6  1 14 15 22 25 29
  25132985.005    11701812.114 5   9045143.49149  25132987.6654
  21487517.817   -10268206.037 7  -7917817.21949  21487518.8964
  22112980.021     5904923.184 7   4603007.53249  22112982.1304
  22961401.591    -5890789.101 6  -4504707.16949  22961403.8294
  21869776.630     5876170.794 8   4579600.62449  21869776.8644
  23116973.849    -7723522.744 6  -6346198.98549  23116974.2824
 95  2  7 16 52 30.0010000  0  5 14 15 22 25 29
  21478267.708   -10316814.508 7  -7955693.94949  21478269.0204
  22129484.950     5991656.977 7   4670592.27249  22129486.8604
  22949160.349    -5955122.537 6  -4554837.09049  22949162.7634
  21884878.513     5955530.107 8   4641439.02849  21884878.5954
  23109115.028    -7764820.447 6  -6378379.00149  23109116.2474
 95  2  7 16 53  0.0010000  0  5 14 15 22 25 29
  21469103.833   -10364972.653 7  -7993219.76749  21469105.0994
  22146098.497     6078962.832 7   4738622.78849  22146100.3604
  22937002.645    -6019009.258 6  -4604618.93349  22937005.0364
  21900073.005     6035379.277 8   4703659.14549  21900073.2284
  23101308.005    -7805844.580 6  -6410345.83149  23101308.9894
 95  2  7 16 53 30.0010000  0  5 14 15 22 25 29
  21460022.614   -10412694.806 7  -8030405.85849  21460023.9274
  22162817.099     6166819.599 7   4807082.58449  22162819.0444
  22924924.716    -6082475.689 6  -4654073.26649  22924927.8104
  21915358.810     6115708.435 7   4766253.27349  21915359.2084
  23093551.731    -7846605.623 6  -6442107.66549  23093553.0564
 95  2  7 16 54  0.0010000  0  5 14 15 22 25 29
  21451027.169   -10459964.290 7  -8067239.21949  21451028.3644
  22179641.747     6255234.904 7   4875977.59249  22179644.1144
  22912929.833    -6145510.979 6  -4703191.64449  22912932.3644
  21930740.325     6196536.405 8   4829236.08649  21930740.6534
  23085843.216    -7887112.874 6  -6473671.73649  23085844.3294
 95  2  7 16 54 30.0010000  0  5 14 15 22 25 29
  21442120.630   -10506768.364 7  -8103709.92649  21442121.9664
  22196574.771     6344216.850 7   4945314.14149  22196576.8454
  22901020.442    -6208095.363 6  -4751958.66349  22901023.0324
  21946218.997     6277878.288 8   4892619.34549  21946219.3494
  23078185.513    -7927354.735 6  -6505029.01249  23078186.6034
 95  2  7 16 55  0.0010000  0  5 14 15 22 25 29
  21433305.216   -10553093.253 7  -8139807.23849  21433306.6104
  22213613.880     6433758.886 7   5015087.11249  22213616.1064
  22889193.442    -6270247.787 6  -4800389.09249  22889195.8684
  21961795.419     6359730.362 8   4956400.16549  21961795.5484
  23070576.583    -7967340.826 6  -6536186.98549  23070577.3564
 95  2  7 16 55 30.0010000  0  5 14 15 22 25 29
  21424579.505   -10598948.248 7  -8175538.40549  21424580.8534
  22230756.294     6523842.903 7   5085282.41449  22230758.8134
  22877441.669    -6331999.673 6  -4848507.41249  22877444.4584
  21977464.044     6442070.926 8   5020561.62149  21977464.3134
  23063009.356    -8007105.479 6  -6567172.40749  23063009.9664
 95  2  7 16 56  0.0010000  0  5 14 15 22 25 29
  21415945.575   -10644319.704 7  -8210892.78849  21415946.9114
  22248003.817     6614479.441 7   5155908.24649  22248006.7354
  22865771.481    -6393328.677 6  -4896296.21849  22865773.9664
  21993225.888     6524899.696 8   5085103.50149  21993226.0634
  23055485.669    -8046645.739 6  -6597982.97749  23055486.6064
 95  2  7 16 56 30.0010000  0  5 14 15 22 25 29
  21407403.185   -10689208.456 7  -8245871.03149  21407404.5914
  22265356.614     6705669.458 7   5226965.36049  22265359.7204
  22854184.583    -6454220.234 6  -4943744.14949  22854187.0564
  22009077.724     6608202.774 8   5150014.97149  22009078.0634
  23048006.802    -8085943.180 6  -6628604.34149  23048008.1614
 95  2  7 16 57  0.0010000  0  5 14 15 22 25 29
  21398953.974   -10733610.611 7  -8280470.11749  21398955.4854
  22282816.560     6797420.367 7   5298459.54049  22282819.1264
  22842682.645    -6514660.709 6  -4990840.57849  22842685.0604
  22025018.958     6691973.432 8   5215290.79149  22025019.1464
  23040575.911    -8124992.436 6  -6659032.32249  23040577.0714
 95  2  7 16 57 30.0010000  0  5 14 15 22 25 29
  21390594.731   -10777538.510 7  -8314699.64849  21390596.5364
  22300382.161     6889727.926 7   5370387.47449  22300384.5174
  22831271.450    -6574623.630 6  -5037564.88749  22831274.2394
  22041047.474     6776203.049 8   5280924.24149  22041047.5564
  23033193.489    -8163789.369 6  -6689263.67749  23033194.6264
 95  2  7 16 58  0.0010000  0  5 14 15 22 25 29
  21382327.692   -10820983.049 7  -8348552.53249  21382329.4154
  22318052.825     6982588.696 6   5442746.47749  22318055.2394
  22819955.271    -6634092.546 6  -5083904.25349  22819957.8254
  22057164.646     6860900.369 8   5346922.13749  22057164.8924
  23025859.888    -8202325.827 6  -6719292.07549  23025860.9784
 95  2  7 16 58 30.0010000  0  5 14 15 22 25 29
  21374149.224   -10863960.543 7  -8382041.48649  21374150.7244
  22335825.771     7075984.938 6   5515522.74149  22335828.1494
  22808729.880    -6693082.500 6  -5129870.41149  22808732.6814
  22073368.388     6946051.492 8   5413273.64149  22073368.6814
  23018574.021    -8240613.346 6  -6749126.49649  23018575.6494
 95  2  7 16 59  0.0010000  0  5 14 15 22 25 29
  21366061.466   -10906461.553 7  -8415159.15349  21366062.9894
  22353700.810     7169919.176 6   5588718.22149  22353703.0134
  22797597.622    -6751584.367 6  -5175456.23749  22797600.0484
  22089659.989     7031664.651 8   5479985.18049  22089660.1424
  23011335.021    -8278654.256 6  -6778768.73749  23011336.4504
 95  2  7 16 59 30.0010000  0  5 14 15 22 25 29
  21358066.614   -10948474.201 7  -8447896.27449  21358068.2204
  22371677.083     7264385.203 6   5662328.07749  22371679.6384
  22786556.724    -6809605.112 6  -5220667.15649  22786558.9854
  22106039.216     7117737.339 8   5547054.79249  22106039.2634
  23004143.036    -8316449.892 6  -6808219.86749  23004144.5244
 95  2  7 17  0  0.0010000  0  5 14 15 22 25 29
  21350168.825   -10989978.617 7  -8480237.37949  21350170.5714
  22389756.224     7359390.169 7   5736357.89049  22389758.6144
  22775605.341    -6867153.259 6  -5265509.81949  22775607.5444
  22122507.513     7204278.779 8   5614489.66449  22122507.6884
  22996998.560    -8353995.508 6  -6837476.17449  22996999.6384
 95  2  7 17  0 30.0010000  0  5 14 15 22 25 29
  21342366.997   -11030977.296 7  -8512184.39649  21342368.5794
  22407935.966     7454926.149 6   5810801.48449  22407938.1344
  22764744.208    -6924227.708 6  -5309983.36249  22764746.1534
  22139062.114     7291274.726 8   5682278.70049  22139062.3254
  22989901.599    -8391289.430 6  -6866536.35949  22989902.6774
 95  2  7 17  1  0.0010000  0  5 14 15 22 25 29
  21334661.896   -11071469.089 7  -8543736.44149  21334663.5484
  22426214.880     7550981.911 6   5885650.09249  22426217.6574
  22753974.466    -6980825.108 6  -5354085.18649  22753976.8104
  22155702.630     7378719.898 8   5750417.77949  22155702.8174
  22982853.716    -8428328.843 6  -6895398.22849  22982854.5834
 95  2  7 17  1 30.0010000  0  5 14 15 22 25 29
  21327051.067   -11111463.816 7  -8574901.16149  21327052.5564
  22444590.489     7647546.448 7   5960895.15549  22444593.0214
  22743293.263    -7036953.445 6  -5397821.51649  22743295.4894
  22172428.833     7466616.642 7   5818908.72749  22172429.2084
  22975852.997    -8465113.048 6  -6924061.22949  22975853.6184
 95  2  7 17  2  0.0010000  0  5 14 15 22 25 29
  21319534.278   -11150964.779 7  -8605681.13149  21319535.7904
  22463063.552     7744623.279 6   6036539.40749  22463066.4234
  22732706.505    -7092588.011 6  -5441173.07749  22732708.8024
  22189245.208     7554987.312 8   5887768.97249  22189245.4544
  22968904.224    -8501629.745 6  -6952515.78849  22968905.3254
 95  2  7 17  2 30.0010000  0  5 14 15 22 25 29
  21312110.544   -11189976.208 7  -8636079.64749  21312112.1494
  22481632.849     7842205.274 6   6112577.28849  22481635.4974
  22722216.185    -7147716.071 7  -5484129.96749  22722218.7394
  22206150.747     7643826.000 7   5956993.90849  22206151.1814
  22962006.505    -8537877.064 6  -6980760.44049  22962007.8064
 95  2  7 17  3  0.0010000  0  5 14 15 22 25 29
  21304774.763   -11228526.485 7  -8666118.81949  21304776.4624
  22500294.427     7940271.505 6   6188992.48549  22500297.0404
  22711817.067    -7202363.257 7  -5526712.15649  22711819.4234
  22223141.216     7733112.427 7   6026567.73249  22223141.4034
  22955155.731    -8573878.412 6  -7008813.42349  22955157.0444
 95  2  7 17  3 30.0010000  0  5 14 15 22 25 29
  21297528.661   -11266604.542 7  -8695790.03049  21297530.2434
  22519049.388     8038829.542 6   6265790.92649  22519052.0954
  22701509.372    -7256530.852 7  -5568920.63749  22701511.7284
  22240217.216     7822847.594 7   6096491.21949  22240217.6494
  22948349.755    -8609643.734 6  -7036682.49549  22948350.7394
 95  2  7 17  4  0.0010000  0  5 14 15 22 25 29
  21290376.263   -11304191.855 7  -8725078.84149  21290377.5874
  22537898.646     8137882.955 6   6342975.37049  22537901.6224
  22691293.317    -7310217.364 7  -5610754.24849  22691295.5094
  22257375.403     7913015.144 7   6166751.62649  22257375.8724
  22941588.896    -8645174.382 6  -7064368.69149  22941589.6344
 95  2  7 17  4 30.0010000  0  5 14 15 22 25 29
  21283314.388   -11341301.226 7  -8753995.23249  21283315.9354
  22556837.419     8237407.531 6   6420526.95449  22556840.1264
  22681163.091    -7363452.376 7  -5652236.03749  22681165.2824
  22274607.231     8003566.634 7   6237311.21249  22274607.5714
  22934868.731    -8680489.326 6  -7091886.80849  22934869.2944
 95  2  7 17  5  0.0010000  0  5 14 15 22 25 29
  21276344.692   -11377927.899 7  -8782535.50049  21276346.1224
  22575865.489     8337400.394 6   6498443.43249  22575868.3374
  22671118.317    -7416237.043 7  -5693366.91949  22671120.2394
  22291910.060     8094495.377 7   6308164.75949  22291910.1654
  22928189.341    -8715588.769 6  -7119237.00249  22928189.9744
 95  2  7 17  5 30.0010000  0  5 14 15 22 25 29
  21269466.849   -11414071.316 7  -8810699.19749  21269467.9274
  22594980.278     8437849.582 6   6576715.49249  22594982.7744
  22661161.208    -7468562.209 7  -5734139.74049  22661163.3644
  22309283.216     8185789.317 7   6379302.87149  22309283.0634
  22921550.106    -8750479.475 6  -7146424.54849  22921550.6924
 95  2  7 17  6  0.0010000  0  5 14 15 22 25 29
  21262682.981   -11449720.041 7  -8838477.42349  21262684.1654
  22614182.614     8538757.366 6   6655344.89349  22614185.2044
  22651297.833    -7520393.503 7  -5774527.72149  22651299.9784
  22326727.302     8277459.590 7   6450734.22949  22326727.2084
  22914954.521    -8785137.516 6  -7173430.79849  22914955.0834
 95  2  7 17  6 30.0010000  0  5 14 15 22 25 29
  21255991.911   -11484882.129 7  -8865876.44949  21255993.2124
  22633469.661     8640111.313 6   6734321.95449  22633472.0874
  22641530.364    -7571722.338 7  -5814524.18149  22641532.5324
  22344244.239     8369511.628 7   6522463.06649  22344244.2744
  22908400.911    -8819578.057 6  -7200267.56849  22908401.7434
 95  2  7 17  7  0.0010000  0  5 14 15 22 25 29
  21249395.231   -11519548.202 7  -8892888.97149  21249396.4624
  22652842.294     8741916.355 6   6813650.51649  22652845.3414
  22631861.622    -7622529.073 7  -5854113.81449  22631864.1064
  22361837.661     8461966.569 7   6594505.84849  22361837.8844
  22901884.325    -8853821.283 6  -7226950.59649  22901884.7124
 95  2  7 17  7 30.0010000  0  5 14 15 22 25 29
  21242894.185   -11553711.263 7  -8919509.56749  21242895.4504
  22672301.700     8844174.794 6   6893332.37849  22672304.3844
  22622295.950    -7672799.473 7  -5893285.52049  22622298.0244
  22379511.263     8554840.821 7   6666875.37249  22379511.3564
  22895404.161    -8887875.562 6  -7253486.20447  22895401.0564
 95  2  7 17  8  0.0010000  0  5 14 15 22 25 29
  21236487.442   -11587379.059 7  -8945744.18149  21236488.6614
  22691842.661     8946865.476 6   6973351.05449  22691845.5674
  22612824.739    -7722568.489 7  -5932066.53549  22612826.8604
  22397260.864     8648116.611 7   6739557.78549  22397261.1924
  22888956.169    -8921762.925 6  -7279892.10449  22888956.6494
 95  2  7 17  8 30.0010000  0  5 14 15 22 25 29
  21230176.606   -11620543.555 7  -8971586.64849  21230177.6854
  22711470.185     9050007.567 6   7053721.47649  22711473.2554
  22603450.685    -7771830.793 7  -5970452.70249  22603453.0054
  22415088.817     8741802.902 7   6812560.06749  22415089.2394
  22882539.521    -8955478.146 6  -7306163.68449  22882540.5754
 95  2  7 17  9  0.0010000  0  5 14 15 22 25 29
  21223959.802   -11653212.233 7  -8997042.75949  21223960.7744
  22731181.286     9153589.441 6   7134434.58149  22731184.4854
  22594169.786    -7820601.457 7  -6008455.78849  22594171.9784
  22432990.771     8835879.593 7   6885866.55749  22432991.4504
  22876158.880    -8989011.203 6  -7332293.32049  22876159.8174
 95  2  7 17  9 30.0010000  0  5 14 15 22 25 29
  21217836.614   -11685390.718 7  -9022116.90349  21217837.7284
  22750973.646     9257598.386 6   7215480.46349  22750976.9154
  22584978.481    -7868902.494 7  -6046092.92449  22584980.7084
  22450964.177     8930329.209 7   6959463.63849  22450964.5754
  22869816.966    -9022333.800 6  -7358258.96249  22869818.3844
 95  2  7 17 10  0.0010000  0  5 14 15 22 25 29
  21211805.974   -11717080.073 7  -9046809.90449  21211806.9584
  22770847.255     9362032.468 6   7296857.62849  22770849.8334
  22575875.177    -7916740.607 7  -6083369.34249  22575877.2864
  22469003.974     9025127.221 7   7033332.19549  22469004.3604
  22863519.302    -9055430.992 6  -7384048.97249  22863520.4744
 95  2  7 17 10 30.0010000  0  5 14 15 22 25 29
  21205865.396   -11748299.983 7  -9071137.10749  21205866.3564
  22790797.661     9466874.398 6   7378552.59049  22790800.7204
  22566859.403    -7964119.320 7  -6120287.78849  22566861.5014
  22487109.169     9120271.779 7   7107470.79249  22487109.3564
  22857263.435    -9088305.139 6  -7409665.17649  22857264.6534
 95  2  7 17 11  0.0010000  0  5 14 15 22 25 29
  21200016.950   -11779031.949 7  -9095084.09049  21200018.2394
  22810825.669     9572120.403 6   7460562.42849  22810828.7744
  22557931.950    -8011032.453 7  -6156843.44849  22557934.1884
  22505282.669     9215772.799 7   7181887.14549  22505282.8684
  22851052.669    -9120944.706 6  -7435098.58349  22851053.7944
 95  2  7 17 11 30.0010000  0  5 14 15 22 25 29
  21194264.442   -11809261.724 7  -9118639.76149  21194265.7084
  22830932.833     9677785.811 6   7542899.06449  22830935.6464
  22549097.864    -8057453.563 7  -6193015.70849  22549100.2434
  22523526.841     9311646.964 7   7256594.25549  22523527.1574
  22844886.333    -9153347.535 6  -7460347.53049  22844886.9424
 95  2  7 17 12  0.0010000  0  5 14 15 22 25 29
  21188602.763   -11839014.976 7  -9141824.11249  21188604.0054
  22851115.052     9783844.134 6   7625541.88149  22851118.2744
  22540355.942    -8103394.605 7  -6228813.88949  22540358.4744
  22541839.060     9407877.717 7   7331579.23249  22541839.2824
  22838758.544    -9185550.451 6  -7485440.68649  22838759.4234
 95  2  7 17 12 30.0010000  0  5 14 15 22 25 29
  21183032.192   -11868288.611 7  -9164634.73649  21183033.3994
  22871371.646     9890293.944 6   7708489.74449  22871374.6104
  22531708.341    -8148837.361 7  -6264223.80049  22531710.6614
  22560220.747     9504474.794 7   7406849.66149  22560220.9114
  22832668.567    -9217551.773 6  -7510376.75849  22832669.6104
 95  2  7 17 13  0.0010000  0  5 14 15 22 25 29
  21177557.599   -11897058.148 7  -9187052.54749  21177558.7714
  22891706.685     9997153.833 6   7791757.16049  22891709.4624
  22523161.864    -8193750.636 7  -6299221.13349  22523163.8684
  22578671.044     9601431.260 7   7482400.12449  22578671.4544
  22826618.278    -9249348.973 6  -7535153.78249  22826619.5914
 95  2  7 17 13 30.0010000  0  5 14 15 22 25 29
  21172176.481   -11925335.724 7  -9209087.02249  21172177.5954
  22912115.880    10104407.407 6   7875331.32649  22912118.8924
  22514713.653    -8238145.946 7  -6333814.84149  22514715.3064
  22597184.497     9698720.721 7   7558210.06649  22597185.2124
  22820603.083    -9280955.764 6  -7559782.43349  22820604.2674
 95  2  7 17 14  0.0010000  0  5 14 15 22 25 29
  21166889.466   -11953116.695 7  -9230734.53149  21166890.7674
  22932599.724    10212048.241 6   7959207.26649  22932603.0284
  22506363.896    -8282024.703 7  -6368006.04649  22506365.7704
  22615762.349     9796347.151 7   7634282.58049  22615763.0054
  22814624.497    -9312374.162 6  -7584264.28149  22814625.8334
 95  2  7 17 14 30.0010000  0  5 14 15 22 25 29
  21161697.567   -11980402.162 7  -9251995.93549  21161699.0674
  22953156.177    10320071.671 6   8043381.32349  22953159.3174
  22498113.091    -8325381.348 7  -6401790.41249  22498115.3534
  22634402.880     9894304.329 7   7710612.82049  22634403.6884
  22808678.052    -9343620.375 6  -7608611.96349  22808679.9154
 95  2  7 17 15  0.0010000  0  5 14 15 22 25 29
  21156601.630   -12007181.495 7  -9272862.94749  21156603.2714
  22973784.466    10428475.876 6   8127852.09149  22973787.3844
  22489960.349    -8368222.306 7  -6435172.95549  22489962.9034
  22653107.911     9992600.116 7   7787206.91049  22653108.4974
  22802765.138    -9374695.340 6  -7632826.20249  22802766.6384
 95  2  7 17 15 30.0010000  0  5 14 15 22 25 29
  21151601.872   -12033455.392 7  -9293336.11549  21151603.4314
  22994485.169    10537256.382 6   8212616.07549  22994488.2514
  22481905.763    -8410550.749 7  -6468156.12949  22481908.1654
  22671880.052    10091247.711 7   7864075.13849  22671880.8134
  22796888.169    -9405578.637 6  -7656891.09649  22796889.4114
 95  2  7 17 16  0.0010000  0  5 14 15 22 25 29
  21146695.122   -12059240.225 7  -9313428.19249  21146696.7514
  23015253.911    10646397.123 6   8297660.75249  23015257.1814
  22473946.935    -8452379.402 7  -6500749.86349  22473948.8564
  22690717.067    10190235.877 7   7941208.74849  22690717.6424
  22791045.255    -9436282.591 6  -7680816.24549  22791046.4274
 95  2  7 17 16 30.0010000  0  5 14 15 22 25 29
  21141888.294   -12084500.771 7  -9333111.73449  21141890.0284
  23036095.560    10755920.787 6   8383003.82849  23036098.8064
  22466086.583    -8493682.461 7  -6532934.03849  22466088.7394
  22709620.497    10289575.490 7   8018616.21049  22709621.1534
  22785243.481    -9466772.773 6  -7704574.81649  22785244.9354
 95  2  7 17 17  0.0010000  0  5 14 15 22 25 29
  21137185.325   -12109214.944 7  -9352369.53149  21137186.9544
  23057010.396    10865829.049 6   8468646.57049  23057014.0524
  22458328.864    -8534448.088 7  -6564699.44449  22458331.1854
  22728591.927    10389270.822 7   8096300.86049  22728592.7594
  22779485.981    -9497026.644 6  -7728149.24349  22779487.3294
 95  2  7 17 17 30.0010000  0  5 14 15 22 25 29
  21132580.810   -12133411.967 7  -9371224.35749  21132582.5094
  23077993.645    10976096.983 6   8554569.57749  23077996.8924
  22450671.708    -8574688.750 7  -6596055.78249  22450673.8534
  22747625.364    10489293.523 7   8174240.59749  22747626.0914
  22773767.825    -9527077.030 6  -7751565.12049  22773769.1264
 95  2  7 17 18  0.0010000  0  5 14 15 22 25 29
  21128076.466   -12157083.565 7  -9389669.75949  21128078.1534
  23099045.950    11086728.623 6   8640776.00649  23099049.0094
  22443116.356    -8614390.950 7  -6626992.54749  22443118.5714
  22766722.372    10589646.086 7   8252437.37549  22766722.8644
  22768087.005    -9556931.701 6  -7774828.48949  22768088.6574
 95  2  7 17 18 30.0010000  0  5 14 15 22 25 29
  21123669.716   -12180240.868 7  -9407714.40949  21123671.6494
  23120165.724    11197709.408 6   8727254.48149  23120168.5484
  22435663.817    -8653553.229 7  -6657508.58849  22435666.0564
  22785879.333    10690317.031 7   8330882.24049  22785879.5794
  22762440.099    -9586605.593 6  -7797950.98649  22762441.4234
 95  2  7 17 19  0.0010000  0  6 18 14 15 22 25 29
  25219235.692       -9450.32714
  21119360.138   -12202886.358 7  -9425360.24549  21119362.0244
  23141352.474    11309047.325 6   8814011.24849  23141355.4154
  22428317.474    -8692157.237 7  -6687589.61449  22428319.7714
  22805098.856    10791316.674 7   8409583.23449  22805099.2554
  22756828.817    -9616094.177 6  -7820929.09149  22756829.9544
 95  2  7 17 19 30.0010000  0  6 18 14 15 22 25 29
  25208456.286      -66093.613 4
  21115146.849   -12225026.677 7  -9442612.43449  21115148.8294
  23162604.817    11420731.100 6   8901037.52249  23162607.4664
  22421073.810    -8730225.004 7  -6717252.79349  22421076.0244
  22824376.583    10892619.873 7   8488520.76649  22824376.8174
  22751249.950    -9645409.417 6  -7843772.12049  22751250.7594
 95  2  7 17 20  0.0010000  0  6 18 14 15 22 25 29
  25197704.255      -43305.03613    -27871.22158  25197704.7124
  21111037.755   -12246621.900 7  -9459439.87949  21111039.4894
  23183926.927    11532778.783 6   8988347.34349  23183929.6464
  22413935.583    -8767737.467 7  -6746483.26749  22413937.5994
  22843713.208    10994235.282 7   8567701.58049  22843713.6774
  22745710.575    -9674520.462 6  -7866456.04049  22745711.5134
 95  2  7 17 20 30.0010000  0  6 18 14 15 22 25 29
  25186974.591      -99690.242 3    -71807.75747  25186977.3454
  21107030.927   -12267676.738 7  -9475846.24349  21107032.6144
  23205313.942    11645168.675 6   9075923.83749  23205316.7204
  22406899.763    -8804712.484 7  -6775294.94949  22406902.0484
  22863104.731    11096137.690 7   8647106.02049  22863105.3884
  22740207.153    -9703439.440 6  -7888990.29049  22740208.4664
 95  2  7 17 21  0.0010000  0  6 18 14 15 22 25 29
  25176268.825     -155946.769 3   -115644.01348  25176271.2634
  21103132.146   -12288166.055 7  -9491811.94349  21103133.7394
  23226767.997    11757912.752 6   9163776.31449  23226771.5134
  22399967.810    -8841139.577 7  -6803679.67949  22399969.7434
  22882551.325    11198329.868 7   8726736.25549  22882551.7474
  22734744.091    -9732149.456 6  -7911361.72149  22734745.3564
 95  2  7 17 21 30.0010000  0  6 18 14 15 22 25 29
  25165588.958     -212074.744 3   -159380.06948  25165592.6034
  21099340.528   -12308091.249 7  -9507338.07149  21099342.1814
  23248288.481    11871000.624 6   9251896.68249  23248292.0914
  22393138.731    -8877023.853 7  -6831641.43449  22393140.5954
  22902052.153    11300808.339 7   8806589.57949  22902052.5874
  22729319.513    -9760650.681 6  -7933570.45149  22729320.6494
 95  2  7 17 22  0.0020000  0  6 18 14 15 22 25 29
  25154932.260     -268071.512 3   -203013.90647  25154934.0414
  21095652.369   -12327470.741 7  -9522438.97049  21095654.0574
  23269874.025    11984433.658 6   9340286.01049  23269877.1074
  22386418.229    -8912340.201 7  -6859160.65049  22386420.0334
  22921612.393    11403597.954 7   8886685.35049  22921612.9084
  22723936.791    -9788941.399 6  -7955615.16049  22723937.7404
 95  2  7 17 22 30.0020000  0  6 18 14 15 22 25 29
  25144306.189     -323912.545 3   -246526.31047  25144308.8034
  21092069.291   -12346302.156 7  -9537112.79849  21092070.9084
  23291526.463    12098216.349 6   9428947.79149  23291529.8734
  22379809.830    -8947068.222 7  -6886221.42449  22379811.7404
  22941234.939    11506715.472 7   8967036.62749  22941235.4674
  22718597.736    -9816998.603 7  -7977477.89449  22718598.6624
 95  2  7 17 23  0.0020000  0  6 18 14 15 22 25 29
  25133710.525     -379593.534 3   -289914.06347  25133711.5804
  21088586.752   -12364601.684 7  -9551372.17049  21088588.2874
  23313243.588    12212340.719 6   9517875.81449  23313246.7994
  22373312.307    -8981212.825 7  -6912827.58549  22373314.3344
  22960920.807    11610165.020 7   9047646.63249  22960921.3464
  22713301.236    -9844832.420 6  -7999166.56349  22713302.3384
 95  2  7 17 23 30.0020000  0  6 18 14 15 22 25 29
  25123136.869     -435159.212 3   -333211.96548  25123141.8264
  21085197.478   -12382413.839 7  -9565251.77149  21085199.2484
  23335017.689    12326765.208 6   9607037.69649  23335020.5494
  22366919.846    -9014803.867 7  -6939002.40349  22366922.3304
  22980663.947    11713917.272 7   9128492.51349  22980664.2644
  22708038.408    -9872486.365 6  -8020715.07449  22708039.3464
 95  2  7 17 24  0.0020000  0  6 18 14 15 22 25 29
  25112586.900     -490596.746 3   -376409.98847  25112588.2484
  21081906.932   -12399703.646 7  -9578724.35149  21081908.6544
  23356854.096    12441513.556 6   9696451.93149  23356857.4824
  22360635.854    -9047828.879 7  -6964736.16749  22360638.1394
  23000469.377    11817993.607 7   9209590.92349  23000469.8934
  22702813.346    -9899945.685 6  -8042111.93049  22702814.2604
 95  2  7 17 24 30.0020000  0  6 18 14 15 22 25 29
  25102063.252     -545904.981 3   -419507.33147  25102068.1974
  21078720.197   -12416451.145 7  -9591774.34749  21078721.8614
  23378751.291    12556585.493 6   9786118.31949  23378755.0414
  22354456.064    -9080303.810 7  -6990041.29049  22354458.5614
  23020334.385    11922385.019 7   9290934.85949  23020334.6194
  22697626.018    -9927205.091 6  -8063353.00449  22697626.7324
 95  2  7 17 25  0.0020000  0  6 18 14 15 22 25 29
  25091564.119     -601077.104 3   -462498.52446  25091565.5144
  21075642.158   -12432629.556 7  -9604380.89849  21075643.4714
  23400712.822    12671993.870 6   9876046.86349  23400716.2914
  22348384.627    -9112209.526 7  -7014902.87649  22348386.8894
  23040261.150    12027100.134 7   9372531.02049  23040261.5494
  22692476.846    -9954265.267 6  -8084438.83749  22692477.7484
 95  2  7 17 25 30.0020000  0  6 18 14 15 22 25 29
  25081084.947     -656135.628 3   -505401.26048  25081086.1894
  21072669.291   -12448250.582 7  -9616553.12749  21072670.5804
  23422734.713    12787721.464 6   9966224.15849  23422738.0534
  22342418.096    -9143562.072 7  -7039333.41849  22342420.0414
  23060244.580    12132114.673 7   9454360.50049  23060245.0844
  22687361.908    -9981142.427 7  -8105382.05649  22687362.5414
 95  2  7 17 26  0.0020000  0  6 18 14 15 22 25 29
  25070632.393     -711071.867 3   -548208.66346  25070635.2754
  21069803.635   -12463308.611 7  -9628286.65649  21069805.1114
  23444816.588    12903759.919 6  10056643.67849  23444819.5064
  22336557.197    -9174362.727 7  -7063333.91549  22336559.3304
  23080284.486    12237422.377 7   9536418.42149  23080285.0024
  22682283.518   -10007831.031 6  -8126178.35249  22682284.3264
 95  2  7 17 26 30.0020000  0  6 18 14 15 22 25 29
  25060202.236     -765879.588 3   -590915.98848  25060206.7134
  21067047.682   -12477792.319 7  -9639572.66849  21067049.0764
  23466956.213    13020104.818 6  10147302.00149  23466959.5294
  22330806.299    -9204582.042 7  -7086881.41449  22330808.7134
  23100378.119    12343018.106 7   9618700.78149  23100378.7404
  22677242.314   -10034321.639 7  -8146820.36549  22677243.0764
 95  2  7 17 27  0.0020000  0  6 18 14 15 22 25 29
  25049801.189     -820539.857 3   -633508.35747  25049802.7014
  21064407.025   -12491669.704 7  -9650386.21649  21064408.3384
  23489158.182    13136777.923 6  10238216.06149  23489161.1934
  22325173.729    -9234182.240 7  -7109946.49049  22325175.7914
  23120530.525    12448917.005 7   9701219.37049  23120530.9124
  22672241.447   -10060600.792 7  -8167297.61049  22672242.3144
 95  2  7 17 27 30.0020000  0  6 18 14 15 22 25 29
  25039424.947     -875067.741 3   -675997.57247  25039426.4594
  21061877.127   -12504964.696 8  -9660745.95649  21061878.4284
  23511419.049    13253758.616 6  10329369.80649  23511422.5884
  22319657.041    -9263173.436 7  -7132537.02249  22319659.3964
  23140737.432    12555106.332 7   9783964.27049  23140738.2174
  22667281.408   -10086666.479 7  -8187608.51449  22667282.1354
 95  2  7 17 28  0.0020000  0  6 18 14 15 22 25 29
  25029072.752     -929464.072 3   -718384.30947  25029074.8964
  21059457.994   -12517676.989 7  -9670651.63649  21059459.2834
  23533737.510    13371040.254 6  10420758.05349  23533740.7324
  22314255.627    -9291556.484 7  -7154653.66849  22314258.0184
  23160998.627    12661580.293 7   9866930.96349  23160999.4244
  22662361.978   -10112519.553 7  -8207753.75249  22662362.3534
 95  2  7 17 28 30.0020000  0  6 18 14 15 22 25 29
  25018749.635     -983715.756 3   -760658.29048  25018750.5494
  21057152.518   -12529793.414 8  -9680093.01549  21057153.6544
  23556116.182    13488640.338 6  10512394.42749  23556118.9944
  22308974.322    -9319310.472 7  -7176280.13649  22308976.8544
  23181315.861    12768346.223 7   9950125.16349  23181316.5764
  22657484.221   -10138150.291 7  -8227725.73449  22657484.7364
 95  2  7 17 29  0.0020000  0  6 18 14 15 22 25 29
  25008449.018    -1037848.145 4   -802839.35149  25008449.0414
  21054952.025   -12541356.804 8  -9689103.44649  21054953.0454
  23578549.939    13606531.321 6  10604257.48249  23578553.4904
  22303807.596    -9346461.948 7  -7197437.11749  22303809.8114
  23201685.361    12875390.398 7  10033536.17749  23201686.0184
  22652643.479   -10163589.411 7  -8247548.40549  22652644.1354
 95  2  7 17 29 30.0020000  0  6 18 14 15 22 25 29
  24998180.908    -1091804.535 4   -844883.27248  24998184.1544
  21052863.557   -12552330.666 7  -9697654.51149  21052864.7874
  23601046.736    13724755.690 6  10696380.31849  23601050.1004
  22298764.119    -9372965.143 7  -7218088.93949  22298766.2054
  23222121.041    12982778.422 7  10117215.12449  23222121.9204
  22647850.119   -10188778.601 7  -8267176.32749  22647851.1154
 95  2  7 17 30  0.0020000  0  6 18 14 15 22 25 29
  24987946.439    -1145589.084 4   -886793.28548  24987950.3774
  21050889.510   -12562703.230 7  -9705737.03149  21050891.0454
  23623606.791    13843307.936 6  10788758.62449  23623610.7294
  22293843.979    -9398821.855 7  -7238237.01249  22293846.1354
  23242617.861    13090492.327 7  10201148.00449  23242618.5884
  22643102.439   -10213727.543 7  -8286617.04849  22643103.6934
 95  2  7 17 30 30.0020000  0  6 18 14 15 22 25 29
  24977740.971    -1199221.785 5   -928584.97048  24977743.3384
  21049029.994   -12572476.274 7  -9713352.38649  21049031.6234
  23646227.525    13962177.834 6  10881384.47049  23646230.7484
  22289044.627    -9424042.566 7  -7257889.49149  22289046.7134
  23263175.127    13198521.005 7  10285326.15449  23263175.9004
  22638399.908   -10238439.159 7  -8305872.84049  22638400.9394
 95  2  7 17 31  0.0020000  0  6 18 14 15 22 25 29
  24967561.885    -1252711.111 5   -970264.96148  24967566.0574
  21047283.932   -12581652.740 7  -9720502.88449  21047285.3144
  23668905.760    14081355.160 6  10974249.87249  23668909.8734
  22284362.822    -9448646.223 7  -7277061.19549  22284364.8264
  23283793.150    13306869.749 7  10369753.71049  23283793.7134
  22633743.205   -10262911.011 7  -8324941.69149  22633743.3344
 95  2  7 17 31 30.0020000  0  6 18 14 15 22 25 29
  24957412.174    -1306050.705 4  -1011828.25248  24957412.0334
  21045654.869   -12590213.206 7  -9727173.38049  21045656.4044
  23691643.955    14200842.264 6  11067356.66249  23691647.3654
  22279796.713    -9472641.438 7  -7295758.68549  22279798.8574
  23304469.549    13415523.739 7  10454419.12249  23304469.8774
  22629135.729   -10287121.063 7  -8343806.76949  22629136.8074
 95  2  7 17 32  0.0020000  0  6 18 14 15 22 25 29
  24947282.791    -1359269.415 4  -1053297.34648  24947283.7524
  21044142.307   -12598162.217 7  -9733367.41849  21044143.5614
  23714436.854    14320620.778 6  11160690.51249  23714440.3574
  22275343.682    -9496039.441 7  -7313990.87549  22275346.1894
  23325196.768    13524444.417 7  10539292.33649  23325197.2834
  22624575.260   -10311088.274 7  -8362482.50849  22624576.4084
 95  2  7 17 32 30.0020000  0  6 18 14 15 22 25 29
  24937178.252    -1412376.516 4  -1094679.55048  24937181.4284
  21042742.275   -12605517.315 7  -9739098.66749  21042743.5884
  23737281.103    14440670.588 6  11254235.76349  23737284.7014
  22271001.307    -9518861.019 7  -7331773.89649  22271003.6864
  23345975.588    13633638.336 7  10624378.46749  23345976.2094
  22620055.150   -10334842.558 7  -8380992.32549  22620056.1354
 95  2  7 17 33  0.0020000  0  6 18 14 15 22 25 29
  24927096.033    -1465356.512 4  -1135962.61948  24927098.9284
  21041455.268   -12612280.619 7  -9744368.77349  21041456.6394
  23760176.900    14560988.726 6  11347990.10049  23760180.7324
  22266771.291    -9541090.428 7  -7349095.48449  22266773.0724
  23366807.299    13743112.199 7  10709682.73749  23366807.9324
  22615574.588   -10358386.551 7  -8399338.27949  22615575.7604
 95  2  7 17 33 30.0020000  0  6 18 14 15 22 25 29
  24917035.541      -19370.21214  -1177159.74948  24917038.9634
  21040277.549   -12618469.932 7  -9749191.61649  21040279.2714
  23783120.283    14681558.102 6  11441940.21449  23783124.1624
  22262656.416    -9562714.037 7  -7365945.02049  22262658.1744
  23387688.807    13852844.428 7  10795188.32849  23387689.5454
  22611130.096   -10381741.405 7  -8417536.85549  22611131.3964
 95  2  7 17 34  0.0020000  0  6 18 14 15 22 25 29
  24906995.104      -72137.492 4  -1218277.09048  24906997.8344
  21039206.439   -12624098.966 7  -9753577.88249  21039208.0104
  23806109.674    14802365.635 6  11536075.89949  23806112.8854
  22258658.189    -9583724.452 7  -7382316.74549  22258660.0294
  23408619.643    13962836.149 7  10880896.11349  23408620.0294
  22606716.018   -10404939.086 7  -8435612.95949  22606717.2254
 95  2  7 17 34 30.0020000  0  6 18 14 15 22 25 29
  24896979.533     -124767.175 4  -1259287.22948  24896982.1004
  21038244.963   -12629151.854 7  -9757515.19749  21038246.4284
  23829146.971    14923425.166 6  11630407.94749  23829150.4164
  22254779.580    -9604105.248 7  -7398197.85749  22254781.7954
  23429604.744    14073111.269 7  10966824.73949  23429605.1664
  22602335.213   -10427961.226 7  -8453552.28249  22602336.0104
 95  2  7 17 35  0.0020000  0  6 18 14 15 22 25 29
  24886986.455     -177285.992 4  -1300210.93648  24886987.4514
  21037388.596   -12633650.687 7  -9761020.78849  21037390.2134
  23852227.330    15044712.595 6  11724917.57949  23852230.6234
  22251019.791    -9623864.597 7  -7413594.72149  22251021.8534
  23450634.830    14183626.223 7  11052940.25049  23450635.5684
  22597986.518   -10450813.217 7  -8471359.02349  22597987.3264
 95  2  7 17 35 30.0020000  0  6 18 14 15 22 25 29
  24877010.947     -229702.782 4  -1341055.18247  24877012.0254
  21036635.854   -12637607.424 7  -9764103.96049  21036637.4124
  23875346.588    15166204.338 6  11819586.41249  23875349.7284
  22247372.416    -9643032.810 7  -7428530.96649  22247374.2914
  23471704.986    14294350.343 7  11139218.74149  23471705.6544
  22593665.846   -10473519.393 7  -8489052.13549  22593666.4084
 95  2  7 17 36  0.0020000  0  6 18 14 15 22 25 29
  24867059.674     -281993.818 4  -1381801.43448  24867061.8304
  21035993.182   -12640984.701 7  -9766735.60549  21035994.5294
  23898507.057    15287913.819 6  11914424.90149  23898510.8534
  22243837.432    -9661607.895 7  -7443005.02749  22243839.4124
  23492816.588    14405291.072 7  11225666.01949  23492817.3034
  22589376.072   -10496061.213 7  -8506617.17949  22589376.6464
 95  2  7 17 36 30.0020000  0  6 18 14 15 22 25 29
  24857127.854     -334189.141 4  -1422473.13948  24857132.1434
  21035456.205   -12643807.066 7  -9768934.85749  21035457.6114
  23921704.908    15409818.941 6  12009415.83749  23921708.0614
  22240413.916    -9679598.290 7  -7457023.48549  22240415.6274
  23513962.604    14516415.426 7  11312256.38449  23513963.6114
  22585117.807   -10518439.185 7  -8524054.55249  22585118.8734
 95  2  7 17 37  0.0020000  0  6 18 14 15 22 25 29
  24847206.830     -386325.792 3  -1463099.07248  24847211.3424
  21035020.393   -12646096.823 7  -9770719.08549  21035021.8574
  23944936.439    15531901.922 6  12104545.37149  23944940.2604
  22237101.432    -9697004.896 7  -7470587.04449  22237103.4364
  23535138.213    14627693.169 7  11398966.27749  23535138.8814
  22580889.541   -10540659.046 7  -8541368.71349  22580890.3264
 95  2  7 17 37 30.0020000  0  6 18 14 15 22 25 29
  24837300.393     -438382.792 3  -1503662.96548  24837305.3384
  21034690.354   -12647831.270 7  -9772070.60449  21034691.8184
  23968205.947    15654186.130 5  12199831.72349  23968209.9674
  22233903.557    -9713807.414 7  -7483679.89049  22233905.7364
  23556346.885    14739143.888 7  11485810.95149  23556347.6934
  22576696.385   -10562694.629 7  -8558539.28749  22576697.1464
 95  2  7 17 38  0.0020000  0  6 18 14 15 22 25 29
  24827401.346     -490399.285 3  -1544195.29248  24827405.1894
  21034461.619   -12649033.161 7  -9773007.15049  21034463.2254
  23991511.283    15776657.210 5  12295263.66549  23991515.0454
  22230820.799    -9730010.065 7  -7496305.30849  22230823.0144
  23577586.604    14850762.092 6  11572786.13249  23577587.7054
  22572537.822   -10584546.909 7  -8575567.02849  22572538.4324
 95  2  7 17 38 30.0020000  0  6 18 14 15 22 25 29
  24817509.768     -542379.461 3  -1584699.29549  24817512.9434
  21034329.291   -12649727.799 7  -9773548.42949  21034331.0144
  24014849.619    15899302.564 5  12390831.40749  24014854.2834
  22227849.338    -9745623.694 7  -7508471.74449  22227851.1784
  23598859.814    14962552.217 6  11659895.27949  23598860.6704
  22568414.338   -10606216.393 7  -8592452.32649  22568414.8894
 95  2  7 17 39  0.0020000  0  6 18 14 15 22 25 29
  24807625.439     -594319.637 4  -1625172.14247  24807630.1504
  21034297.338   -12649897.657 8  -9773680.80149  21034299.0024
  24038219.150    16022105.914 5  12486522.28549  24038223.1824
  22224983.752    -9760683.986 7  -7520207.01549  22224985.4044
  23620166.478    15074520.606 6  11747143.32749  23620167.8144
  22564320.275   -10627730.718 7  -8609216.72549  22564321.0964
 95  2  7 17 39 30.0020000  0  6 18 14 15 22 25 29
  24797755.072     -646191.644 4  -1665591.86648  24797758.8464
  21034367.853   -12649527.523 8  -9773392.39149  21034369.4244
  24061618.275    16145069.214 5  12582337.78949  24061622.3544
  22222221.518    -9775198.819 7  -7531517.25549  22222223.2524
  23641513.916    15186700.695 6  11834556.34749  23641515.5454
  22560251.861   -10649109.266 7  -8625875.32549  22560252.9044
 95  2  7 17 40  0.0020000  0  6 18 14 15 22 25 29
  24787898.768     -697990.829 5  -1705954.86449  24787902.9284
  21034541.033   -12648617.193 8  -9772683.05449  21034542.5804
  24085045.900    16268182.103 5  12678269.84849  24085049.7794
  22219564.377    -9789162.078 7  -7542397.69749  22219566.1934
  23662901.377    15299093.488 6  11922135.10349  23662902.8304
  22556206.861   -10670366.890 7  -8642439.70049  22556207.9284
 95  2  7 17 40 30.0020000  0  6 18 14 15 22 25 29
  24778059.104     -749699.598 5  -1746247.40549  24778061.7174
  21034818.838   -12647156.705 8  -9771545.01449  21034820.3384
  24108501.471    16391441.552 5  12774316.12549  24108505.5844
  22217013.627    -9802567.832 7  -7552843.71849  22217015.5254
  23684327.228    15411687.545 6  12009870.69049  23684328.5534
  22552181.049   -10691521.995 7  -8658924.18849  22552182.2444
 95  2  7 17 41  0.0020000  0  6 18 14 15 22 25 29
  24768236.346     -801319.657 5  -1786470.79549  24768238.3734
  21035204.932   -12645129.111 8  -9769965.08149  21035206.3504
  24131985.088    16514850.044 5  12870478.50749  24131989.5294
  22214570.096    -9815405.872 7  -7562847.36749  22214572.0294
  23705789.932    15524472.903 6  12097755.34049  23705791.6434
  22548173.283   -10712582.179 7  -8675334.70549  22548174.4324
 95  2  7 17 41 30.0020000  0  6 18 14 15 22 25 29
  24758427.221     -852868.324 5  -1826638.55449  24758428.5684
  21035692.057   -12642569.110 8  -9767970.28349  21035693.4394
  24155495.658    16638397.023 5  12966748.81249  24155500.2994
  22212236.541    -9827668.614 7  -7572402.73649  22212238.5574
  23727282.814    15637420.211 6  12185766.18649  23727284.4084
  22544185.354   -10733539.576 7  -8691665.13549  22544186.1974
 95  2  7 17 42  0.0020000  0  6 18 14 15 22 25 29
  24748629.353     -904353.616 5  -1866756.96849  24748631.2994
  21036279.768   -12639479.401 8  -9765562.72849  21036281.1394
  24179030.853    16762076.266 5  13063122.18149  24179035.5294
  22210014.111    -9839350.243 7  -7581505.28749  22210016.0804
  23748800.947    15750498.709 6  12273879.26449  23748802.3184
  22540221.471   -10754369.827 7  -8707896.49349  22540222.2324
 95  2  7 17 42 30.0020000  0  6 18 14 15 22 25 29
  24738844.830     -955769.297 5  -1906821.10949  24738847.2324
  21036971.541   -12635844.326 8  -9762730.20849  21036972.8544
  24202592.768    16885891.853 5  13159601.78749  24202596.6004
  22207901.947    -9850448.898 7  -7590153.57549  22207903.7874
  23770345.330    15863713.832 6  12362098.80049  23770346.6194
  22536284.846   -10775056.814 7  -8724016.20749  22536285.5614
 95  2  7 17 43  0.0020000  0  6 18 14 15 22 25 29
  24729074.744    -1007111.172 5  -1946827.70949  24729076.4904
  21037769.197   -12631652.390 8  -9759463.77249  21037770.5454
  24226180.689    17009846.145 5  13256189.46849  24226185.3074
  22205902.377    -9860956.505 7  -7598341.30649  22205904.2174
  23791916.861    15977073.716 6  12450431.12549  23791918.0924
  22532380.986   -10795572.935 7  -8740002.78949  22532381.7014
 95  2  7 17 43 30.0020000  0  6 18 14 15 22 25 29
  24719319.330    -1058371.311 5  -1986770.65149  24719322.1544
  21038673.314   -12626901.269 8  -9755761.61149  21038674.6624
  24249794.861    17133942.890 5  13352888.16749  24249797.9674
  22204019.096    -9870853.722 7  -7606053.40749  22204020.8304
  23813518.822    16090590.821 6  12538885.96649  23813520.1464
  22528511.674   -10815906.891 7  -8755847.42249  22528512.2364
 95  2  7 17 44  0.0020000  0  6 18 14 15 22 25 29
  24709576.838    -1109568.789 5  -2026664.76049  24709580.1074
  21039685.252   -12621584.614 8  -9751618.77049  21039686.7404
  24273434.213    17258164.774 6  13449684.37649  24273437.2254
  22202250.221    -9880149.111 7  -7613296.55549  22202251.9204
  23835149.604    16204261.035 6  12627460.11649  23835150.9284
  22524672.166   -10836081.019 7  -8771567.51249  22524672.7524
 95  2  7 17 44 30.0020000  0  6 18 14 15 22 25 29
  24699842.471    -1160724.073 5  -2066526.01449  24699845.6934
  21040805.369   -12615697.707 8  -9747031.57949  21040806.9284
  24297095.322    17382505.277 6  13546573.02249  24297098.4984
  22200594.416    -9888848.375 7  -7620075.18949  22200596.4674
  23856810.713    16318092.621 6  12716160.00349  23856811.8734
  22520859.291   -10856119.863 7  -8787182.18549  22520859.8544
 95  2  7 17 45  0.0020000  0  6 18 14 15 22 25 29
  24690110.932    -1211866.314 5  -2106377.07349  24690114.2014
  21042029.807   -12609263.174 8  -9742017.66649  21042031.4244
  24320776.158    17506948.417 5  13643541.64749  24320779.7564
  22199048.502    -9896972.255 7  -7626405.47649  22199050.6114
  23878499.908    16432068.152 6  12804972.06149  23878500.8814
  22517067.674   -10876043.813 7  -8802707.33449  22517068.2834
 95  2  7 17 45 30.0020000  0  6 18 14 15 22 25 29
  24680383.846    -1262986.706 5  -2146211.11249  24680385.7564
  21043363.986   -12602254.244 8  -9736556.17149  21043365.6274
  24344480.604    17631516.562 5  13740607.65849  24344483.4514
  22197616.002    -9904500.836 7  -7632271.89049  22197617.9124
  23900220.213    16546211.015 6  12893914.50149  23900221.0804
  22513301.119   -10895835.961 7  -8818129.77549  22513301.7994
 95  2  7 17 46  0.0020000  0  6 18 14 15 22 25 29
  24670653.127    -1314116.818 5  -2186052.75849  24670655.2254
  21044803.455   -12594688.315 8  -9730660.65249  21044804.9324
  24368202.596    17756176.976 5  13837745.57649  24368206.2174
  22196288.955    -9911475.151 7  -7637706.41249  22196290.6074
  23921964.541    16660475.816 6  12982951.95849  23921965.5024
  22509554.822   -10915522.549 7  -8833469.96249  22509555.6664
 95  2  7 17 46 30.0020000  0  6 18 14 15 22 25 29
  24660929.041    -1365220.064 5  -2225873.42549  24660931.0574
  21046349.283   -12586564.399 8  -9724330.32949  21046350.7604
  24391944.947    17880943.762 5  13934966.36149  24391948.3344
  22195069.830    -9917881.593 7  -7642698.43449  22195071.6934
  23943732.885    16774870.766 6  13072090.83449  23943733.9284
  22505832.104   -10935086.691 7  -8848714.74249  22505833.0294
 95  2  7 17 47  0.0020000  0  6 18 14 15 22 25 29
  24651210.947    -1416287.119 5  -2265665.89249  24651213.6544
  21047997.260   -12577906.427 8  -9717583.86549  21047998.7364
  24415704.611    18005799.577 5  14032256.54249  24415708.9364
  22193956.822    -9923731.442 7  -7647256.74849  22193958.6274
  23965522.728    16889375.624 6  13161315.34549  23965523.4324
  22502135.135   -10954514.084 7  -8863852.96449  22502136.1664
 95  2  7 17 47 30.0020000  0  6 18 14 15 22 25 29
  24641505.486    -1467286.670 5  -2305405.80049  24641507.9714
  21049748.674   -12568702.144 8  -9710411.70449  21049750.1394
  24439482.158    18130752.110 5  14129622.06849  24439486.2014
  22192955.291    -9928994.908 7  -7651358.14549  22192956.9794
  23987335.221    17004001.194 6  13250633.92549  23987335.9714
  22498468.064   -10973784.473 7  -8878868.84849  22498468.7564
 95  2  7 17 48  0.0020000  0  6 18 14 15 22 25 29
  24631819.135    -1518189.171 5  -2345070.06049  24631821.7604
  21051600.557   -12558968.583 8  -9702827.11849  21051602.1154
  24463278.143    18255800.311 5  14227062.15749  24463281.9634
  22192066.674    -9933664.244 7  -7654996.58149  22192068.5254
  24009172.463    17118754.209 6  13340051.79649  24009173.4714
  22494830.518   -10992898.875 7  -8893763.18349  22494831.2914
 95  2  7 17 48 30.0020000  0  6 18 14 15 22 25 29
  24622153.197    -1568990.680 5  -2384655.62349  24622156.0684
  21053551.775   -12548716.135 8  -9694838.20349  21053553.5104
  24487091.518    18380939.594 5  14324573.18949  24487095.2324
  22191293.260    -9937724.855 7  -7658160.68749  22191295.4394
  24031036.229    17233650.590 6  13429581.39749  24031037.4004
  22491224.502   -11011848.662 7  -8908529.24349  22491225.0884
 95  2  7 17 49  0.0020000  0  6 18 14 15 22 25 29
  24612503.189       -8446.37415
  21055605.994   -12537921.963 8  -9686427.16949  21055607.7174
  24510922.900    18506172.043 5  14422156.83849  24510927.1894
  22190638.939    -9941165.416 7  -7660841.63549  22190641.2254
  24052929.025    17348697.423 6  13519228.21749  24052930.2914
  22487650.846   -11030626.952 7  -8923161.67449  22487651.7954
 95  2  7 17 49 30.0020000  0  6 18 14 15 22 25 29
  24602867.197      -59080.376 5
  21057762.291   -12526589.794 8  -9677596.91149  21057764.0964
  24534768.861    18631484.636 5  14519802.94149  24534772.0494
  22190102.143    -9943986.719 7  -7663040.04549  22190104.1464
  24074847.197    17463879.812 6  13608980.67649  24074848.6394
  22484101.564   -11049280.114 7  -8937696.60649  22484102.2564
 95  2  7 17 50  0.0020000  0  6 18 14 15 22 25 29
  24593249.025     -109625.653 5    -13123.81059  24593252.5884
  21060028.010   -12514682.158 8  -9668318.23849  21060029.7564
  24558634.432    18756897.706 5  14617527.33849  24558637.4434
  22189686.854    -9946169.167 7  -7664740.64349  22189688.7754
  24096794.135    17579213.586 6  13698851.08949  24096795.6704
  22480577.775   -11067798.005 7  -8952126.13149  22480578.4324
 95  2  7 17 50 30.0020000  0  6 18 14 15 22 25 29
  24583639.986     -160118.763 5    -52469.05049  24583642.9514
  21062403.135   -12502200.927 8  -9658592.61249  21062404.6824
  24582514.213    18882390.028 5  14715313.48449  24582517.4714
  22189389.111    -9947733.873 7  -7665959.88449  22189391.0214
  24118765.072    17694668.319 6  13788815.75649  24118766.7014
  22477076.338   -11086199.080 7  -8966464.63149  22477077.1354
 95  2  7 17 51  0.0020000  0  6 18 14 15 22 25 29
  24574041.354     -210559.539 5    -91773.54849  24574043.9204
  21064887.643   -12489145.289 8  -9648419.39349  21064889.1194
  24606410.744    19007964.044 5  14813163.29249  24606414.5764
  22189206.525    -9948692.358 7  -7666706.74449  22189208.4824
  24140755.393    17810228.672 6  13878862.72849  24140757.0454
  22473595.221   -11104491.951 7  -8980718.81549  22473595.7714
 95  2  7 17 51 30.0020000  0  6 18 14 15 22 25 29
  24564452.361     -260948.665 5   -131037.78249  24564454.3074
  21067481.768   -12475512.724 8  -9637796.62449  21067483.3504
  24630321.947    19133621.099 5  14911077.77549  24630326.3184
  22189139.260    -9949046.179 7  -7666982.44349  22189141.1824
  24162767.838    17925902.332 6  13968997.98449  24162769.5964
  22470136.174   -11122669.753 7  -8994883.33049  22470136.9004
 95  2  7 17 52  0.0020000  0  6 18 14 15 22 25 29
  24554873.580     -311288.134 5   -170263.29549  24554875.8544
  21070185.713   -12461303.052 8  -9626724.15849  21070187.1894
  24654249.799    19259361.983 5  15009057.58449  24654254.5334
  22189185.486    -9948803.637 7  -7666793.44849  22189187.3384
  24184803.236    18041699.401 6  14059229.40549  24184805.0764
  22466706.080   -11140694.619 7  -9008928.68049  22466706.7714
 95  2  7 17 52 30.0020000  0  6 18 14 15 22 25 29
  24545305.260     -361571.420 5   -209445.05549  24545307.3114
  21072999.947   -12446515.183 8  -9615201.14849  21073001.4944
  24678194.041    19385189.178 5  15107104.66149  24678197.9554
  22189345.572    -9947962.279 7  -7666137.83449  22189347.4474
  24206864.018    18157631.641 6  14149566.15649  24206865.5184
  22463308.775   -11158547.851 7  -9022840.28649  22463309.4904
 95  2  7 17 53  0.0020000  0  6 18 14 15 22 25 29
  24535745.744     -411805.252 5   -248588.28749  24535748.2404
  21075926.268   -12431137.682 8  -9603218.69149  21075927.4394
  24702152.213    19511090.911 5  15205209.80749  24702156.6664
  22189620.166    -9946520.900 7  -7665014.67449  22189622.0184
  24228950.744    18273695.486 6  14240005.44949  24228952.8424
  22459942.525   -11176237.225 7  -9036624.21049  22459943.3814
 95  2  7 17 53 30.0030000  0  7 18 14 15 19 22 25 29
  24526198.171     -461979.095 5   -287684.76949  24526200.2924
  21078967.733   -12415154.255 8  -9590764.08249  21078968.9404
  24726125.765    19637070.098 5  15303375.31349  24726130.0074
  25537297.116      -50924.13913
  22190013.186    -9944453.556 7  -7663403.74649  22190015.5654
  24251066.577    18389914.155 6  14330565.39649  24251068.1834
  22456610.569   -11193747.337 7  -9050268.45849  22456611.2724
 95  2  7 17 54  0.0030000  0  7 18 14 15 19 22 25 29
  24516663.522     -512082.915 5   -326726.69149  24516665.1754
  21082122.819   -12398573.515 8  -9577844.03549  21082124.2614
  24750111.054    19763113.059 5  15401590.49849  24750116.0814
  25524686.491     -117194.262 3    -12035.95557  25524691.4374
  22190524.905    -9941763.336 7  -7661307.46449  22190527.5074
  24273208.030    18506268.355 6  14421230.95349  24273209.6474
  22453311.757   -11211083.018 7  -9063776.77949  22453312.2964
 95  2  7 17 54 30.0030000  0  7 18 14 15 19 22 25 29
  24507144.077     -562108.302 5   -365707.47349  24507146.4334
  21085395.460   -12381376.959 8  -9564444.13249  21085397.0074
  24774110.116    19889230.166 5  15499863.44949  24774114.4524
  25512112.147     -183275.239 3    -63527.54847  25512118.5584
  22191160.327    -9938424.316 7  -7658705.62249  22191162.7534
  24295375.843    18622761.916 6  14512005.09549  24295377.4134
  22450044.843   -11228249.785 7  -9077153.47849  22450045.5464
 95  2  7 17 55  0.0030000  0  7 18 14 15 19 22 25 29
  24497641.312     -612046.576 5   -404620.39449  24497643.6554
  21088782.726   -12363576.257 8  -9550573.46949  21088784.2144
  24798123.210    20015418.150 5  15598191.63349  24798127.7574
  25499575.811     -249154.813 3   -114862.18748  25499581.8704
  22191921.811    -9934422.684 7  -7655587.46649  22191924.1204
  24317568.562    18739385.352 6  14602880.42849  24317569.8514
  22446810.304   -11245247.520 7  -9090398.46649  22446811.0074
 95  2  7 17 55 30.0030000  0  7 18 14 15 19 22 25 29
  24488154.640     -661897.571 5   -443465.30349  24488157.1014
  21092277.944   -12345208.602 8  -9536261.02449  21092279.5264
  24822147.093    20141664.187 5  15696565.08649  24822152.0154
  25487078.827     -314824.104 4   -166032.97949  25487082.3544
  22192805.124    -9929782.400 7  -7651971.65449  22192806.9644
  24339783.608    18856127.604 6  14693848.36949  24339784.5584
  22443606.726   -11262081.856 7  -9103516.12549  22443607.5464
 95  2  7 17 56  0.0030000  0  7 18 14 15 19 22 25 29
  24478687.265     -711649.929 5   -482233.34549  24478690.2414
  21095883.749   -12326261.462 8  -9521497.03349  21095885.2374
  24846184.085    20267979.984 5  15794992.90649  24846187.7064
  25474625.960     -380266.419 4   -217026.87648  25474631.8314
  22193809.851    -9924501.905 7  -7647856.97849  22193811.7024
  24362021.429    18972986.294 6  14784907.03049  24362022.5304
  22440433.194   -11278758.519 7  -9116510.92249  22440434.0154
 95  2  7 17 56 30.0030000  0  7 18 14 15 19 22 25 29
  24469235.616     -761317.161 5   -520935.04749  24469237.2804
  21099597.726   -12306743.931 8  -9506288.57649  21099599.2264
  24870230.569    20394343.841 5  15893458.14849  24870235.5034
  25462210.257     -445511.056 5   -267866.76249  25462214.3124
  22194935.101    -9918588.551 7  -7643249.16249  22194937.1284
  24384276.991    19089940.930 6  14876040.45149  24384278.6794
  22437285.811   -11295301.112 7  -9129401.25149  22437286.4334
 95  2  7 17 57  0.0030000  0  7 18 14 15 19 22 25 29
  24459802.593     -810888.873 5   -559562.33249  24459804.2334
  21103422.186   -12286645.710 8  -9490627.63949  21103423.7104
  24894286.280    20520756.409 5  15991961.34049  24894291.8004
  25449830.874     -510560.752 5   -318554.76347  25449836.1944
  22196177.819    -9912055.672 7  -7638158.60549  22196179.8704
  24406552.069    19206994.791 6  14967251.20049  24406553.4874
  22434162.858   -11311711.805 7  -9142188.79849  22434163.2454
 95  2  7 17 57 30.0030000  0  7 18 14 15 19 22 25 29
  24450379.491     -860407.344 5   -598148.12049  24450381.3314
  21107356.257   -12265972.562 8  -9474518.70549  21107357.9684
  24918345.093    20647186.274 5  16090478.03149  24918348.8544
  25437482.265     -575451.527 5   -369118.96149  25437487.0344
  22197532.069    -9904940.663 7  -7632614.44049  22197534.1674
  24428841.522    19324126.024 6  15058522.23349  24428843.8084
  22431059.179   -11328021.276 7  -9154897.47549  22431059.7184
 95  2  7 17 58  0.0030000  0  7 18 14 15 19 22 25 29
  24440964.335     -909884.624 5   -636701.82749  24440966.1874
  21111403.554   -12244702.900 8  -9457944.95749  21111405.2764
  24942405.929    20773629.437 5  16189005.06849  24942410.0654
  25425165.233     -640179.152 5   -419556.03049  25425169.3944
  22199000.202    -9897225.701 7  -7626602.77849  22199002.2884
  24451142.874    19441325.042 6  15149846.08749  24451145.1014
  22427975.937   -11344224.467 7  -9167523.33249  22427976.4764
 95  2  7 17 58 30.0030000  0  7 18 14 15 19 22 25 29
  24431557.413     -959321.481 5   -675224.02049  24431558.6674
  21115564.272   -12222838.490 8  -9440907.76249  21115565.7964
  24966469.772    20900081.272 5  16287538.85249  24966474.0034
  25412880.194     -704739.845 5   -469863.04347  25412883.8154
  22200583.976    -9888904.216 7  -7620118.50249  22200585.8514
  24473458.874    19558594.031 6  15241224.45549  24473461.0424
  22424918.632   -11360290.281 7  -9180042.15249  22424919.3004
 95  2  7 17 59  0.0030000  0  7 18 14 15 19 22 25 29
  24422157.812    -1008712.771 5   -713710.72049  24422160.6834
  21119838.585   -12200376.869 8  -9423405.20849  21119840.3084
  24990536.093    21026550.672 5  16386086.27149  24990540.2884
  25400631.460     -769106.871 4   -520019.13648  25400635.1514
  22202284.788    -9879965.788 7  -7613153.48649  22202286.7924
  24495790.554    19675949.862 6  15332670.51449  24495792.8394
  22421894.421   -11376181.877 7  -9192425.20349  22421895.1364
 95  2  7 17 59 30.0030000  0  7 18 14 15 19 22 25 29
  24412765.327    -1058070.927 5   -752171.56749  24412767.7884
  21124222.124   -12177341.601 8  -9405455.65849  21124223.7534
  25014602.163    21153025.247 4  16484637.82149  25014606.4524
  25388417.733     -833286.384 3   -570029.11846  25388419.9364
  22204103.101    -9870409.878 7  -7605707.31849  22204105.3744
  24518136.663    19793375.570 6  15424170.98649  24518138.9484
  22418903.171   -11391901.983 7  -9204674.63249  22418904.0974
 95  2  7 18  0  0.0030000  0  7 18 14 15 19 22 25 29
  24403379.647    -1107386.113 5   -790598.95449  24403381.9564
  21128712.944   -12153742.912 8  -9387067.08049  21128714.6084
  25038672.312    21279508.360 4  16583195.93849  25038676.0034
  25376242.022     -897270.656 3   -619886.95847  25376246.4874
  22206040.640    -9860227.372 7  -7597772.89349  22206042.8544
  24540493.694    19910865.138 6  15515721.23149  24540496.1554
  22415944.155   -11407448.806 7  -9216789.03149  22415945.2574
 95  2  7 18  0 30.0030000  0  7 18 14 15 19 22 25 29
  24394003.257    -1156662.880 5   -828996.41249  24394005.9524
  21133304.601   -12129611.973 8  -9368263.76249  21133306.3474
  25062740.702    21405988.852 4  16681752.06047  25062747.0654
  25364099.749     -961077.951 3   -669606.90546  25364105.2694
  22208095.304    -9849430.405 7  -7589359.65849  22208097.5194
  24562862.101    20028411.626 6  15607315.84749  24562864.5154
  22413015.515   -11422839.434 7  -9228781.71949  22413016.6754
 95  2  7 18  1  0.0030000  0  7 18 14 15 19 22 25 29
  24384630.046    -1205922.342 5   -867380.40349  24384632.3194
  21137994.397   -12104967.436 8  -9349060.23949  21137996.1904
  25086805.601    21532449.899 4  16780292.96148  25086811.2844
  25351986.530    -1024732.694 3   -719207.96547  25351989.9294
  22210264.319    -9838033.603 7  -7580479.02749  22210266.0774
  24585239.655    20146005.512 6  15698947.37149  24585242.0344
  22410108.874   -11438115.119 7  -9240684.84249  22410109.8354
 95  2  7 18  1 30.0030000  0  7 18 14 15 19 22 25 29
  24375262.468    -1255149.934 5   -905739.53449  24375265.4334
  21142785.468   -12079790.405 8  -9329441.78849  21142787.1084
  25110867.624    21658896.836 4  16878822.93348  25110871.3154
  25339904.983    -1088225.668 4   -768682.93049  25339909.1444
  22212547.796    -9826033.073 7  -7571127.96249  22212549.7294
  24607627.726    20263654.860 6  15790622.11849  24607629.1904
  22407221.405   -11453286.696 7  -9252506.84349  22407222.2964
 95  2  7 18  2  0.0030000  0  7 18 14 15 19 22 25 29
  24365906.476    -1304315.464 5   -944050.30749  24365908.8434
  21147682.608   -12054054.830 8  -9309388.10349  21147684.2964
  25134929.413    21785344.249 3  16977353.25348  25134934.9214
  25327856.858      -48522.62314
  22214949.272    -9813412.249 7  -7561293.54549  22214951.3824
  24630031.593    20381386.800 6  15882361.23149  24630033.7844
  22404358.007   -11468335.238 7  -9264232.97149  22404359.0034
 95  2  7 18  2 30.0030000  0  7 18 14 15 19 22 25 29
  24356560.265    -1353428.657 5   -982320.31149  24356563.1124
  21152685.311   -12027765.835 8  -9288903.18349  21152687.0584
  25158988.374    21911774.560 4  17075870.23048  25158991.7614
  25315842.015     -111664.268 4    -16383.14559  25315846.3624
  22217463.765    -9800200.065 7  -7550998.33249  22217465.7574
  24652450.335    20499195.886 6  15974160.44249  24652452.4564
  22401515.851   -11483272.585 7  -9275872.45349  22401516.6944
 95  2  7 18  3  0.0030000  0  7 18 14 15 19 22 25 29
  24347223.468    -1402495.321 5  -1020554.05749  24347225.4724
  21157797.468   -12000903.990 8  -9267971.89049  21157798.9444
  25183043.108    22038176.346 4  17174364.98447  25183048.3124
  25303858.757     -174634.662 5    -65450.93049  25303861.2884
  22220087.163    -9786412.534 7  -7540254.79849  22220089.0504
  24674883.444    20617081.846 6  16066019.55849  24674885.7414
  22398692.046   -11498109.794 7  -9287433.90549  22398692.8434
 95  2  7 18  3 30.0030000  0  7 18 14 15 19 22 25 29
  24337899.765    -1451490.470 5  -1058732.08749  24337902.0264
  21163023.624   -11973438.378 8  -9246570.13149  21163025.0774
  25207093.140    22164564.269 4  17272848.97348  25207097.2764
  25291915.077     -237401.185 5   -114359.88549  25291918.3354
  22222823.257    -9772032.388 7  -7529049.48249  22222825.6124
  24697332.038    20735051.115 6  16157943.60149  24697333.4684
  22395891.905   -11512824.455 7  -9298899.86949  22395892.5854
 95  2  7 18  4  0.0030000  0  7 18 14 15 19 22 25 29
  24328587.788    -1500429.857 5  -1096866.65049  24328589.2294
  21168361.265   -11945389.623 8  -9224713.96949  21168362.8234
  25231140.187    22290929.266 5  17371315.06448  25231142.0854
  25280006.671     -299976.747 5   -163120.04249  25280011.3124
  22225674.022    -9757053.140 7  -7517377.33749  22225676.2264
  24719794.101    20853089.079 6  16249921.14749  24719795.6834
  22393115.077   -11527416.874 7  -9310270.57849  22393115.8744
 95  2  7 18  4 30.0030000  0  7 18 14 15 19 22 25 29
  24319283.429    -1549322.421 5  -1134964.74349  24319285.4914
  21173811.515   -11916748.552 8  -9202396.26649  21173813.1444
  25255184.624    22417282.131 5  17469771.70249  25255189.4644
  25268137.601     -362349.332 5   -211722.05949  25268142.1944
  22228644.319    -9741445.971 7  -7505215.90149  22228646.4174
  24742271.022    20971205.294 6  16341959.68149  24742272.0654
  22390363.686   -11541876.101 7  -9321537.50149  22390364.4604
 95  2  7 18  5  0.0030000  0  7 18 14 15 19 22 25 29
  24309987.249    -1598172.366 5  -1173029.60649  24309988.1284
  21179372.296   -11887526.861 8  -9179626.13449  21179373.9014
  25279223.132    22543606.995 5  17568206.52449  25279228.4644
  25256303.101     -424540.792 5   -260182.92049  25256308.4094
  22231735.077    -9725203.373 7  -7492559.33549  22231737.1284
  24764760.343    21089388.359 6  16434050.31049  24764762.4764
  22387636.226   -11556208.383 7  -9332705.50749  22387637.1284
 95  2  7 18  5 30.0030000  0  7 18 14 15 19 22 25 29
  24300702.733    -1646964.427 5  -1211049.37949  24300704.4794
  21185042.374   -11857728.848 8  -9156406.92249  21185044.1204
  25303260.022    22669916.555 5  17666629.43149  25303264.2294
  25244503.640     -486545.621 5   -308498.33449  25244507.9054
  22234950.335    -9708307.162 7  -7479393.45549  22234952.1754
  24787264.272    21207646.653 6  16526199.55549  24787265.7494
  22384937.921   -11570387.371 7  -9343754.06249  22384938.7764
 95  2  7 18  6  0.0030000  0  7 18 14 15 19 22 25 29
  24291425.913    -1695711.881 5  -1249034.39949  24291428.3044
  21190820.960   -11827362.797 8  -9132745.08349  21190822.6594
  25327290.710    22796201.652 5  17765033.22149  25327294.7294
  25232736.405     -548382.296 5   -356682.74849  25232740.9994
  22238287.757    -9690768.805 7  -7465727.20749  22238289.3744
  24809781.476    21325975.106 6  16618403.46949  24809782.9874
  22382269.257   -11584412.180 7  -9354682.48049  22382270.0894
 95  2  7 18  6 30.0030000  0  7 18 14 15 19 22 25 29
  24282160.390    -1744404.993 5  -1286977.04949  24282161.8084
  21196713.069   -11796400.032 8  -9108618.27649  21196714.6044
  25351317.507    22922459.744 5  17863416.00249  25351321.4564
  25220999.733     -610056.703 5   -404740.68549  25221004.3274
  22241745.304    -9672598.624 7  -7451568.62849  22241747.1444
  24832312.218    21444373.471 6  16710661.87049  24832312.9684
  22379628.569   -11598288.289 7  -9365495.02649  22379629.4604
 95  2  7 18  7  0.0030000  0  7 18 14 15 19 22 25 29
  24272905.968    -1793036.369 5  -1324871.62749  24272908.2294
  21202717.913   -11764843.518 8  -9084028.80549  21202719.6364
  25375336.343    23048679.411 5  17961768.86549  25375339.6474
  25209295.944     -671559.459 5   -452664.85749  25209300.1164
  22245319.468    -9653814.168 7  -7436931.39649  22245321.6364
  24854851.569    21562819.422 6  16802957.34049  24854853.2694
  22377015.780   -11612017.711 7  -9376193.27249  22377016.7654
 95  2  7 18  7 30.0030000  0  7 18 14 15 19 22 25 29
  24263656.304    -1841643.721 5  -1362747.45949  24263658.8944
  21208831.569   -11732717.289 8  -9058995.40349  21208833.2574
  25399343.202    23174839.549 5  18060075.30549  25399347.3154
  25197626.804     -732885.397 5   -500451.26049  25197630.6834
  22249009.608    -9634424.322 7  -7421822.42349  22249011.4724
  24877392.249    21681268.674 6  16895255.38349  24877392.9404
  22374426.601   -11625624.085 7  -9386795.63949  22374427.5034
 95  2  7 18  8  0.0030000  0  7 18 14 15 19 22 25 29
  24254411.663    -1890222.581 5  -1400601.09649  24254413.8314
  21215053.702   -11700018.238 8  -9033515.64649  21215055.3194
  25423338.827    23300933.921 5  18158330.49749  25423344.6984
  25185990.718     -794030.940 5   -548097.09149  25185994.6904
  22252815.616    -9614424.257 7  -7406237.96449  22252817.6084
  24899930.960    21799713.416 6  16987549.91949  24899932.3904
  22371861.319   -11639106.065 7  -9397301.07649  22371862.1634
 95  2  7 18  8 30.0030000  0  7 18 14 15 19 22 25 29
  24245175.022    -1938760.591 5  -1438422.90849  24245177.2024
  21221383.085   -11666758.920 8  -9007599.31649  21221384.7264
  25447320.163    23426957.385 4  18256530.45049  25447325.6014
  25174393.390     -854975.164 4   -595586.06249  25174397.5734
  22256738.101    -9593811.481 7  -7390176.06749  22256740.0584
  24922470.647    21918161.466 5  17079847.03349  24922472.6164
  22369320.358   -11652456.689 7  -9407704.16249  22369321.2374
 95  2  7 18  9  0.0030000  0  8 18 14 15 19  4 22 25 29
  24235946.022    -1987258.122 5  -1476213.17249  24235948.0384
  21227813.616   -11632967.467 8  -8981268.34349  21227815.0344
  25471286.374    23552901.774 3  18354668.78548  25471292.0584
  25162835.249     -915707.901 3   -642910.20248  25162840.3114
  25846108.319        -276.81213
  22260775.999    -9572591.414 7  -7373640.96249  22260778.0854
  24945010.726    22036609.307 5  17172143.97549  24945012.2264
  22366807.187   -11665665.398 7  -9417996.66349  22366807.9724
 95  2  7 18  9 30.0030000  0  8 18 14 15 19  4 22 25 29
  24226725.202    -2035716.731 5  -1513973.09749  24226727.3824
  21234344.421   -11598646.585 8  -8954524.81849  21234345.8974
  25495236.890    23678760.374 3  18452740.24648  25495242.6204
  25151314.616     -976250.984 3   -690086.54948  25151320.2764
  25845846.819       -1651.765 3
  22264926.929    -9550778.731 7  -7356644.07049  22264928.8864
  24967551.499    22155061.766 5  17264444.52649  24967553.9254
  22364319.147   -11678738.567 7  -9428183.55049  22364319.8514
 95  2  7 18 10  0.0030000  0  8 18 14 15 19  4 22 25 29
  24217512.140    -2084129.779 5  -1551697.53249  24217514.0734
  21240976.101   -11563795.447 8  -8927368.10449  21240977.7414
  25519168.304    23804526.535 3  18550739.66247  25519173.5074
  25139826.468    -1036623.214 3   -737129.83349  25139831.8004
  25845676.062       -2548.808 3      -400.28757  25845679.1204
  22269184.960    -9528401.792 7  -7339207.49749  22269186.9294
  24990096.819    22273540.782 5  17356765.77049  24990098.9874
  22361855.874   -11691684.151 7  -9438271.01749  22361856.4834
 95  2  7 18 10 30.0030000  0  8 18 14 15 19  4 22 25 29
  24208302.397    -2132530.008 5  -1589411.97849  24208303.6754
  21247706.054   -11528429.020 8  -8899809.87649  21247707.8354
  25543081.483    23930179.327 3  18648650.75448  25543086.1834
  25128366.663    -1096846.316 4   -784056.82649  25128371.4794
  25845592.163       -2993.410 3      -746.73847  25845596.4054
  22273547.030    -9505479.036 7  -7321345.61149  22273549.0114
  25012643.327    22392022.591 5  17449089.18049  25012645.7534
  22359409.546   -11704539.845 7  -9448288.43949  22359410.2144
 95  2  7 18 11  0.0030000  0  8 18 14 15 19  4 22 25 29
  24199095.280    -2180914.090 5  -1627113.82149  24199097.2614
  21254539.788   -11492518.987 8  -8871828.05649  21254541.5114
  25566974.405    24055739.471 3  18746489.64747  25566980.3234
  25116935.546    -1156918.559 4   -830866.35549  25116939.8234
  25845596.624       -2962.736 3      -722.84748  25845599.1904
  22278018.819    -9481979.544 7  -7303034.31949  22278020.7294
  25035190.655    22510508.143 5  17541415.51049  25035192.5074
  22356980.491   -11717304.727 7  -9458235.10249  22356980.9604
 95  2  7 18 11 30.0030000  0  8 18 14 15 19  4 22 25 29
  24189884.140    -2229317.224 5  -1664830.54049  24189885.9214
  21261472.921   -11456085.442 8  -8843438.30249  21261474.4564
  25590845.007    24181181.381 3  18844236.41347  25590851.0074
  25105526.069    -1216874.642 5   -877585.33147  25105528.4254
  25845688.765       -2487.025 3      -352.21047  25845690.1714
  22282596.866    -9457922.890 7  -7284288.87649  22282598.8354
  25057733.999    22628972.644 5  17633725.43349  25057736.3314
  22354561.929   -11730015.275 7  -9468139.42649  22354562.3864
 95  2  7 18 12  0.0030000  0  8 18 14 15 19  4 22 25 29
  24180671.843    -2277727.052 5  -1702552.46249  24180673.9764
  21268507.952   -11419117.828 8  -8814632.38949  21268509.7104
  25614695.304    24306516.105 3  18941899.66647  25614700.3434
  25094141.522    -1276703.977 5   -924205.56249  25094145.9294
  25845865.694       -1552.792 3       375.78947  25845867.3004
  22287284.921    -9433286.049 7  -7265091.34049  22287286.8784
  25080274.265    22747423.705 5  17726024.87749  25080276.9254
  22352157.030   -11742654.492 7  -9477988.16949  22352157.3354
 95  2  7 18 12 30.0030000  0  8 18 14 15 19  4 22 25 29
  24171459.671    -2326139.142 6  -1740276.14849  24171461.2764
  21275643.421   -11381618.965 8  -8785412.51949  21275645.1904
  25638524.038    24431735.405 3  19039472.95848  25638528.7614
  25082780.647    -1336402.179 5   -970723.59349  25082785.4174
  25846134.101        -141.414 3      1475.52146  25846136.6444
  22292085.749    -9408058.186 7  -7245433.26449  22292087.7184
  25102808.983    22865843.129 5  17818299.65949  25102812.3004
  22349768.296   -11755206.243 7  -9487768.75449  22349768.9764
 95  2  7 18 13  0.0030000  0  8 18 14 15 19  4 22 25 29
  24162253.647    -2374516.894 6  -1777973.07449  24162255.4174
  21282883.608   -11343571.044 8  -8755764.80949  21282885.4014
  25662334.374    24556858.534 4  19136971.29647  25662339.3904
  25071451.538    -1395940.694 5  -1017117.18549  25071455.6044
  25846499.421        1777.499 3      2970.76148  25846502.1284
  22297003.483    -9382215.527 7  -7225296.12849  22297005.0194
  25125344.272    22984261.708 5  17910573.78749  25125346.1014
  22347404.601   -11767627.130 7  -9497447.37149  22347405.3394
 95  2  7 18 13 30.0030000  0  8 18 14 15 19  4 22 25 29
  24153055.233    -2422853.744 6  -1815638.12549  24153057.5194
  21290226.476   -11304983.084 8  -8725696.29049  21290228.0814
  25686122.913    24681867.734 4  19234380.94346  25686128.8084
  25060151.382    -1455319.507 5  -1063386.34749  25060155.7184
  25846958.296        4189.235 3      4849.99547  25846961.4254
  22302032.569    -9355786.234 7  -7204701.87049  22302034.5504
  25147878.077    23102682.322 5  18002849.52349  25147880.5384
  22345068.132   -11779905.541 7  -9507014.95749  22345068.9524
 95  2  7 18 14  0.0030000  0  8 18 14 15 19  4 22 25 29
  24143864.358    -2471153.357 6  -1853274.16449  24143866.3044
  21297672.796   -11265854.723 8  -8695206.67749  21297674.4724
  25709886.257    24806745.429 3  19331688.05746  25709891.1324
  25048883.593    -1514533.417 5  -1109527.01249  25048887.8584
  25847506.811        7072.000 3      7096.27047  25847510.5034
  22307171.913    -9328779.318 7  -7183657.52349  22307174.0694
  25170411.124    23221091.825 5  18095116.57349  25170413.6554
  22342756.866   -11792050.597 7  -9516478.63349  22342757.6984
 95  2  7 18 14 30.0030000  0  8 18 14 15 19  4 22 25 29
  24134684.741    -2519391.542 6  -1890862.33849  24134686.8744
  21305226.960   -11226156.559 8  -8664273.06549  21305228.6714
  25733629.921    24931516.659 4  19428912.20948  25733635.8514
  25037656.312    -1573535.217 5  -1155502.38349  25037659.9684
  25848145.819       10429.026 3      9712.09647  25848150.5544
  22312428.202    -9301158.946 7  -7162135.15149  22312430.1474
  25192949.202    23339527.446 5  18187403.98349  25192951.0774
  22340473.772   -11804048.321 7  -9525827.50549  22340474.4524
 95  2  7 18 15  0.0030000  0  8 18 14 15 19  4 22 25 29
  24125516.007    -2567575.988 6  -1928408.64949  24125518.2454
  21312890.296   -11185885.668 8  -8632893.16649  21312891.9604
  25757353.616    25056186.482 4  19526057.37547  25757359.2064
  25026466.960    -1632331.636 5  -1201317.73449  25026470.5584
  25848871.452       14238.640 4     12680.63347  25848874.2534
  22317800.507    -9272926.488 7  -7140135.83349  22317802.4644
  25215493.132    23457999.922 5  18279720.10949  25215495.4764
  22338216.077   -11815913.077 7  -9535072.76849  22338216.6404
 95  2  7 18 15 30.0030000  0  8 18 14 15 19  4 22 25 29
  24116353.171    -2615722.434 5  -1965925.33349  24116355.0114
  21320662.241   -11145044.105 8  -8601068.58849  21320663.6714
  25781055.733    25180747.344 3  19623117.62346  25781060.8314
  25015315.038    -1690934.311 5  -1246982.10749  25015318.7534
  25849681.741       18496.922 4     15998.76247  25849685.0934
  22323286.366    -9244097.098 7  -7117671.37249  22323288.3824
  25238043.382    23576500.697 5  18372058.29149  25238046.3234
  22335981.233   -11827658.285 7  -9544224.88149  22335981.6794
 95  2  7 18 16  0.0030000  0  8 18 14 15 19  4 22 25 29
  24107196.694    -2663843.455 6  -2003422.20149  24107198.0074
  21328542.491   -11103632.936 8  -8568800.16549  21328543.8624
  25804739.960    25305202.487 4  19720095.48646  25804745.7144
  25004197.726    -1749357.359 5  -1292506.53649  25004200.7724
  25850580.890       23220.263 4     19679.28249  25850583.1984
  22328889.405    -9214654.252 7  -7094728.88549  22328891.5624
  25260598.187    23695026.863 5  18464416.25049  25260601.0694
  22333767.397   -11839291.439 7  -9553289.67349  22333767.7964
 95  2  7 18 16 30.0030000  0  8 18 14 15 19  4 22 25 29
  24098042.569    -2711947.376 6  -2040905.74849  24098044.4794
  21336529.585   -11061660.036 8  -8536094.02949  21336531.0974
  25828402.421    25429552.483 4  19816991.39547  25828406.2534
  24993111.530    -1807618.748 5  -1337904.96549  24993115.3044
  25851571.929       28429.228 4     23738.20747  25851573.0194
  22334608.062    -9184602.916 7  -7071312.26649  22334609.9834
  25283157.249    23813575.212 5  18556791.51249  25283159.8154
  22331577.616   -11850799.133 7  -9562256.71549  22331577.8394
 95  2  7 18 17  0.0030000  0  8 18 14 15 19  4 22 25 29
  24088891.108    -2760040.675 6  -2078381.01549  24088893.2184
  21344623.796   -11019124.889 8  -8502949.78149  21344625.4254
  25852044.351    25553790.116 3  19913799.80647  25852048.0074
  24982051.851    -1865733.081 5  -1383188.79749  24982056.1984
  25852658.640       34144.540 4     28191.68047  25852662.1794
  22340438.663    -9153961.282 7  -7047435.66349  22340440.5614
  25305715.647    23932118.711 5  18649162.97049  25305718.2144
  22329416.655   -11862156.025 7  -9571106.24349  22329416.9484
 95  2  7 18 17 30.0030000  0  8 18 14 15 19  4 22 25 29
  24079745.515    -2808098.048 6  -2115828.29749  24079747.6944
  21352829.827   -10976002.614 8  -8469348.03049  21352831.4914
  25875667.710    25677928.710 3  20010530.99245  25875673.3474
  24971027.921    -1923667.678 5  -1428332.59949  24971032.7844
  25853848.390       40392.847 3     33060.46447  25853849.9954
  22346384.733    -9122714.239 7  -7023087.32049  22346386.6904
  25328273.522    24050662.287 5  18741534.49649  25328276.8044
  22327291.460   -11873323.881 7  -9579808.47449  22327291.8474
 95  2  7 18 18  0.0030000  0  8 18 14 15 19  4 22 25 29
  24070605.163    -2856132.246 6  -2153257.51849  24070607.1204
  21361143.429   -10932314.177 8  -8435305.11349  21361145.1164
  25899267.749    25801947.350 4  20107168.70347  25899274.1244
  24960037.429    -1981422.442 5  -1473336.26049  24960040.9914
  25855133.085       47144.630 3     38321.56748  25855137.1634
  22352444.741    -9090869.637 7  -6998273.33749  22352446.6164
  25350827.272    24169183.097 5  18833888.28949  25350830.5304
  22325197.460   -11884326.220 7  -9588381.72549  22325197.9644
 95  2  7 18 18 30.0030000  0  8 18 14 15 19  4 22 25 29
  24061474.093    -2904116.346 6  -2190647.70949  24061476.3544
  21369566.819   -10888048.413 8  -8400812.33049  21369568.4954
  25922845.405    25925848.366 4  20203714.78548  25922849.9524
  24949086.827    -2038968.289 5  -1518177.14349  24949090.1204
  25856510.452       54389.345 3     43966.78547  25856512.6204
  22358618.929    -9058423.503 7  -6972990.63449  22358620.7924
  25373377.374    24287684.324 5  18926226.83349  25373380.0694
  22323135.265   -11895163.074 7  -9596826.03249  22323135.8514
 95  2  7 18 19  0.0030000  0  8 18 14 15 19  4 22 25 29
  24052357.155    -2952026.573 6  -2227980.33249  24052359.2184
  21378101.788   -10843197.120 8  -8365863.29549  21378103.3584
  25946403.015       45375.19413
  24938180.124    -2096284.506 5  -1562839.09149  24938182.7144
  25857982.436       62122.130 4     49992.31047  25857987.2534
  22364911.085    -9025356.838 7  -6947224.39749  22364913.1594
  25395925.304    24406176.349 5  19018558.20149  25395928.1754
  22321103.702   -11905839.344 7  -9605145.20349  22321104.1944
 95  2  7 18 19 30.0030000  0  7 18 14 19  4 22 25 29
  24043252.397    -2999868.180 6  -2265259.47949  24043254.8704
  21386745.538   -10797774.270 8  -8330468.88749  21386747.2844
  24927312.874    -2153387.593 5  -1607334.93149  24927316.0854
  25859543.265       70326.022 3     56384.94147  25859546.7694
  22371322.718    -8991664.856 7  -6920970.90649  22371324.7574
  25418472.999    24524664.995 5  19110886.92849  25418475.7534
  22319093.554   -11916402.337 7  -9613376.10549  22319094.1044
 95  2  7 18 20  0.0030000  0  7 18 14 19  4 22 25 29
  24034165.569    -3047619.981 6  -2302468.65149  24034167.9134
  21395499.788   -10751770.842 8  -8294622.08249  21395501.5344
  24916487.843    -2210274.558 5  -1651662.37649  24916491.8864
  25861198.421       79023.281 4     63161.99848  25861201.2694
  22377857.913    -8957321.360 7  -6894209.74249  22377859.8004
  25441025.874    24643177.739 5  19203234.43049  25441028.9684
  22317104.741   -11926853.936 7  -9621520.21049  22317105.5504
 95  2  7 18 20 30.0030000  0  7 18 14 19  4 22 25 29
  24025096.530    -3095279.131 6  -2339605.63549  24025099.0854
  21404364.718   -10705184.190 8  -8258320.81649  21404366.3704
  24905701.679    -2266960.934 5  -1695833.51049  24905705.3124
  25862952.241       88231.952 4     70337.57547  25862954.5974
  22384515.796    -8922334.525 7  -6866947.26649  22384517.4954
  25463581.413    24761708.681 5  19295596.13849  25463584.1444
  22315139.601   -11937181.545 7  -9629567.69849  22315140.3044
 95  2  7 18 21  0.0030000  0  7 18 14 19  4 22 25 29
  24016043.358    -3142853.153 6  -2376676.28049  24016045.8194
  21413343.632   -10657999.642 8  -8221553.65549  21413345.4954
  24894953.335    -2323440.070 5  -1739843.14049  24894956.5814
  25864805.499       97976.788 3     77930.95447  25864808.9564
  22391296.694    -8886701.198 7  -6839181.03849  22391298.7104
  25486142.952    24880268.262 5  19387980.14849  25486145.2144
  22313201.233   -11947367.996 7  -9637505.19449  22313201.8194
 95  2  7 18 21 30.0030000  0  7 18 14 19  4 22 25 29
  24007005.999    -3190346.745 6  -2413684.24349  24007007.9334
  21422435.491   -10610220.582 8  -8184323.24149  21422437.3194
  24884244.140    -2379718.624 5  -1783696.50849  24884247.6204
  25866761.929      108258.418 4     85942.57948  25866764.3664
  22398196.515    -8850441.117 7  -6810926.43049  22398198.6474
  25508706.827    24998846.415 5  19480378.64449  25508709.0544
  22311289.577   -11957413.049 7  -9645332.51249  22311290.3514
 95  2  7 18 22  0.0030000  0  7 18 14 19  4 22 25 29
  23997987.101    -3237740.516 6  -2450614.43949  23997989.3154
  21431641.780   -10561844.767 8  -8146627.82649  21431643.5264
  24873578.335    -2435765.857 5  -1827369.62349  24873581.8514
  25868825.030      119096.192 4     94387.59248  25868828.6984
  22405215.702    -8813555.571 7  -6782184.44349  22405217.6944
  25531276.280    25117450.739 5  19572797.49849  25531280.2294
  22309414.038   -11967270.003 7  -9653013.25849  22309414.8124
 95  2  7 18 22 30.0040000  0  7 18 14 19  4 22 25 29
  23988983.777    -3285053.513 6  -2487481.68849  23988985.8404
  21440963.293   -10512859.252 8  -8108457.32349  21440964.8164
  24862959.121    -2491571.651 5  -1870854.60649  24862963.0004
  25870991.652      130483.240 4    103260.58949  25870993.2814
  22412352.504    -8776051.000 7  -6752960.10149  22412354.4494
  25553847.590    25236065.955 5  19665224.87249  25553851.0704
  22307575.316   -11976931.881 7  -9660541.99449  22307576.0554
 95  2  7 18 23  0.0040000  0  7 18 14 19  4 22 25 29
  23979993.848    -3332294.583 6  -2524292.88849  23979996.5554
  21450398.582   -10463275.574 8  -8069820.71949  21450400.3164
  24852383.980    -2547143.410 5  -1914157.22749  24852387.4144
  25873258.730      142402.181 4    112548.02147  25873262.2234
  22419608.168    -8737923.184 7  -6723250.11449  22419610.2664
  25576420.394    25354676.798 5  19757648.83049  25576423.5004
  22305771.855   -11986409.680 7  -9667927.28949  22305772.5704
 95  2  7 18 23 30.0040000  0  7 18 14 19  4 22 25 29
  23971019.082    -3379458.520 6  -2561043.98649  23971020.7704
  21459943.863   -10413115.840 8  -8030735.23249  21459945.5394
  24841850.145    -2602496.878 5  -1957289.75849  24841853.1214
  25875625.309      154831.845 4    122233.49749  25875627.6054
  22426983.863    -8699164.429 7  -6693048.48849  22426985.9264
  25598989.434    25473280.260 5  19850067.02449  25598992.8794
  22304004.441   -11995694.731 7  -9675162.39449  22304005.2154
 95  2  7 18 24  0.0040000  0  7 18 14 19  4 22 25 29
  23962051.520    -3426584.378 6  -2597765.42349  23962053.6174
  21469597.191   -10362386.848 8  -7991206.16949  21469598.7274
  24831356.316    -2657644.961 5  -2000262.25749  24831360.0314
  25878082.043      167743.113 4    132294.17347  25878084.5514
  22434477.473    -8659785.152 7  -6662363.34049  22434479.4304
  25621554.410    25591860.495 5  19942467.11249  25621557.9734
  22302272.355   -12004798.363 7  -9682256.13649  22302273.1414
 95  2  7 18 24 30.0040000  0  7 18 14 19  4 22 25 29
  23953092.012    -3473664.878 6  -2634451.50049  23953094.0624
  21479363.152   -10311065.848 8  -7951215.80749  21479364.7934
  24820901.113    -2712583.295 5  -2043071.30449  24820905.0394
  25880630.262      181135.258 4    142729.60147  25880633.3324
  22442093.480    -8619761.777 7  -6631176.29949  22442095.1684
  25644117.949    25710434.029 5  20034861.97949  25644121.4884
  22300574.559   -12013720.684 7  -9689208.59549  22300575.4614
 95  2  7 18 25  0.0040000  0  7 18 14 19  4 22 25 29
  23944144.949    -3520682.124 6  -2671088.29549  23944147.0234
  21489238.551   -10259171.664 8  -7910778.80649  21489240.1334
  24810486.934    -2767315.865 5  -2085720.01349  24810490.6374
  25883268.590      195003.701 3    153536.16348  25883270.9924
  22449832.348    -8579094.881 7  -6599487.81249  22449833.9774
  25666683.676    25829019.242 5  20127265.98049  25666686.7934
  22298912.168   -12022456.881 7  -9696016.02049  22298912.8484
 95  2  7 18 25 30.0040000  0  7 18 14 19  4 22 25 29
  23935213.082    -3567620.571 6  -2707663.68049  23935214.7814
  21499224.543   -10206694.408 8  -7869887.46249  21499226.0554
  24800114.887    -2821815.920 5  -2128187.52949  24800118.8484
  25886001.621      209361.481 4    164724.00948  25886005.3954
  22457691.902    -8537791.119 7  -6567303.07549  22457693.7424
  25689256.113    25947632.324 5  20219691.66649  25689259.8404
  22297286.074   -12031001.581 7  -9702674.22749  22297286.7424
 95  2  7 18 26  0.0040000  0  7 18 14 19  4 22 25 29
  23926296.480    -3614477.985 6  -2744175.93749  23926298.2034
  21509321.551   -10153632.834 8  -7828540.81049  21509323.3094
  24789788.176    -2876081.464 5  -2170472.32149  24789792.4534
  25888830.293      224226.697 4    176307.28047  25888831.3124
  22465671.840    -8495857.856 7  -6534627.81649  22465673.7624
  25711831.832    26066271.034 5  20312137.32649  25711835.1724
  22295692.660   -12039372.918 7  -9709197.34449  22295693.4224
 95  2  7 18 26 30.0040000  0  7 18 14 19  4 22 25 29
  23917399.199    -3661234.026 6  -2780609.19349  23917400.5824
  21519526.809   -10100005.461 8  -7786753.27349  21519528.4734
  24779503.895    -2930131.121 5  -2212588.86749  24779507.9844
  25891756.699      239606.319 4    188291.39248  25891760.7194
  22473770.902    -8453297.074 7  -6501463.58049  22473772.7304
  25734412.191    26184930.438 5  20404599.10249  25734415.7424
  22294132.246   -12047574.726 7  -9715588.36349  22294132.6684
 95  2  7 18 27  0.0040000  0  7 18 14 19  4 22 25 29
  23908522.801    -3707877.239 6  -2816954.52149  23908524.6054
  21529841.621   -10045801.380 8  -7744516.35849  21529843.3444
  24769259.902    -2983963.431 5  -2254536.06849  24769263.1374
  25894784.285      255514.214 4    200687.12048  25894787.8714
  22481988.980    -8410110.049 7  -6467811.36549  22481990.8914
  25756997.699    26303615.363 5  20497080.78349  25757001.1804
  22292605.137   -12055599.786 7  -9721841.65749  22292605.9344
 95  2  7 18 27 30.0040000  0  7 18 14 19  4 22 25 29
  23899669.184    -3754403.783 6  -2853208.96149  23899671.0594
  21540268.199    -9991008.973 8  -7701821.00549  21540270.1564
  24759058.637    -3037569.370 5  -2296306.89549  24759062.2114
  25897914.590      271962.761 4    213504.17148  25897914.6484
  22490326.215    -8366295.446 7  -6433670.12249  22490328.2894
  25779586.645    26422321.333 5  20589578.86549  25779590.4884
  22291112.871   -12063441.528 7  -9727952.10949  22291113.5514
 95  2  7 18 28  0.0040000  0  7 18 14 19  4 22 25 29
  23890835.863    -3800823.486 6  -2889380.14149  23890837.4804
  21550806.598    -9935628.700 8  -7658667.57649  21550808.3674
  24748896.270    -3090971.363 5  -2337918.79049  24748900.2894
  25901144.441      288937.437 4    226731.11947  25901145.9414
  22498781.238    -8321864.940 7  -6399048.96049  22498783.3834
  25802177.285    26541037.312 5  20682084.74149  25802180.7664
  22289656.285   -12071095.745 7  -9733916.43549  22289657.0474
 95  2  7 18 28 30.0040000  0  7 18 14 19  4 22 25 29
  23882022.105    -3847138.909 6  -2925470.06249  23882024.0394
  21561461.066    -9879639.906 8  -7615039.97849  21561462.7544
  24738775.840    -3144155.720 5  -2379361.09249  24738779.7424
  25904474.840                       13458.82814
  22507354.199    -8276814.700 7  -6363944.89249  22507356.2154
  25824771.293    26659769.380 5  20774603.13949  25824774.6094
  22288238.379   -12078548.096 7  -9739723.46649  22288239.2114
 95  2  7 18 29  0.0040000  0  6 18 14 19  4 22 29
  23873225.152    -3893369.325 6  -2961493.73449  23873226.7694
  21572229.246    -9823052.089 8  -7570945.59949  21572230.8984
  24728699.098    -3197109.558 5  -2420623.79249  24728701.9804
  25907903.168       31473.572 4      5193.68358  25907906.1094
  22516043.285    -8231153.980 7  -6328365.12049  22516045.1134
  22286856.535   -12085809.397 7  -9745381.62849  22286857.3794
 95  2  7 18 29 30.0040000  0  6 18 14 19  4 22 29
  23864448.168    -3939492.279 6  -2997433.67549  23864449.6094
  21583114.816    -9765847.489 8  -7526370.61249  21583116.5274
  24718671.598    -3249803.937 5  -2461684.31449  24718673.8244
  25911432.480       50022.965 4     19647.74148  25911434.7074
  22524854.176    -8184851.105 7  -6292284.97049  22524855.9694
  22285515.590   -12092855.774 7  -9750872.31749  22285516.3054
 95  2  7 18 30  0.0040000  0  6 18 14 19  4 22 29
  23855686.340    -3985535.625 6  -3033311.58849  23855688.2624
  21594116.113    -9708036.815 8  -7481323.35749  21594117.7194
  24708690.059    -3302255.947 5  -2502555.97649  24708693.8674
  25915059.973       69085.205 4     34501.40149  25915063.2074
  22533784.902    -8137922.215 7  -6255717.02149  22533786.6604
  22284211.926   -12099706.266 7  -9756210.37049  22284212.7934
 95  2  7 18 30 30.0040000  0  6 18 14 19  4 22 29
  23846938.902    -4031500.112 6  -3069128.05449  23846940.5084
  21605231.379    -9649625.617 8  -7435808.16949  21605232.9494
  24698758.074    -3354448.944 5  -2543225.78049  24698761.9774
  25918784.191       88658.027 4     49752.91348  25918788.6214
  22542837.082    -8090350.320 7  -6218648.02549  22542839.0514
  22282943.980   -12106369.030 7  -9761402.14549  22282944.8484
 95  2  7 18 31  0.0040000  0  6 18 14 19  4 22 29
  23838206.301    -4077390.228 6  -3104886.57749  23838208.1524
  21616456.480    -9590638.555 8  -7389844.24949  21616458.1914
  24688873.129    -3406395.875 5  -2583703.86749  24688876.4224
  25922602.465      108718.759 3     65384.66547  25922606.2384
  22552009.074    -8042152.264 7  -6181091.10449  22552011.2664
  22281708.355   -12112862.544 7  -9766462.02449  22281709.1054
 95  2  7 18 31 30.0040000  0  6 18 14 19  4 22 29
  23829494.215    -4123174.534 6  -3140562.63349  23829496.5124
  21627796.277    -9531046.455 8  -7343408.87849  21627797.9414
  24679036.309    -3458089.707 5  -2623984.75649  24679039.5784
  25926516.598      129292.033 3     81415.73947  25926521.0274
  22561301.871    -7993317.464 7  -6143038.02349  22561304.0624
  22280510.793   -12119157.720 7  -9771367.36849  22280511.5664
 95  2  7 18 32  0.0040000  0  6 18 14 19  4 22 29
  23820799.754    -4168866.068 6  -3176166.41449  23820801.9574
  21639248.285    -9470865.844 8  -7296514.92349  21639250.1374
  24669244.754    -3509541.067 5  -2664076.68449  24669248.1294
  25930529.035      150373.788 4     97843.06848  25930533.0664
  22570712.512    -7943865.012 7  -6104503.65349  22570714.5514
  22279348.301   -12125266.851 7  -9776127.73649  22279349.0394
 95  2  7 18 32 30.0040000  0  6 18 14 19  4 22 29
  23812125.949    -4214449.107 6  -3211685.65349  23812128.0824
  21650811.520    -9410099.672 8  -7249164.68649  21650813.4184
  24659499.301    -3560752.892 5  -2703981.96749  24659502.5944
  25934638.590      171970.937 4    114671.98849  25934641.9654
  22580243.879    -7893776.511 7  -6065473.65449  22580245.8244
  22278220.980   -12131189.145 7  -9780742.51749  22278221.7774
 95  2  7 18 33  0.0040000  0  6 18 14 19  4 22 29
  23803474.434    -4259911.181 6  -3247110.62549  23803476.2974
  21662488.754    -9348735.727 7  -7201348.65549  21662490.5824
  24649800.379    -3611724.772 6  -2743700.25749  24649804.2234
  25938851.574      194111.698 4    131924.53847  25938852.3014
  22589897.574    -7843046.506 7  -6025943.78849  22589899.5784
  22277133.519   -12136904.493 7  -9785196.04649  22277134.2114
 95  2  7 18 33 30.0040000  0  6 18 14 19  4 22 29
  23794840.574    -4305281.044 6  -3282463.76049  23794842.2624
  21674279.285    -9286776.821 8  -7153069.01849  21674281.2544
  24640141.621    -3662481.594 6  -2783250.99149  24640144.7384
  25943167.324      216787.178 4    149593.69447  25943171.5664
  22599673.004    -7791676.201 7  -5985914.97949  22599675.1254
  22276083.699   -12142421.941 7  -9789495.36149  22276084.3554
 95  2  7 18 34  0.0040000  0  6 18 14 19  4 22 29
  23786222.402    -4350570.419 6  -3317754.15249  23786224.5354
  21686182.012    -9224227.930 8  -7104329.65349  21686183.8634
  24630524.332    -3713018.734 5  -2822630.52349  24630527.8594
  25947579.137                       13200.17914
  22609572.582    -7739655.140 7  -5945379.09249  22609574.2814
  22275068.355   -12147755.586 7  -9793651.45549  22275068.9534
 95  2  7 18 34 30.0040000  0  6 18 14 19  4 22 29
  23777620.769    -4395769.956 6  -3352974.55249  23777622.7624
  21698198.941    -9161077.896 8  -7055121.86749  21698200.7234
  24620950.449    -3763331.035 5  -2861834.86849  24620953.5554
  25952088.121                       13485.98913
  22619596.699    -7686977.099 7  -5904331.27049  22619598.2464
  22274091.293   -12152891.811 7  -9797653.70849  22274091.7504
 95  2  7 18 35  0.0040000  0  6 18 14 19  4 22 29
  23769035.457    -4440889.517 6  -3388132.64049  23769037.4614
  21710328.512    -9097336.677 7  -7005453.41449  21710330.3404
  24611417.098    -3813426.680 5  -2900870.39649  24611420.4024
  25956693.168       37683.693 3      3800.04359  25956697.5044
  22629740.223    -7633672.825 7  -5862795.47849  22629741.9804
  22273149.332   -12157841.203 7  -9801510.38949  22273149.8124
 95  2  7 18 35 30.0040000  0  6 18 14 19  4 22 29
  23760465.480    -4485923.112 6  -3423223.72749  23760467.7424
  21722569.754    -9033009.636 7  -6955328.47649  21722571.5124
  24601926.473    -3863299.378 5  -2939732.19149  24601931.1724
  25961390.418       20601.67814     23033.49749  25961393.2074
  22640001.035    -7579751.280 7  -5820778.68849  22640002.6874
  22272242.019   -12162609.906 7  -9805226.26949  22272242.6874
 95  2  7 18 36  0.0040000  0  6 18 14 19  4 22 29
  23751913.059    -4530865.196 6  -3458243.52049  23751915.1564
  21734919.230    -8968112.226 7  -6904759.09049  21734921.1644
  24592480.090    -3912942.872 5  -2978415.40649  24592483.8634
  25966181.488       45781.262 4     42653.92949  25966184.4414
  22650373.512    -7525243.064 7  -5778304.75849  22650375.5984
  22271369.410   -12167194.385 7  -9808798.59049  22271370.1024
 95  2  7 18 36 30.0040000  0  6 18 14 19  4 22 29
  23743379.215    -4575711.477 6  -3493188.66149  23743381.0554
  21747376.316    -8902650.143 8  -6853749.70749  21747378.0744
  24583076.723    -3962356.296 5  -3016919.32849  24583080.5434
  25971071.527       71478.783 4     62677.95247  25971073.6254
  22660853.848    -7470167.618 7  -5735388.83249  22660856.3674
  22270533.574   -12171586.348 7  -9812220.90449  22270534.4304
 95  2  7 18 37  0.0040000  0  6 18 14 19  4 22 29
  23734865.004    -4620451.932 6  -3528051.34449  23734866.7734
  21759943.488    -8836609.431 7  -6802289.44149  21759945.1414
  24573720.902    -4011522.193 5  -3055230.38449  24573724.5124
  25976062.941       97704.269 4     83113.37547  25976066.7384
  22671442.527    -7414525.356 7  -5692031.22849  22671444.8714
  22269735.863   -12175778.749 7  -9815487.71549  22269736.6954
 95  2  7 18 37 30.0040000  0  6 18 14 19  4 22 29
  23726368.215    -4665104.618 6  -3562845.63449  23726370.2664
  21772617.543    -8770007.742 7  -6750392.04549  21772619.4064
  24564408.410    -4060458.495 5  -3093362.53549  24564412.5004
  25981149.363      124439.833 4    103946.26347  25981151.9884
  22682136.848    -7358325.979 7  -5648239.50949  22682139.1334
  22268976.605   -12179769.471 7  -9818597.37349  22268977.4614
 95  2  7 18 38  0.0040000  0  5 18 14 19 22 29
  23717890.551    -4709655.680 6  -3597560.73749  23717892.0864
  21785399.410    -8702836.922 7  -6698051.17249  21785401.4374
  24555139.379    -4109166.230 5  -3131316.57149  24555142.8014
  22692941.691    -7301546.658 7  -5603995.88949  22692943.9304
  22268258.644   -12183542.249 7  -9821537.20949  22268259.4304
 95  2  7 18 38 30.0040000  0  6 18 14 19  4 22 29
  23709433.316    -4754098.053 6  -3632191.15149  23709435.0164
  21798289.613    -8635098.755 7  -6645268.22049  21798291.6414
  24545914.449    -4157645.452 6  -3169092.55849  24545917.9534
  25991617.230       26835.835 3
  22703862.691    -7244154.812 7  -5559274.98049  22703864.9414
  22267580.324   -12187107.625 7  -9824315.42849  22267581.0044
 95  2  7 18 39  0.0040000  0  6 18 14 19  4 22 29
  23700997.387    -4798428.444 6  -3666734.30849  23700999.7074
  21811286.019    -8566801.880 7  -6592049.90449  21811288.0124
  24536730.637    -4205905.909 5  -3206698.09249  24536734.0944
  25996990.371       55065.389 4     11775.75257  25996994.1914
  22714903.707    -7186135.764 7  -5514065.34349  22714905.8054
  22266940.996   -12190467.322 7  -9826933.38149  22266941.5474
 95  2  7 18 39 30.0040000  0  6 18 14 19  4 22 29
  23692585.785    -4842634.441 6  -3701180.52849  23692587.7194
  21824387.324    -8497954.055 7  -6538402.27849  21824389.3404
  24527588.160    -4253951.365 6  -3244136.07249  24527591.5234
  26002452.020                        4817.83313
  22726067.090    -7127471.078 7  -5468352.60749  22726068.9064
  22266342.996   -12193609.310 7  -9829381.68549  22266343.5234
 95  2  7 18 40  0.0040000  0  6 18 14 19  4 22 29
  23684200.777    -4886697.047 6  -3735515.02849  23684202.8054
  21837596.043    -8428542.362 7  -6484315.27649  21837598.0594
  24518492.598    -4301748.644 6  -3281380.68849  24518495.9374
  26008009.512                       34018.081 4
  22737354.824    -7068153.401 7  -5422131.04849  22737356.5944
  22265785.801   -12196537.346 7  -9831663.27849  22265786.3404
 95  2  7 18 40 30.0040000  0  6 18 14 19  4 22 29
  23675842.035    -4930619.957 6  -3769740.66549  23675844.5664
  21850913.152    -8358561.470 7  -6429784.74049  21850915.2974
  24509447.129    -4349282.879 6  -3318420.34549  24509450.5744
  26013659.621       63712.660 3     20839.86857  26013663.7814
  22748762.184    -7008207.109 7  -5375419.66949  22748764.0234
  22265270.777   -12199243.528 7  -9833771.99449  22265271.1294
 95  2  7 18 41  0.0040000  0  6 18 14 19  4 22 29
  23667508.230    -4974413.836 6  -3803865.75549  23667510.5514
  21864338.488    -8288010.209 7  -6374809.76349  21864340.4224
  24500450.551    -4396560.380 6  -3355259.94449  24500453.8554
  26019404.863       93906.773 3     44367.70748  26019407.7344
  22760285.363    -6947654.444 7  -5328235.78549  22760287.1214
  22264800.262   -12201716.928 7  -9835699.32649  22264800.5784
 95  2  7 18 41 30.0040000  0  6 18 14 19  4 22 29
  23659198.340    -5018084.727 6  -3837895.01849  23659200.8124
  21877874.754    -8216878.264 7  -6319382.30149  21877876.5124
  24491504.988    -4443570.809 6  -3391891.43649  24491508.1994
  26025246.895      124608.256 3     68290.94546  26025251.3594
  22771921.598    -6886504.095 7  -5280586.17549  22771923.3674
  22264374.754   -12203953.346 7  -9837441.98849  22264375.2584
 95  2  7 18 42  0.0040000  0  6 18 14 19  4 22 29
  23650911.176    -5061634.086 6  -3871829.57049  23650913.1214
  21891525.098    -8145143.599 7  -6263485.19149  21891526.9964
  24482614.879    -4490291.013 6  -3428296.78349  24482618.1254
  26031189.598      155830.965 3     92620.28247  26031195.4224
  22783672.824    -6824751.098 7  -5232466.96849  22783674.8984
  22263995.777   -12205944.387 7  -9838993.44949  22263996.3874
 95  2  7 18 42 30.0040000  0  6 18 14 19  4 22 29
  23642641.449    -5105090.564 6  -3905691.75049  23642643.5594
  21905288.184    -8072819.649 7  -6207128.90149  21905290.0124
  24473772.965    -4536754.016 6  -3464501.70349  24473775.6134
  26037223.723      187541.167 4    117329.50948  26037226.2074
  22795537.801    -6762400.257 7  -5183881.90949  22795539.9224
  22263661.410   -12207700.762 7  -9840362.05649  22263661.9614
 95  2  7 18 43  0.0040000  0  6 18 14 19  4 22 29
  23634389.754    -5148453.344 6  -3939480.92149  23634391.7234
  21919161.840    -7999912.988 7  -6150318.54649  21919163.6914
  24464978.543    -4582966.441 6  -3500511.36349  24464981.4374
  26043350.074      219737.240 3    142417.36547  26043352.7114
  22807519.902    -6699434.354 7  -5134817.57849  22807522.1764
  22263368.168   -12209242.450 7  -9841563.37249  22263368.6604
 95  2  7 18 43 30.0040000  0  6 18 14 19  4 22 29
  23626158.559    -5191708.304 6  -3973186.07049  23626160.5274
  21933145.582    -7926427.997 7  -6093057.54149  21933147.4104
  24456232.598    -4628926.816 6  -3536324.62149  24456236.0084
  26049570.637      252425.520 3    167888.70547  26049572.8634
  22819616.832    -6635864.479 7  -5085282.62549  22819619.0824
  22263113.262   -12210582.183 7  -9842607.32349  22263113.8364
 95  2  7 18 44  0.0040000  0  6 18 14 19  4 22 29
  23617948.973    -5234850.599 6  -4006803.44049  23617950.9064
  21947236.340    -7852380.286 7  -6035358.06049  21947238.1454
  24447532.473    -4674645.514 6  -3571949.57049  24447535.3794
  26055885.090      285606.799 4    193744.24747  26055889.2624
  22831828.551    -6571691.615 7  -5035277.80749  22831830.4144
  22262894.551   -12211729.079 7  -9843501.01249  22262895.1374
 95  2  7 18 44 30.0040000  0  6 18 14 19  4 22 29
  23609764.488    -5277861.200 6  -4040318.18049  23609766.5984
  21961432.480    -7777777.965 7  -5977226.42049  21961434.5554
  24438877.387    -4720127.001 6  -3607389.65249  24438880.3054
  26062293.348      319280.606 3    219983.50948  26062296.0204
  22844155.480    -6506913.350 7  -4984801.24649  22844157.4494
  22262714.082   -12212679.255 7  -9844241.41349  22262714.7974
 95  2  7 18 45  0.0040000  0  6 18 14 19  4 22 29
  23601606.637    -5320727.850 6  -4073720.76149  23601608.5474
  21975732.363    -7702633.034 7  -5918671.95949  21975734.3914
  24430266.809    -4765378.121 6  -3642650.24249  24430270.4534
  26068794.004      353451.896 3    246610.45448  26068799.0434
  22856592.082    -6441558.099 7  -4933875.08949  22856594.2734
  22262570.566   -12213433.596 7  -9844829.21149  22262571.1994
 95  2  7 18 45 30.0040000  0  6 18 14 19  4 22 29
  23593479.613    -5363438.033 6  -4107001.40849  23593481.7584
  21990139.176    -7626925.276 7  -5859678.94049  21990141.0744
  24421702.879    -4810383.677 6  -3677719.47349  24421706.2544
  26075395.238      388134.166 3    273635.58748  26075396.8914
  22869141.199    -6375612.213 7  -4882488.70449  22869143.4024
  22262472.434   -12213948.622 7  -9845230.53649  22262473.1604
 95  2  7 18 46  0.0040000  0  6 18 14 19  4 22 29
  23585377.246    -5406015.282 6  -4140178.47249  23585379.6844
  22004653.113    -7550654.112 7  -5800246.89749  22004654.9774
  24413183.191    -4855153.344 6  -3712604.89249  24413186.2974
  26082088.223      423305.238 3    301041.59949  26082092.5824
  22881803.863    -6309070.482 7  -4830638.01749  22881805.8324
  22262419.887   -12214225.243 7  -9845446.09049  22262420.6134
 95  2  7 18 46 30.0040000  0  6 18 14 19  4 22 29
  23577299.738    -5448464.112 6  -4173255.47449  23577302.0474
  22019276.129    -7473808.345 7  -5740367.11149  22019278.1684
  24404708.777    -4899689.516 6  -3747308.36049  24404712.2704
  26088874.457      458962.050 4    328826.11848  26088876.6024
  22894576.949    -6241947.140 7  -4778334.13349  22894578.7664
  22262412.832   -12214261.561 7  -9845474.39549  22262413.6054
 95  2  7 18 47  0.0040000  0  6 18 14 19  4 22 29
  23569245.184    -5490792.944 6  -4206238.96549  23569247.4344
  22034011.043    -7396377.629 7  -5680031.52749  22034013.1874
  24396277.824    -4943990.684 6  -3781828.72049  24396281.0474
  26095751.418      495109.043 3    356992.53946  26095755.4494
  22907462.144    -6174235.395 7  -4725571.75649  22907463.9144
  22262450.715   -12214063.621 7  -9845320.16149  22262451.4414
 95  2  7 18 47 30.0040000  0  6 18 14 19  4 22 29
  23561208.926    -5533021.796 6  -4239144.55349  23561210.4844
  22048856.449    -7318363.787 7  -5619241.55549  22048858.5824
  24387892.871    -4988057.430 6  -3816166.41449  24387895.9414
  26102723.395      531745.352 3    385540.29949  26102725.4344
  22920462.863    -6105916.640 7  -4672336.38949  22920464.5984
  22262529.621   -12213648.219 7  -9844996.47949  22262530.4064
 95  2  7 18 48  0.0040000  0  6 18 14 19  4 22 29
  23553195.871    -5575131.756 6  -4271957.49649  23553197.6174
  22063812.668    -7239767.768 7  -5557997.93649  22063814.9064
  24379554.918    -5031871.989 6  -3850307.60349  24379557.8484
  26109791.496      568890.095 3    414484.21247  26109795.0824
  22933581.785    -6036975.444 7  -4618615.99749  22933583.7304
  22262649.137   -12213020.663 7  -9844507.48449  22262649.8054
 95  2  7 18 48 30.0040000  0  6 18 14 19  4 22 29
  23545207.629    -5617107.973 6  -4304666.22149  23545209.3404
  22078876.184    -7160608.537 7  -5496315.45049  22078878.3754
  24371265.418    -5075431.441 6  -3884250.00049  24371268.4774
  26116957.465      606545.928 3    443826.43248  26116960.0084
  22946820.543    -5967405.848 7  -4564405.94949  22946822.4414
  22262810.223   -12212173.966 7  -9843847.72449  22262810.9264
 95  2  7 18 49  0.0040000  0  6 18 14 19  4 22 29
  23537245.590    -5658949.357 6  -4337269.88749  23537247.4534
  22094045.387    -7080896.233 7  -5434202.00249  22094047.6024
  24363026.613    -5118727.920 6  -3917987.48649  24363029.9774
  26124220.832      644711.908 3    473566.07647  26124223.2464
  22960181.074    -5897196.032 7  -4509697.03049  22960182.9734
  22263016.191   -12211093.655 7  -9843005.92649  22263016.8364
 95  2  7 18 49 30.0040000  0  6 18 14 19  4 22 29
  23529310.137    -5700650.765 6  -4369764.48049  23529312.0944
  22109317.394    -7000639.576 7  -5371664.38549  22109319.4574
  24354837.277    -5161760.512 6  -3951519.35249  24354840.4654
  26131578.793      683380.584 3    503697.50047  26131580.1174
  22973658.801    -5826369.044 7  -4454507.19749  22973660.6764
  22263270.629   -12209756.728 7  -9841964.16749  22263271.0164
 95  2  7 18 50  0.0040000  0  6 18 14 19  4 22 29
  23521402.543    -5742206.030 6  -4402145.19849  23521404.2664
  22124690.715    -6919852.446 7  -5308713.41049  22124692.7664
  24346696.426    -5204539.705 6  -3984853.76249  24346699.7304
  26139028.645      722529.718 3    534203.26946  26139030.0164
  22987247.652    -5754961.093 7  -4398864.66049  22987249.6804
  22263575.113   -12208156.024 7  -9840716.87149  22263575.4884
 95  2  7 18 50 30.0040000  0  6 18 14 19  4 22 29
  23513522.871    -5783613.007 6  -4434410.38049  23513524.7234
  22140170.715    -6838504.815 7  -5245325.70149  22140172.8594
  24338605.723    -5247061.366 6  -4017987.51049  24338608.8164
  26146570.301      762164.412 3    565087.43846  26146573.7934
  23000945.082    -5682980.981 7  -4342776.30749  23000947.0514
  22263933.832   -12206271.445 7  -9839248.39449  22263934.1954
 95  2  7 18 51  0.0050000  0  6 18 14 19  4 22 29
  23505667.860    -5824891.025 6  -4466575.05849  23505669.7594
  22155758.165    -6756593.691 7  -5181498.88749  22155760.1694
  24330561.071    -5289336.640 6  -4050929.25749  24330564.3174
  26154205.696      802284.716 4    596349.97147  26154209.7634
  23014746.298    -5610454.871 7  -4286262.49449  23014748.4314
  22264343.032   -12204122.184 7  -9837573.65049  22264343.2434
 95  2  7 18 51 30.0050000  0  6 18 14 19  4 22 29
  23497838.634    -5866032.767 7  -4498633.54649  23497840.3804
  22171451.532    -6674124.859 7  -5117237.49849  22171453.5604
  24322563.376    -5331364.520 6  -4083678.24149  24322566.4934
  26161931.438                        6797.39414
  23028650.188    -5537389.565 7  -4229328.51549  23028652.6024
  22264801.743   -12201710.555 7  -9835694.46449  22264802.0134
 95  2  7 18 52  0.0050000  0  6 18 14 19  4 22 29
  23490031.009    -5907063.137 7  -4530605.25849  23490032.7674
  22187246.962    -6591118.534 7  -5052557.28349  22187249.0714
  24314608.665    -5373167.555 6  -4116252.03349  24314611.5714
  26169745.938                       47862.175 3
  23042658.220    -5463777.789 7  -4171968.71749  23042660.4464
  22265304.634   -12199067.738 7  -9833635.12949  22265304.8924
 95  2  7 18 52 30.0050000  0  6 18 14 19  4 22 29
  23482244.852    -5947979.141 7  -4562487.85149  23482246.6344
  22203145.126    -6507574.511 7  -4987458.08249  22203146.9664
  24306699.438    -5414727.668 6  -4148636.53049  24306702.6734
  26177651.563       89405.989 3      7586.08056  26177654.9504
  23056774.579    -5389595.089 7  -4114164.03949  23056776.6064
  22265851.907   -12196190.767 7  -9831393.33249  22265852.1064
 95  2  7 18 53  0.0050000  0  6 18 14 19  4 22 29
  23474480.759    -5988779.965 7  -4594280.69049  23474482.3064
  22219138.829    -6423527.417 7  -4921966.88149  22219140.7044
  24298835.915    -5456050.370 6  -4180836.03549  24298839.6884
  26185642.907      131404.241 3     40311.95347  26185644.6424
  23070998.517    -5314849.428 7  -4055920.68449  23071000.4974
  22266440.837   -12193096.671 7  -9828982.35349  22266440.9664
 95  2  7 18 53 30.0050000  0  6 18 14 19  4 22 29
  23466742.618    -6029443.674 7  -4625966.69149  23466744.1884
  22235230.134    -6338965.869 7  -4856074.80249  22235232.0444
  24291020.860    -5497118.726 6  -4212837.34649  24291023.9784
  26193720.251      173848.506 3     73385.38948  26193723.5204
  23085331.610    -5239528.005 7  -3997228.68549  23085333.4274
  22267073.563   -12189770.281 7  -9826390.36249  22267073.8684
 95  2  7 18 54  0.0050000  0  6 18 14 19  4 22 29
  23459033.446    -6069954.222 7  -4657533.34449  23459034.9354
  22251421.368    -6253879.530 7  -4789773.79849  22251423.4314
  24283256.907    -5537920.254 6  -4244630.72849  24283260.0954
  26201885.462      216753.290 4    106817.67147  26201889.4934
  23099774.157    -5163631.631 7  -3938088.67349  23099776.2314
  22267749.907   -12186217.770 7  -9823622.17549  22267750.3174
 95  2  7 18 54 30.0050000  0  6 18 14 19  4 22 29
  23451354.368    -6110310.211 7  -4688979.56549  23451356.1614
  22267714.415    -6168261.610 7  -4723058.57549  22267716.5714
  24275542.743    -5578455.979 6  -4276216.99849  24275545.8374
  26210136.720      260110.477 4    140602.44947  26210139.4154
  23114321.524    -5087182.616 7  -3878518.03449  23114323.7164
  22268465.774   -12182454.922 7  -9820690.08949  22268466.2554
 95  2  7 18 55  0.0050000  0  6 18 14 19  4 22 29
  23443710.946    -6150477.356 7  -4720278.62649  23443712.3174
  22284113.548    -6082083.366 7  -4655906.73249  22284115.4234
  24267881.485    -5618719.297 6  -4307591.03249  24267885.3534
  26218475.743      303936.867 3    174752.85449  26218478.6854
  23128976.212    -5010172.865 7  -3818510.45049  23128978.2864
  22269226.329   -12178458.232 7  -9817575.78949  22269226.6814
 95  2  7 18 55 30.0050000  0  6 18 14 19  4 22 29
  23436098.407    -6190480.475 7  -4751449.88549  23436099.5444
  22300616.993    -5995356.025 7  -4588327.02349  22300619.0914
  24260266.907    -5658730.383 6  -4338768.42647  24260271.5134
  26226903.899      348232.121 3    209268.61947  26226908.0244
  23143735.259    -4932613.201 7  -3758074.35949  23143737.3684
  22270029.329   -12174239.820 7  -9814288.71949  22270029.6574
 95  2  7 18 56  0.0050000  0  6 18 14 19  4 22 29
  23428516.720    -6230323.061 7  -4782496.04349  23428518.0674
  22317225.142    -5908080.807 7  -4520320.40149  22317227.4504
  24252699.790    -5698499.158 6  -4369757.09749  24252704.0444
  26235426.126      393013.311 3    244163.00546  26235427.7204
  23158601.892    -4854489.346 7  -3697198.63649  23158604.2124
  22270874.360   -12169799.836 7  -9810828.99349  22270874.6774
 95  2  7 18 56 30.0050000  0  6 18 14 19  4 22 29
  23420963.298    -6270017.567 7  -4813426.81749  23420964.8564
  22333935.126    -5820268.950 7  -4451895.61049  22333937.2824
  24245175.501    -5738041.334 6  -4400569.15349  24245178.6304
  26244035.173      438254.261 3    279415.66946  26244038.5604
  23173573.298    -4775813.127 7  -3635892.49949  23173575.3954
  22271762.563   -12165131.212 7  -9807191.10949  22271762.9154
 95  2  7 18 57  0.0050000  0  6 18 14 19  4 22 29
  23413439.095    -6309555.617 7  -4844235.68549  23413440.8644
  22350746.532    -5731923.786 7  -4383055.26649  22350748.8764
  24237697.235    -5777339.354 6  -4431190.96849  24237700.0834
  26252733.001      483962.214 3    315032.25647  26252734.3134
  23188653.220    -4696568.254 7  -3574143.25849  23188655.2474
  22272700.563   -12160201.530 7  -9803349.80749  22272700.9624
 95  2  7 18 57 30.0050000  0  6 18 14 19  4 22 29
  23405939.610    -6348964.286 7  -4874943.73049  23405941.4384
  22367657.517    -5643056.201 7  -4313807.83349  22367659.6854
  24230266.337    -5816388.184 6  -4461618.58749  24230269.1264
  26261517.821      530123.255 3    351001.81947  26261522.5204
  23203840.946    -4616756.923 7  -3511952.61349  23203843.0564
  22273685.329   -12155026.929 7  -9799317.65149  22273685.7274
 95  2  7 18 58  0.0050000  0  6 18 14 19  4 22 29
  23398468.220    -6388225.761 7  -4905537.08349  23398470.1654
  22384669.071    -5553660.089 7  -4244148.56449  22384671.2864
  24222883.001    -5855186.713 6  -4491851.17449  24222886.2474
  26270386.743      576730.736 3    387319.30747  26270389.8604
  23219134.907    -4536385.257 7  -3449325.34749  23219137.1344
  22274718.587   -12149597.454 7  -9795086.90649  22274718.9154
 95  2  7 18 58 30.0050000  0  6 18 14 19  4 22 29
  23391025.938    -6427336.457 7  -4936012.94549  23391027.7904
  22401780.032    -5463741.372 7  -4174082.07149  22401782.2474
  24215550.134    -5893718.278 6  -4521875.74349  24215553.7314
  26279340.017      623781.808 3    423982.46247  26279344.2824
  23234532.157    -4455472.240 7  -3386276.25049  23234534.5954
  22275803.087   -12143897.125 7  -9790645.09449  22275803.3804
 95  2  7 18 59  0.0050000  0  6 18 14 19  4 22 29
  23383615.095    -6466280.266 7  -4966358.75849  23383616.9354
  22418993.063    -5373286.749 7  -4103597.99149  22418995.3024
  24208272.751    -5931962.606 6  -4551676.48649  24208276.2314
  26288385.595      671316.008 3    461022.04947  26288388.1964
  23250037.188    -4373991.444 7  -3322784.72949  23250039.5794
  22276942.915   -12137907.022 7  -9785977.49549  22276943.2084
 95  2  7 18 59 30.0050000  0  6 18 14 19  4 22 29
  23376233.595    -6505070.648 7  -4996585.02249  23376235.0834
  22436304.282    -5282317.026 7  -4032712.53149  22436306.5324
  24201042.321    -5969959.505 6  -4581284.41749  24201045.6384
  26297521.751      719326.735 3    498432.93747  26297524.3884
  23265646.157    -4291966.182 7  -3258868.94649  23265648.4664
  22278133.681   -12131651.638 7  -9781103.18249  22278134.0444
 95  2  7 19  0  0.0050000  0  6 18 14 19  4 22 29
  23368881.657    -6543706.567 7  -5026690.92049  23368883.4744
  22453710.657    -5190845.670 7  -3961436.17949  22453712.8844
  24193854.587    -6007732.184 6  -4610717.64149  24193857.9034
  26306746.853      767806.032 3    536208.95046  26306747.3684
  23281354.954    -4209417.737 7  -3194545.49149  23281357.2044
  22279376.384   -12125119.399 7  -9776013.13649  22279376.7704
 95  2  7 19  0 30.0050000  0  6 18 14 19  4 22 29
  23361556.595    -6582199.461 7  -5056685.37449  23361558.2704
  22471212.993    -5098869.562 7  -3889766.51349  22471215.3374
  24186710.642    -6045274.091 6  -4639971.04149  24186713.8994
  26316061.298      816748.254 3    574345.72446  26316065.6344
  23297163.571    -4126341.524 7  -3129810.78949  23297165.9384
  22280671.946   -12118312.435 7  -9770709.02049  22280672.2984
 95  2  7 19  1  0.0050000  0  6 18 14 19  4 22 29
  23354262.282    -6620530.775 7  -5086553.91649  23354264.0404
  22488816.876    -5006361.470 7  -3817682.31849  22488818.7984
  24179610.845    -6082582.746 6  -4669042.69249  24179613.7514
  26325461.540      866156.062 3    612845.29345  26325465.1034
  23313077.360    -4042713.868 7  -3064646.39149  23313079.9154
  22282020.860   -12111223.035 7  -9765184.82449  22282021.2944
 95  2  7 19  1 30.0050000  0  6 18 14 19  4 22 29
  23346999.618    -6658697.870 7  -5116294.49949  23347001.3884
  22506524.845    -4913304.730 7  -3745170.60549  22506526.9774
  24172555.134    -6119659.535 6  -4697933.67449  24172558.1344
  26334946.743      915995.474 3    651681.14447  26334949.7204
  23329094.173    -3958546.090 7  -2999061.12449  23329096.7514
  22283423.376   -12103854.054 7  -9759442.77349  22283423.9624
 95  2  7 19  2  0.0050000  0  6 18 14 19  4 22 29
  23339767.048    -6696705.172 7  -5145910.57149  23339768.5484
  22524337.610    -4819700.299 7  -3672232.12149  22524339.5564
  24165545.048    -6156498.049 6  -4726638.99249  24165548.3994
  26344507.446      966236.574 3    690830.01347  26344512.4624
  23345210.345    -3873855.686 7  -2933068.61849  23345212.8294
  22284876.274   -12096217.933 7  -9753492.56249  22284876.7314
 95  2  7 19  2 30.0050000  0  6 18 14 19  4 22 29
  23332565.634    -6734548.390 7  -5175398.78249  23332567.4504
  22542254.274    -4725545.926 7  -3598865.11349  22542256.3844
  24158583.032    -6193082.406 6  -4755146.24249  24158586.4074
  26354145.993     1016887.502 3    730298.21447  26354149.8374
  23361427.845    -3788631.241 7  -2866659.96749  23361430.2824
  22286379.321   -12088320.107 7  -9747338.41849  22286379.7084
 95  2  7 19  3  0.0050000  0  6 18 14 19  4 22 29
  23325394.563    -6772232.080 7  -5204762.69149  23325396.3804
  22560272.626    -4630859.943 7  -3525083.86149  22560275.1224
  24151669.048    -6229417.769 6  -4783459.49449  24151671.5204
  26363864.743     1067957.105 3    770092.65947  26363869.5714
  23377746.931    -3702874.868 7  -2799836.83049  23377749.4274
  22287932.188   -12080159.620 7  -9740979.60449  22287932.5054
 95  2  7 19  3 30.0050000  0  6 18 14 19  4 22 29
  23318253.868    -6809758.134 7  -5234003.77549  23318255.6384
  22578385.704    -4535673.149 7  -3450912.37149  22578388.1774
  24144802.688    -6265497.370 6  -4811573.45349  24144806.0524
  26373665.142     1119465.723 3    810229.17948  26373668.2244
  23394165.681    -3616591.822 7  -2732603.30049  23394168.0134
  22289535.399   -12071736.180 7  -9734415.88949  22289535.7164
 95  2  7 19  4  0.0050000  0  6 18 14 19  4 22 29
  23311141.806    -6847132.923 7  -5263126.98349  23311143.4704
  22596586.149    -4440030.295 7  -3376385.50849  22596588.6814
  24137985.157    -6301325.118 6  -4839491.15749  24137988.2634
  26383553.485     1171427.700 3    850718.97146  26383557.7284
  23410684.821    -3529784.368 7  -2664961.14249  23410687.1654
  22291185.368   -12063062.667 7  -9727657.31349  22291185.9314
 95  2  7 19  4 30.0050000  0  6 18 14 19  4 22 29
  23304057.329    -6884360.764 7  -5292135.68449  23304059.0054
  22614871.985    -4343939.240 7  -3301509.38849  22614874.2124
  24131217.243    -6336894.160 6  -4867207.27749  24131220.3494
  26393532.431     1223858.714 3    891574.30246  26393535.8174
  23427306.806    -3442436.119 7  -2596897.58149  23427308.7864
  22292884.470   -12054133.879 7  -9720699.82049  22292885.0324
 95  2  7 19  5  0.0050000  0  6 18 14 19  4 22 29
  23297002.040    -6921436.639 7  -5321025.97349  23297003.7634
  22633241.743    -4247405.872 7  -3226288.61249  22633243.9354
  24124495.634    -6372210.411 6  -4894726.42449  24124498.9504
  26403594.470     1276740.462 3    932780.81347  26403597.3174
  23444030.274    -3354552.105 7  -2528416.54749  23444032.3604
  22294629.548   -12044963.981 7  -9713554.45549  22294630.0874
 95  2  7 19  5 30.0050000  0  6 18 14 19  4 22 29
  23289979.587    -6958339.061 7  -5349781.10049  23289981.3454
  22651697.954    -4150416.282 7  -3150712.33749  22651700.3214
  24117826.009    -6407262.893 6  -4922040.03249  24117829.1384
  26413740.462     1330051.169 3    974321.56146  26413744.3064
  23460854.649    -3266139.733 7  -2459523.80649  23460856.9934
  22296420.290   -12035554.072 7  -9706222.06649  22296420.8524
 95  2  7 19  6  0.0050000  0  6 18 14 19  4 22 29
  23282989.345    -6995072.381 7  -5378404.46149  23282991.0564
  22670245.087    -4052950.021 7  -3074764.64249  22670247.5604
  24111204.009    -6442061.534 6  -4949155.84849  24111206.9274
  26423960.587     1383763.734 3   1016175.47646  26423968.1964
  23477778.110    -3177207.355 7  -2390225.86649  23477780.5244
  22298254.915   -12025912.993 7  -9698709.54249  22298255.3604
 95  2  7 19  6 30.0050000  0  6 18 14 19  4 22 29
  23276034.743    -7031620.323 7  -5406883.38049  23276036.6884
  22688888.946    -3954976.360 7  -2998421.56549  22688891.5834
  24104631.165    -6476599.406 6  -4976068.45849  24104634.2124
  26434260.321     1437882.850 3   1058346.15147  26434263.0054
  23494799.673    -3087758.908 7  -2320525.79849  23494802.0174
  22300135.540   -12016031.405 7  -9691009.61149  22300135.9154
 95  2  7 19  7  0.0050000  0  6 18 14 19  4 22 29
  23269118.563    -7067965.118 7  -5435203.99349  23269120.1924
  22707630.509    -3856488.355 7  -2921677.70449  22707633.0994
  24098107.353    -6510886.929 6  -5002785.99149  24098110.5054
  26444634.985     1492409.482 3   1100834.38347  26444642.5134
  23511916.923    -2997805.798 7  -2250432.48649  23511919.3954
  22302064.923   -12005892.204 7  -9683108.94249  22302065.2634
 95  2  7 19  7 30.0050000  0  6 18 14 19  4 22 29
  23262240.571    -7104109.887 7  -5463368.74449  23262242.2824
  22726470.673    -3757483.623 7  -2844531.19449  22726473.0874
  24091629.563    -6544926.125 6  -5029310.02749  24091632.7984
  26455092.103     1547360.785 3   1143653.51048  26455097.5284
  23529129.751    -2907352.884 7  -2179949.71849  23529132.2244
  22304048.751   -11995467.030 7  -9674985.44349  22304049.0204
 95  2  7 19  8  0.0050000  0  6 18 14 19  4 22 29
  23255395.540    -7140081.591 7  -5491398.63049  23255397.3454
  22745404.290    -3657986.742 7  -2767001.20249  22745406.7164
  24085192.485    -6578750.723 6  -5055666.83749  24085195.8024
  26465629.626     1602733.742 3   1186801.27745  26465635.9544
  23546433.970    -2816418.451 7  -2109091.74649  23546436.6884
  22306085.360   -11984764.107 7  -9666645.50749  22306085.6064
 95  2  7 19  8 30.0050000  0  6 18 14 19  4 22 29
  23248582.931    -7175880.571 7  -5519293.93249  23248584.5364
  22764429.251    -3558010.056 7  -2689097.32849  22764431.8524
  24078796.415    -6612362.520 6  -5081857.83549  24078800.0484
  26476245.977     1658521.294 3   1230271.99347  26476248.0754
  23563828.845    -2725006.285 7  -2037861.51149  23563831.7394
  22308178.227   -11973765.279 7  -9658075.00549  22308178.5094
 95  2  7 19  9  0.0050000  0  5 18 14 19 22 29
  23241806.259    -7211491.516 7  -5547042.71349  23241807.8174
  22783548.063    -3457540.034 7  -2610809.03849  22783550.5714
  24072447.196    -6645730.669 6  -5107858.97449  24072449.9744
  23581321.102    -2633086.284 7  -1966235.55949  23581323.5284
  22310336.360   -11962425.136 7  -9649238.53949  22310336.6534
 95  2  7 19  9 30.0050000  0  5 18 14 19 22 29
  23235062.274    -7246931.568 7  -5574658.33549  23235063.9154
  22802756.423    -3356599.159 7  -2532153.84849  22802759.2004
  24066144.134    -6678854.444 6  -5133669.68449  24066147.1574
  23598908.446    -2540666.456 7  -1894220.14149  23598910.5444
  22312555.806   -11950762.674 7  -9640150.92449  22312556.4034
 95  2  7 19 10  0.0050000  0  5 18 14 19 22 29
  23228354.329    -7282182.679 7  -5602126.72949  23228356.2164
  22822055.118    -3255183.098 7  -2453128.38849  22822057.9314
  24059890.149    -6711716.771 6  -5159276.67249  24059893.1144
  23616592.423    -2447734.802 7  -1821805.89549  23616594.6034
  22314836.142   -11938779.016 7  -9630813.01649  22314836.7164
 95  2  7 19 10 30.0050000  0  5 18 14 19 22 29
  23221675.774    -7317277.274 7  -5629473.16149  23221677.2984
  22841437.681    -3153328.808 7  -2373761.44749  22841440.4584
  24053683.626    -6744334.619 6  -5184693.14749  24053686.4384
  23634367.782    -2354324.361 7  -1749018.56949  23634369.9034
  22317171.095   -11926509.488 7  -9621252.35549  22317171.6924
 95  2  7 19 11  0.0050000  0  5 18 14 19 22 29
  23215033.290    -7352183.075 7  -5656672.49249  23215034.9424
  22860908.103    -3051011.515 7  -2294033.73249  22860910.6104
  24047527.767    -6776680.614 6  -5209897.80049  24047530.5674
  23652238.813    -2260410.320 7  -1675838.82449  23652241.1814
  22319560.579   -11913952.825 7  -9611467.95849  22319561.0604
 95  2  7 19 11 30.0050000  0  6 18 14 28 19 22 29
  23208429.290    -7386888.117 7  -5683715.37849  23208431.1304
  22880470.056    -2948210.886 7  -2213929.38549  22880472.5054
  26505606.563      -21129.11913
  24041425.892    -6808747.815 6  -5234885.20949  24041428.4114
  23670207.962    -2165983.969 7  -1602259.88649  23670210.3064
  22322002.501   -11901120.702 7  -9601468.91049  22322002.8174
 95  2  7 19 12  0.0050000  0  6 18 14 28 19 22 29
  23201863.462    -7421390.913 7  -5710600.67049  23201865.2314
  22900129.688    -2844900.145 7  -2133427.54649  22900132.3134
  26498086.774      -60647.747 4     -1024.00657  26498091.5674
  24035376.782    -6840535.172 6  -5259654.55049  24035379.4074
  23688275.235    -2071037.590 7  -1528275.72249  23688277.7084
  22324499.142   -11887999.128 7  -9591244.31849  22324499.4584
 95  2  7 19 12 30.0050000  0  6 18 14 28 19 22 29
  23195330.337    -7455724.598 7  -5737354.18749  23195332.1534
  22919882.399    -2741099.034 7  -2052543.60849  22919885.1304
  26490587.821     -100057.509 4    -31732.74747  26490592.7434
  24029374.899    -6872072.839 6  -5284229.34549  24029378.0174
  23706438.165    -1975592.157 7  -1453902.69049  23706440.5444
  22327047.079   -11874610.183 7  -9580811.38649  22327047.5954
 95  2  7 19 13  0.0050000  0  6 18 14 28 19 22 29
  23188831.454    -7489872.551 7  -5763962.97449  23188833.3524
  22939730.571    -2636794.634 7  -1971267.49349  22939733.3024
  26483110.610     -139347.070 4    -62347.84548  26483116.6814
  24023421.399    -6903358.488 6  -5308607.74249  24023424.9854
  23724698.696    -1879632.092 7  -1379128.64049  23724701.3214
  22329647.767   -11860943.377 7  -9570161.93649  22329648.2824
 95  2  7 19 13 30.0050000  0  6 18 14 28 19 22 29
  23182368.868    -7523833.812 7  -5790426.29049  23182370.9424
  22959675.056    -2531987.271 7  -1889599.45849  22959677.8924
  26475658.728     -178508.575 4    -92863.16049  26475664.9854
  24017515.735    -6934393.686 6  -5332790.99349  24017519.3684
  23743054.938    -1783169.635 7  -1303963.11749  23743057.5754
  22332306.259   -11846972.255 7  -9559275.35949  22332306.8214
 95  2  7 19 14  0.0050000  0  6 18 14 28 19 22 29
  23175941.626    -7557610.243 7  -5816745.57649  23175943.7004
  22979709.845    -2426705.069 7  -1807561.42249  22979712.4814
  26468229.938     -217544.492 4   -123280.58348  26468235.8454
  24011653.782    -6965196.439 6  -5356793.10549  24011657.2634
  23761502.634    -1686226.733 7  -1228423.22449  23761505.0134
  22335022.579   -11832697.360 7  -9548152.07649  22335023.2004
 95  2  7 19 14 30.0050000  0  6 18 14 28 19 22 29
  23169552.477    -7591185.786 7  -5842908.32949  23169554.6924
  22999830.649    -2320969.309 7  -1725169.96249  22999832.9114
  26460826.165     -256451.503 4   -153597.58448  26460831.8254
  24005838.728    -6995756.258 6  -5380605.92849  24005841.5054
  23780038.149    -1588821.920 7  -1152523.39849  23780040.4234
  22337794.501   -11818133.038 7  -9536803.26749  22337795.1454
 95  2  7 19 15  0.0050000  0  6 18 14 28 19 22 29
  23163202.149    -7624556.155 7  -5868911.20649  23163204.2594
  23020034.282    -2214798.503 7  -1642439.50249  23020036.7904
  26453445.938     -295232.733 4   -183816.58449  26453451.1184
  24000068.767    -7026080.216 6  -5404234.96949  24000071.6144
  23798656.485    -1490981.231 7  -1076283.92349  23798658.8994
  22340619.384   -11803287.891 7  -9525235.62949  22340619.9934
 95  2  7 19 15 30.0050000  0  6 18 14 28 19 22 29
  23156892.157    -7657716.546 7  -5894750.46949  23156894.0914
  23040321.673    -2108188.484 7  -1559366.79849  23040324.0054
  26446093.165     -333871.608 4   -213924.65248  26446098.9894
  23994346.267    -7056151.643 6  -5427667.23049  23994349.0564
  23817358.751    -1392700.660 7   -999701.68549  23817361.3524
  22343501.634   -11788141.701 7  -9513433.41349  22343502.1964
 95  2  7 19 16  0.0050000  0  6 18 14 28 19 22 29
  23150618.876    -7690682.335 7  -5920438.08749  23150620.5994
  23060688.017    -2001161.084 7  -1475968.85849  23060690.8414
  26438765.454     -372379.856 4   -243930.95149  26438770.9744
  23988671.649    -7085970.731 6  -5450902.86449  23988674.8374
  23836144.735    -1293979.377 7   -922776.03349  23836147.1734
  22346435.368   -11772724.279 7  -9501419.84849  22346435.8954
 95  2  7 19 16 30.0050000  0  6 18 14 28 19 22 29
  23144383.806    -7723448.732 7  -5945970.33849  23144385.5754
  23081132.978    -1893720.689 7  -1392249.10949  23081136.1424
  26431462.329     -410755.764 4   -273834.10648  26431468.3414
  23983046.727    -7115531.195 6  -5473936.96449  23983049.9624
  23855017.267    -1194804.599 7   -845497.00849  23855019.9504
  22349421.353   -11757033.347 7  -9489193.15149  22349421.8334
 95  2  7 19 17  0.0050000  0  6 18 14 28 19 22 29
  23138186.509    -7756016.514 7  -5971347.82149  23138188.1144
  23101658.157    -1785861.886 7  -1308203.32949  23101660.9464
  26424186.688     -448990.561 4   -303627.35149  26424192.8064
  23977469.743    -7144837.962 6  -5496773.37849  23977472.5204
  23873980.829    -1095151.266 7   -767845.08149  23873983.3604
  22352464.353   -11741042.587 7  -9476732.83249  22352464.7744
 95  2  7 19 17 30.0050000  0  6 18 14 28 19 22 29
  23132027.306    -7788382.543 7  -5996568.09649  23132028.7704
  23122266.095    -1677567.510 7  -1223818.15149  23122268.8374
  26416941.142     -487068.614 4   -333298.49348  26416946.5564
  23971943.415    -7173879.255 6  -5519402.93749  23971946.0054
  23893039.603     -994997.476 7   -689803.19149  23893041.9464
  22355566.915   -11724737.652 7  -9464027.69449  22355567.5604
 95  2  7 19 18  0.0060000  0  6 18 14 28 19 22 29
  23125907.740    -7820540.589 7  -6021626.30049  23125909.4754
  23142956.068    -1568842.989 7  -1139097.78049  23142958.8224
  26409723.592     -524999.269 4   -362854.73147  26409728.7604
  23966463.178    -7202678.621 6  -5541843.98049  23966465.8384
  23912190.834     -894355.347 7   -611380.77849  23912193.1664
  22358725.014   -11708141.617 7  -9451095.73149  22358725.6114
 95  2  7 19 18 30.0060000  0  6 18 14 28 19 22 29
  23119831.225    -7852472.631 7  -6046508.40149  23119832.9714
  23163731.326    -1459666.663 7  -1054025.36449  23163733.9864
  26402537.404     -562758.048 4   -392277.07649  26402542.9714
  23961029.670    -7231228.885 6  -5564090.91849  23961032.5414
  23931435.639     -793224.508 7   -532577.55849  23931438.1824
  22361946.225   -11691214.626 7  -9437905.87549  22361946.7174
 95  2  7 19 19  0.0060000  0  6 18 14 28 19 22 29
  23113791.240    -7884213.427 7  -6071241.47849  23113793.0574
  23184589.709    -1350053.962 7   -968612.90849  23184592.4514
  26395379.076     -600372.650 4   -421587.08149  26395383.9514
  23955638.053    -7259564.223 6  -5586170.38449  23955641.3814
  23950764.779     -691647.522 7   -453426.68349  23950766.8774
  22365224.998   -11673983.922 7  -9424479.36249  22365225.6894
 95  2  7 19 19 30.0060000  0  6 18 14 28 19 22 29
  23107792.928    -7915733.576 7  -6095802.62049  23107794.9434
  23205533.959    -1239992.903 7   -882851.08449  23205536.7014
  26388251.076     -637827.542 4   -450772.57649  26388256.1034
  23950291.764    -7287658.136 6  -5608061.72649  23950295.0334
  23970178.443     -589629.565 7   -373932.20549  23970180.9044
  22368562.568   -11656445.163 7  -9410812.80249  22368563.1544
 95  2  7 19 20  0.0060000  0  6 18 14 28 19 22 29
  23101840.303    -7947017.130 7  -6120179.39449  23101841.7914
  23226564.350    -1129476.328 7   -796734.31849  23226567.1624
  26381155.068     -675118.592 4   -479830.46948  26381160.5414
  23944993.756    -7315500.998 6  -5629757.44349  23944996.4754
  23989676.264     -487168.820 7   -294092.68549  23989678.2324
  22371960.139   -11638590.367 7  -9396899.98649  22371960.6544
 95  2  7 19 20 30.0060000  0  6 18 14 28 19 22 29
  23095929.896    -7978075.919 7  -6144381.03749  23095931.3964
  23247680.600    -1018509.505 7   -710266.70249  23247683.6464
  26374089.225     -712246.997 3   -508761.56247  26374095.2134
  23939744.310    -7343087.354 6  -5651253.28849  23939747.0184
  24009257.600     -384268.469 7   -213910.62649  24009259.7214
  22375417.756   -11620420.717 7  -9382741.82449  22375418.4354
 95  2  7 19 21  0.0060000  0  6 18 14 28 19 22 29
  23090067.607    -8008882.893 7  -6168386.46349  23090068.9324
  23268883.693     -907087.867 7   -623444.68449  23268886.6824
  26367058.092     -749198.257 4   -537554.64749  26367063.4944
  23934547.521    -7370396.003 6  -5672532.74849  23934550.0064
  24028926.576     -280906.742 7   -133369.06149  24028928.6974
  22378933.123   -11601947.362 7  -9368347.01549  22378933.8504
 95  2  7 19 21 30.0060000  0  6 18 14 28 19 22 29
  23084251.795    -8039445.023 7  -6192201.10049  23084253.1784
  23290172.014     -795217.217 7   -536272.78449  23290174.9084
  26360061.279     -785966.683 4   -566205.25949  26360065.9784
  23929404.428    -7397423.186 6  -5693592.87549  23929406.8424
  24048684.818     -177075.161 7    -52461.36649  24048687.0214
  22382506.498   -11583169.302 7  -9353714.76949  22382507.1194
 95  2  7 19 22  0.0060000  0  6 18 14 28 19 22 29
  23078478.545    -8069783.166 7  -6215841.20349  23078479.7644
  23311545.670     -682897.697 7   -448751.11849  23311548.8464
  26353100.732     -822548.268 5   -594710.27449  26353104.9984
  23924312.240    -7424182.884 6  -5714444.57549  23924315.1934
  24068533.482      -72770.185 7     28815.20049  24068535.8144
  22386138.982   -11564081.080 7  -9338840.83849  22386139.5924
 95  2  7 19 22 30.0060000  0  6 18 14 28 19 22 29
  23072747.170    -8099904.371 7  -6239312.26149  23072748.4594
  23333001.279     -570148.671 7   -360894.77349  23333004.1274
  26346174.373     -858940.003 5   -623067.39048  26346179.4244
  23919270.896    -7450674.986 6  -5735087.75449  23919273.4164
  24088469.240       31992.534 7    110448.45249  24088471.5494
  22389830.310   -11544682.235 7  -9323724.85649  22389830.8734
 95  2  7 19 23  0.0060000  0  6 18 14 28 19 22 29
  23067056.943    -8129805.401 7  -6262611.76249  23067058.3504
  23354537.740     -456973.434 7   -272706.32749  23354540.7054
  26339287.506     -895133.649 5   -651270.11149  26339292.8734
  23914280.935    -7476898.002 6  -5755521.24749  23914283.7014
  24108490.928      137208.380 7    192434.78849  24108493.4004
  22393586.154   -11524945.711 7  -9308345.75649  22393586.7994
 95  2  7 19 23 30.0060000  0  6 18 14 28 19 22 29
  23061402.842    -8159517.124 7  -6285763.74549  23061404.3184
  23376151.295     -343394.275 7   -184203.13649  23376153.9204
  26332434.100     -931147.637 5   -679332.87648  26332439.7604
  23909334.756    -7502887.849 6  -5775773.05649  23909337.6154
  24128591.584      242836.873 7    274742.66749  24128593.9284
  22397405.740   -11504874.300 7  -9292705.70249  22397406.4784
 95  2  7 19 24  0.0060000  0  6 18 14 28 19 22 29
  23055788.506    -8189020.917 7  -6308753.70849  23055789.7604
  23397842.990     -229403.913 7    -95379.51549  23397845.7214
  26325617.029     -966974.396 5   -707249.75149  26325621.1664
  23904433.834    -7528641.558 6  -5795840.84849  23904436.8574
  24148771.365      348878.634 7    357372.57449  24148773.3464
  22401290.279   -11484459.814 7  -9276798.31849  22401291.1354
 95  2  7 19 24 30.0060000  0  6 18 14 28 19 22 29
  23050217.779    -8218294.724 7  -6331564.46049  23050219.4324
  23419612.787     -115003.041 7     -6236.03549  23419615.6004
  26318835.107    -1002609.353 5   -735017.17049  26318839.9124
  23899578.928    -7554154.122 6  -5815720.74949  23899582.0334
  24169029.795      455338.773 7    440328.48849  24169031.9044
  22405241.740   -11463695.689 7  -9260618.49449  22405242.5844
 95  2  7 19 25  0.0060000  0  6 18 14 28 19 22 29
  23044694.092    -8247322.680 7  -6354183.64349  23044695.6504
  23441462.459        -179.748 7     83236.62149  23441465.5764
  26312093.607    -1038036.294 5   -762622.47249  26312097.2174
  23894770.725    -7579423.439 6  -5835411.10349  23894773.5964
  24189372.678      562242.203 7    523629.81649  24189374.9984
  22409262.350   -11442568.463 7  -9244155.72349  22409263.1354
 95  2  7 19 25 30.0060000  0  6 18 14 28 19 22 29
  23039214.209    -8276119.140 7  -6376622.43549  23039215.6864
  23463388.131      115037.285 7    173016.07249  23463391.4244
  26305389.420    -1073266.917 5   -790074.82249  26305395.1154
  23890004.685    -7604467.186 6  -5854925.68849  23890007.5684
  24209797.654      669576.029 7    607266.52349  24209799.9514
  22413344.740   -11421115.283 7  -9227438.96749  22413345.4204
 95  2  7 19 26  0.0060000  0  6 18 14 28 19 22 29
  23033784.092    -8304653.924 7  -6398857.32949  23033785.5334
  23485387.217      230646.154 7    263100.85849  23485390.5104
  26298726.357    -1108279.532 5   -817357.32849  26298732.5334
  23885288.396    -7629252.418 6  -5874238.83549  23885291.2794
  24230306.373      777349.908 7    691246.12749  24230308.8344
  22417490.646   -11399325.023 7  -9210459.54549  22417491.5844
 95  2  7 19 26 30.0060000  0  6 18 14 28 19 22 29
  23028409.537    -8332898.189 7  -6420865.84349  23028411.1314
  23507465.014      346664.534 7    353504.74149  23507468.2604
  26292111.576    -1143043.776 5   -844446.25349  26292118.1504
  23880626.959    -7653745.520 6  -5893324.34249  23880629.9594
  24250902.139      885581.633 7    775582.49649  24250904.9044
  22421706.646   -11377171.724 7  -9193197.23749  22421707.5844
 95  2  7 19 27  0.0060000  0  6 18 14 28 19 22 29
  23023078.795    -8360910.562 7  -6442693.66249  23023080.5064
  23529611.943      463045.697 7    444191.31349  23529615.2364
  26285534.381    -1177605.742 5   -871377.57749  26285539.7014
  23876013.123    -7677993.496 6  -5912218.84249  23876016.1934
  24271574.107      994212.097 7    860229.57649  24271576.6274
  22425978.959   -11354721.309 7  -9175703.41149  22425979.8614
 95  2  7 19 27 30.0060000  0  6 18 14 28 19 22 29
  23017793.959    -8388684.352 7  -6464335.57649  23017795.7174
  23551831.693      579811.969 7    535177.97049  23551834.8464
  26278997.311    -1211958.596 5   -898145.96249  26279003.2404
  23871449.998    -7701975.431 6  -5930906.03649  23871452.8814
  24292320.889     1103238.108 7    945184.86449  24292323.7954
  22430307.865   -11331972.229 7  -9157976.86049  22430308.7214
 95  2  7 19 28  0.0060000  0  6 18 14 28 19 22 29
  23012558.318    -8416197.549 7  -6485774.43249  23012560.1004
  23574130.631      696993.989 7    626488.58449  23574134.0294
  26272501.951    -1246094.433 5   -924745.23649  26272507.7644
  23866940.404    -7725670.994 6  -5949370.08649  23866943.3814
  24313145.217     1212670.283 7   1030456.64349  24313148.0764
  22434697.498   -11308904.564 7  -9140002.06249  22434698.3074
 95  2  7 19 28 30.0060000  0  6 18 14 28 19 22 29
  23007367.334    -8443475.489 7  -6507029.96749  23007369.1394
  23596509.693      814596.471 7    718126.83449  23596512.8934
  26266043.412    -1280029.902 5   -951188.38849  26266047.9824
  23862479.740    -7749110.821 6  -5967634.86849  23862482.7874
  24334047.232     1322511.530 7   1116047.18649  24334050.1274
  22439146.303   -11285525.470 7  -9121784.59349  22439147.2054
 95  2  7 19 29  0.0060000  0  6 18 14 28 19 22 29
  23002223.795    -8470504.781 7  -6528091.75049  23002225.4474
  23618972.076      932635.069 7    810104.91049  23618975.0294
  26259627.982    -1313744.369 5   -977459.34249  26259632.5414
  23858070.592    -7772283.017 6  -5985691.10549  23858073.4514
  24355033.467     1432794.570 7   1201981.98149  24355036.3734
  22443659.076   -11261811.475 7  -9103306.16049  22443660.0494
 95  2  7 19 29 30.0060000  0  6 18 14 28 19 22 29
  22997127.928    -8497284.003 7  -6548958.67249  22997129.5574
  23641512.670     1051087.728 7    902405.62449  23641515.9044
  26253254.170    -1347242.781 5  -1003561.90849  26253258.8694
  23853710.436    -7795195.342 6  -6003544.85349  23853713.0144
  24376101.584     1543508.746 6   1288252.73349  24376104.7834
  22448239.545   -11237740.794 7  -9084549.79049  22448240.4474
 95  2  7 19 30  0.0060000  0  6 18 14 28 19 22 29
  22992084.943    -8523785.271 7  -6569609.01349  22992086.7954
  23664131.912     1169951.755 7    995026.88949  23664134.9244
  26246924.404    -1380501.537 5  -1029477.69749  26246929.7604
  23849399.771    -7817847.347 6  -6021195.74149  23849402.8304
  24397253.732     1654663.260 6   1374866.60149  24397256.9554
  22452892.357   -11213291.400 7  -9065498.31749  22452893.2604
 95  2  7 19 30 30.0060000  0  6 18 14 28 19 22 29
  22987086.615    -8550049.837 7  -6590074.90349  22987088.3964
  23686821.146     1289184.464 7   1087935.43649  23686824.1354
  26240637.420      -17591.81415
  23845132.545    -7840271.409 6  -6038669.02149  23845136.0844
  24418484.037     1766228.464 7   1461800.48549  24418486.8504
  22457612.170   -11188488.059 7  -9046171.04649  22457612.9324
 95  2  7 19 31  0.0060000  0  6 18 14 28 19 22 29
  22982139.514    -8576047.494 7  -6610332.81949  22982141.2714
  23709580.295     1408783.961 7   1181129.79349  23709583.3534
  26234397.186      -50385.304 5     -2545.17559  26234403.4904
  23840913.561    -7862442.514 6  -6055945.18449  23840916.9364
  24439790.560     1878195.014 6   1549047.10249  24439793.2684
  22462402.068   -11163315.934 7  -9026556.41049  22462402.9124
 95  2  7 19 31 30.0060000  0  6 18 14 28 19 22 29
  22977244.764    -8601770.432 7  -6630376.66849  22977246.6624
  23732407.896     1528743.884 7   1274604.99649  23732410.9434
  26228203.053      -82932.881 5    -27906.79049  26228207.6464
  23836742.365    -7884361.389 6  -6073024.80549  23836745.1784
  24461168.592     1990537.918 6   1636586.98649  24461171.2054
  22467260.646   -11137783.813 7  -9006661.25549  22467261.7714
 95  2  7 19 32  0.0060000  0  6 18 14 28 19 22 29
  22972398.029    -8627239.911 7  -6650223.01249  22972399.8574
  23755302.709     1649056.383 6   1368354.93549  23755306.0024
  26222053.881     -115244.427 5    -53084.47049  26222058.3344
  23832616.107    -7906046.146 7  -6089921.99849  23832618.5104
  24482614.740     2103239.830 6   1724406.61049  24482617.4594
  22472183.615   -11111914.797 7  -8986503.58949  22472184.4824
 95  2  7 19 32 30.0060000  0  6 18 14 28 19 22 29
  22967598.310    -8652463.664 7  -6669877.88749  22967599.8464
  23778264.826     1769723.261 6   1462381.01149  23778268.0964
  26215950.748     -147318.540 5    -78077.13549  26215955.4124
  23828535.162    -7927494.556 7  -6106635.02249  23828537.6584
  24504131.162     2216306.151 6   1812510.19449  24504133.5884
  22477169.967   -11085710.051 7  -8966084.31249  22477170.9044
 95  2  7 19 33  0.0060000  0  6 18 14 28 19 22 29
  22962847.623    -8677428.580 7  -6689331.06849  22962848.9244
  23801295.154     1890748.461 6   1556686.31149  23801298.7284
  26209892.881     -179151.525 5   -102881.88949  26209898.9634
  23824498.904    -7948703.847 7  -6123161.71349  23824501.6824
  24525715.607     2329733.482 6   1900895.08249  24525718.1624
  22482220.967   -11059167.939 7  -8945402.15149  22482221.8224
 95  2  7 19 33 30.0060000  0  6 18 14 28 19 22 29
  22958146.850    -8702132.364 7  -6708580.77049  22958148.0804
  23824397.537     2012153.496 6   1651287.57649  23824401.3224
  26203882.920     -210732.444 5   -127490.19849  26203888.2174
  23820509.185    -7969669.444 7  -6139498.52449  23820511.9394
  24547372.451     2443541.026 6   1989576.23249  24547374.9244
  22487337.857   -11032278.379 7  -8924449.25549  22487338.7484
 95  2  7 19 34  0.0060000  0  6 18 14 28 19 22 29
  22953495.506    -8726575.015 7  -6727626.98849  22953496.8184
  23847573.584     2133943.224 6   1746188.60249  23847577.0184
  26197920.334     -242064.212 5   -151904.41049  26197925.7254
  23816565.967    -7990392.176 7  -6155646.08449  23816568.5334
  24569103.553     2557737.053 6   2078560.10449  24569106.0724
  22492520.834   -11005039.415 7  -8903224.09749  22492521.9004
 95  2  7 19 34 30.0060000  0  6 18 14 28 19 22 29
  22948895.201    -8750748.185 7  -6746463.22749  22948896.6544
  23870823.232     2256120.690 6   1841391.76349  23870826.6544
  26192005.717     -273145.394 5   -176123.35748  26192010.8964
  23812670.529    -8010860.889 7  -6171595.71849  23812673.3774
  24590908.193     2672322.061 6   2167847.07749  24590910.6544
  22497769.295   -10977459.133 7  -8881732.97449  22497770.3964
 95  2  7 19 35  0.0060000  0  6 18 14 28 19 22 29
  22944349.279    -8774637.384 7  -6765078.18449  22944350.6744
  23894147.529     2378691.834 6   1936901.68549  23894151.1154
  26186141.225     -303966.015 5   -200139.25149  26186147.0724
  23808826.607    -8031060.077 7  -6187335.32249  23808829.1624
  24612786.584     2787291.811 6   2257433.85049  24612788.9984
  22503084.975   -10949527.176 7  -8859967.82249  22503085.8774
 95  2  7 19 35 30.0060000  0  7 18 14 28 19 31 22 29
  22939854.412    -8798259.138 7  -6783484.75149  22939855.7254
  23917541.646     2501627.453 6   2032695.61749  23917545.0334
  26180323.123     -334541.337 5   -223964.03149  26180328.9124
  23805030.467    -8051010.437 7  -6202881.05149  23805033.0924
  26611913.912      -41854.48813
  24634734.365     2902630.838 6   2347308.36949  24634736.9324
  22508462.686   -10921268.145 7  -8837947.80949  22508463.4944
 95  2  7 19 36  0.0060000  0  7 18 14 28 19 31 22 29
  22935411.053    -8821609.790 8  -6801680.06949  22935412.1434
  23941004.225     2624921.197 6   2128768.61349  23941007.2364
  26174553.686     -364854.033 5   -247584.17249  26174558.5024
  23801286.264    -8070683.887 7  -6218210.99649  23801288.8774
  26601522.373      -96461.880 3     -9928.36657  26601528.5144
  24656755.334     3018352.141 6   2437480.76749  24656757.8184
  22513903.537   -10892673.426 7  -8815666.21249  22513904.5684
 95  2  7 19 36 30.0060000  0  7 18 14 28 19 31 22 29
  22931020.139    -8844683.882 8  -6819659.88349  22931021.3814
  23964532.357     2748564.202 6   2225113.74649  23964535.8504
  26168837.943     -394893.076 5   -270991.10949  26168843.4984
  23797595.904    -8090076.021 7  -6233321.74149  23797598.5884
  26591131.264     -151067.554 3    -52478.10148  26591135.7524
  24678849.100     3134453.870 6   2527949.60049  24678851.5844
  22519409.811   -10863738.181 7  -8793119.27349  22519410.8774
 95  2  7 19 37  0.0060000  0  7 18 14 28 19 31 22 29
  22926678.529    -8867499.789 8  -6837438.51349  22926679.7014
  23988120.998     2872522.992 6   2321704.95049  23988124.4674
  26163171.756     -424670.036 5   -294193.82949  26163177.1824
  23793952.764    -8109222.206 7  -6248240.83549  23793955.3304
  26580735.514     -205695.062 3    -95044.77546  26580741.4784
  24701012.076     3250920.080 6   2618702.45149  24701014.4204
  22524980.482   -10834464.361 7  -8770308.51349  22524981.4434
 95  2  7 19 37 30.0060000  0  8 18 14 28 19 31 22 27 29
  22922385.420    -8890059.587 8  -6855017.58149  22922386.5214
  24011768.201     2996792.035 6   2418537.91449  24011772.0214
  26157555.584     -454181.014 5   -317189.32149  26157559.4984
  23790353.818    -8128136.209 7  -6262979.01249  23790356.0214
  26570335.623     -260349.129 3   -137632.24045  26570341.7174
  24723245.928     3367760.697 6   2709747.05349  24723248.3654
  26967470.943      -47213.204 2
  22530618.162   -10804838.240 7  -8747223.23149  22530619.3104
 95  2  7 19 38  0.0060000  0  8 18 14 28 19 31 22 27 29
  22918142.436    -8912357.997 8  -6872392.96349  22918143.5964
  24035477.193     3121380.356 6   2515619.64749  24035480.8964
  26151991.303     -483420.079 5   -339972.94849  26151996.1664
  23786798.217    -8146820.607 7  -6277538.28049  23786800.4784
  26559930.857     -315026.371 3   -180237.73346  26559937.8224
  24745549.014     3484964.975 6   2801075.02649  24745551.4284
  26958198.217      -95930.676 1
  22536325.451   -10774846.389 7  -8723852.96449  22536326.6584
 95  2  7 19 38 30.0060000  0  8 18 14 28 19 31 22 27 29
  22913953.568    -8934368.417 8  -6889543.93749  22913954.5884
  24059249.303     3246303.355 6   2612962.18849  24059252.7364
  26146480.811     -512379.396 5   -362538.59949  26146485.2524
  23783281.600    -8165298.896 7  -6291936.94249  23783284.3654
  26549523.146     -369718.294 3   -222854.71647  26549529.2754
  24767921.701     3602532.518 6   2892686.06249  24767924.6074
  26948949.303     -144542.032 2    -31559.84155  26948955.2684
  22542105.061   -10744473.448 7  -8700185.74149  22542106.1974
 95  2  7 19 39  0.0060000  0  8 18 14 28 19 31 22 27 29
  22909815.248    -8956116.915 8  -6906490.81349  22909816.4554
  24083079.420     3371533.682 6   2710544.19149  24083083.2404
  26141020.654     -541073.885 5   -384897.90949  26141025.6464
  23779800.170    -8183593.060 7  -6306192.12149  23779802.9124
  26539110.217     -424436.315 3   -265492.00548  26539117.3344
  24790358.928     3720441.208 6   2984562.92449  24790361.8574
  26939713.396     -193075.197 3    -69377.89247  26939716.9824
  22547954.810   -10713733.243 7  -8676232.34249  22547955.8774
 95  2  7 19 39 30.0060000  0  8 18 14 28 19 31 22 27 29
  22905735.889    -8977553.413 8  -6923194.57149  22905737.0844
  24106977.178     3497117.269 6   2808401.47249  24106980.8694
  26135618.678     -569461.769 5   -407018.31249  26135623.9394
  23776364.748    -8201645.926 7  -6320259.28849  23776367.2564
  26528701.584     -479131.406 3   -308111.46245  26528708.1934
  24812866.975     3838724.120 6   3076731.39349  24812870.3504
  26930500.529     -241490.599 3   -107104.14248  26930504.5024
  22553878.256   -10682605.096 7  -8651976.64849  22553879.3464
 95  2  7 19 40  0.0060000  0  8 18 14 28 19 31 22 27 29
  22901713.701    -8998689.142 8  -6939663.96349  22901714.9084
  24130940.576     3623045.304 6   2906527.15449  24130943.9864
  26130272.646     -597556.205 5   -428910.03949  26130278.2484
  23772976.686    -8219452.901 7  -6334134.84149  23772979.2284
  26518297.334     -533807.509 3   -350716.08848  26518304.5574
  24835441.498     3957352.634 6   3169169.16349  24835445.0964
  26921306.607     -289804.540 3   -144751.36949  26921310.8854
  22559868.248   -10651127.298 7  -8627448.50049  22559869.2564
 95  2  7 19 40 30.0060000  0  8 18 14 28 19 31 22 27 29
  22897748.732    -9019525.181 7  -6955899.83649  22897749.9044
  24154966.443     3749300.399 6   3004907.68549  24154970.3104
  26124980.467     -625364.982 5   -450579.20049  26124985.0254
  23769636.779    -8237005.074 7  -6347811.85249  23769639.1704
  26507893.920     -588481.333 3   -393318.98147  26507900.3074
  24858081.662     4076326.010 6   3261875.66049  24858085.0724
  26912131.264     -338020.404 3   -182322.09847  26912134.8964
  22565924.170   -10619305.223 7  -8602652.07949  22565925.1194
 95  2  7 19 41  0.0060000  0  8 18 14 28 19 31 22 27 29
  22893837.264    -9040079.106 7  -6971915.87449  22893838.7874
  24179050.811     3875865.220 6   3103529.55649  24179054.6894
  26119741.529     -652893.252 5   -472029.78649  26119746.5214
  23766349.232    -8254278.838 7  -6361271.91649  23766352.1154
  26497489.029     -643161.518 4   -435926.79048  26497494.4434
  24880783.756     4195626.846 6   3354837.31749  24880787.1784
  26902978.279     -386121.990 3   -219803.86449  26902982.8854
  22572043.545   -10587146.776 7  -8577593.55949  22572044.6234
 95  2  7 19 41 30.0060000  0  8 18 14 28 19 31 22 27 29
  22889984.029    -9060328.442 7  -6987694.57249  22889985.5534
  24203201.037     4002772.681 6   3202418.42849  24203204.6704
  26114559.592     -680127.041 5   -493250.86649  26114564.6894
  23763119.193    -8271252.538 7  -6374498.16649  23763122.1004
  26487085.014     -697830.989 4   -478526.26449  26487090.2644
  24903550.365     4315266.557 6   3448063.02849  24903554.1974
  26893850.670     -434084.028 3   -257176.90049  26893855.1004
  22578230.865   -10554631.069 7  -8552256.65349  22578232.0144
 95  2  7 19 42  0.0060000  0  8 18 14 28 19 31 22 27 29
  22886190.662    -9080262.611 7  -7003227.68449  22886192.3504
  24227416.834     4130027.410 6   3301577.89149  24227420.5724
  26109435.857     -707048.961 5   -514228.95949  26109440.7444
  23759948.404    -8287914.824 7  -6387481.75249  23759951.4864
  26476687.271                       -9105.14913
  24926382.787     4435252.793 6   3541558.75249  24926386.3614
  26884752.326     -481894.098 3   -294431.53849  26884755.8074
  22584495.021   -10521713.806 7  -8526606.84449  22584496.2404
 95  2  7 19 42 30.0060000  0  8 18 14 28 19 31 22 27 29
  22882453.209    -9099902.347 7  -7018531.36749  22882455.0024
  24251693.631     4257603.296 6   3400987.60649  24251697.0064
  26104370.123     -733671.289 5   -534973.56249  26104374.8814
  23756830.131    -8304302.962 7  -6400251.72149  23756832.9204
  26466293.514                      -63725.371 4
  24949277.787     4555566.581 6   3635309.70949  24949281.3964
  26875678.873                       -7939.24014
  22590837.131   -10488385.078 7  -8500636.41949  22590838.3384
 95  2  7 19 43  0.0060000  0  8 18 14 28 19 31 22 27 29
  22878769.092    -9119263.861 7  -7033618.25149  22878770.9554
  24276031.193     4385499.376 6   3500646.83249  24276034.8034
  26099361.131     -759994.413 5   -555485.01149  26099364.9164
  23753757.490    -8320449.123 7  -6412833.12149  23753760.2324
  26455906.146     -118313.796 5    -26933.68159  26455911.8894
  24972233.725     4676196.459 6   3729306.98549  24972236.5964
  26866625.936                      -55511.627 4
  22597255.115   -10454659.544 7  -8474356.78849  22597256.2524
 95  2  7 19 43 30.0060000  0  7 18 14 28 19 31 22 29
  22875141.818    -9138324.802 7  -7048470.92349  22875143.4124
  24300431.670     4513722.428 6   3600560.83449  24300435.1274
  26094410.912     -786009.435 5   -575756.34049  26094415.7404
  23750727.662    -8336371.232 7  -6425239.95249  23750730.0644
  26445525.678     -172857.281 4    -69434.85448  26445531.8894
  24995249.537     4797147.782 6   3823554.72849  24995252.7254
  22603747.686   -10420538.802 7  -8447769.20749  22603748.7644
 95  2  7 19 44  0.0070000  0  8 18 14 28 19 31 22 27 29
  22871574.511    -9157071.494 7  -7063078.72149  22871576.2574
  24324893.175     4642270.046 6   3700727.74449  24324896.9724
  26089520.558     -811702.125 5   -595776.47549  26089525.7614
  23747740.183    -8352069.852 7  -6437472.63149  23747742.5034
  26435156.198                       -9077.19014
  25018330.222     4918436.363 6   3918065.27249  25018333.1164
  26848578.651      -45788.823 5
  22610317.253   -10386018.018 7  -8420869.90049  22610318.1794
 95  2  7 19 44 30.0070000  0  8 18 14 28 19 31 22 27 29
  22868068.276    -9175495.916 7  -7077435.40449  22868070.1514
  24349417.745     4771147.495 6   3801151.67549  24349421.2964
  26084694.737     -837065.336 5   -615539.89749  26084699.2844
  23744794.222    -8367550.052 7  -6449535.10149  23744796.8584
  26424795.479                      -63522.108 4
  25041475.097     5040064.219 6   4012840.18849  25041477.7224
  26839587.487      -93040.379 4         0.41559  26839592.9364
  22616957.847   -10351121.535 7  -8393677.84449  22616958.7374
 95  2  7 19 45  0.0070000  0  8 18 14 28 19 31 22 27 29
  22864621.894    -9193607.982 7  -7091548.68649  22864623.5584
  24374001.409     4900335.494 6   3901817.59149  24374005.3824
  26079927.776     -862117.361 5   -635060.80649  26079932.7574
  23741889.581    -8382814.927 7  -6461429.78949  23741892.3944
  26414439.104     -117946.650 5     -2826.20758  26414445.0584
  25064683.597     5162024.831 6   4107874.39449  25064686.6444
  26830616.675     -140176.645 4    -36729.14949  26830622.2654
  22623664.065   -10315878.519 7  -8366215.75649  22623665.0734
 95  2  7 19 45 30.0070000  0  8 18 14 28 19 31 22 27 29
  22861237.808    -9211390.534 7  -7105405.21449  22861239.4364
  24398645.229     5029840.123 6   4002730.21249  24398649.1204
  26075221.214     -886848.106 5   -654331.37349  26075225.6084
  23739031.269    -8397835.828 7  -6473134.36549  23739033.9994
  26404084.417     -172356.136 4    -45222.96247  26404090.7454
  25087956.409     5284323.619 6   4203172.11549  25087959.2804
  26821671.464     -187185.678 4    -73359.55849  26821676.5384
  22630440.245   -10280270.420 7  -8338469.19049  22630441.1944
 95  2  7 19 46  0.0070000  0  8 18 14 28 19 31 22 27 29
  22857911.347    -9228870.777 7  -7119026.17249  22857913.1634
  24423346.894     5159647.696 6   4103878.90549  24423350.8314
  26070574.737     -911265.581 5   -673357.82149  26070577.7374
  23736218.120    -8412617.912 7  -6484652.84949  23736221.0614
  26393731.354     -226763.671 5    -87618.22647  26393737.8004
  25111293.792     5406963.008 6   4298735.23849  25111296.5814
  26812749.815     -234069.222 4   -109892.15148  26812754.9724
  22637286.378   -10244293.924 7  -8310435.56549  22637287.4094
 95  2  7 19 46 30.0070000  0  8 18 14 28 19 31 22 27 29
  22854642.722    -9246048.040 7  -7132411.04449  22854644.4214
  24448107.300     5289763.700 6   4205267.92949  24448111.2614
  26065989.667     -935357.087 5   -692130.27549  26065994.0974
  23733453.144    -8427148.810 7  -6495975.61349  23733455.8864
  26383381.073     -281150.495 4   -129997.32548  26383387.0384
  25134698.706     5529955.406 6   4394573.43649  25134701.6244
  26803852.136                      -15569.08714
  22644204.784   -10207936.458 7  -8282105.08249  22644206.1554
 95  2  7 19 47  0.0070000  0  8 18 14 28 19 31 22 27 29
  22851435.019    -9262904.914 7  -7145546.25949  22851436.5544
  24472926.292     5420187.050 6   4306896.45049  24472929.9724
  26061470.573     -959105.817 5   -710635.58949  26061475.1204
  23730740.198    -8441405.543 7  -6507084.72849  23730742.8584
  26373040.058     -335493.663 5   -172342.44448  26373046.5034
  25158170.550     5653301.950 6   4490687.59549  25158173.3744
  26794978.722                      -62196.832 3
  22651200.972   -10171171.085 7  -8253456.74649  22651202.3434
 95  2  7 19 47 30.0070000  0  8 18 14 28 19 31 22 27 29
  22848283.058    -9279468.268 7  -7158452.75849  22848284.6514
  24497796.487     5550881.051 6   4408735.86749  24497800.3314
  26057012.776     -982531.292 5   -728889.04449  26057017.5344
  23728071.925    -8455427.373 7  -6518010.80349  23728074.5384
  26362705.237     -389800.808 4   -214659.53148  26362709.6674
  25181702.175     5776961.517 6   4587045.66849  25181705.2224
  26786123.089     -108739.952 3    -33846.61558  26786127.4604
  22658269.987   -10134023.984 7  -8224510.96449  22658271.1714
 95  2  7 19 48  0.0070000  0  8 18 14 28 19 31 22 27 29
  22845190.409    -9295718.981 7  -7171115.64249  22845192.0154
  24522717.612     5681842.042 6   4510783.33449  24522721.4444
  26052620.003    -1005611.793 5   -746873.68549  26052624.3044
  23725451.042    -8469199.919 7  -6528742.63849  23725453.5504
  26352384.417     -444034.395 4   -256919.29247  26352389.9254
  25205296.472     5900951.963 6   4683661.56049  25205299.3434
  26777282.339     -155195.085 3    -70045.38247  26777287.5194
  22665413.706   -10096482.490 7  -8195257.85949  22665415.0544
 95  2  7 19 48 30.0070000  0  8 18 14 28 19 31 22 27 29
  22842159.354    -9311648.790 7  -7183528.47649  22842161.0424
  24547688.159     5813062.671 6   4613033.11149  24547692.3314
  26048292.964    -1028349.002 5   -764590.82349  26048297.4524
  23722879.792    -8482712.230 7  -6539271.69549  23722882.3234
  26342078.136     -498192.723 4   -299120.43647  26342084.9444
  25228949.315     6025246.257 6   4780514.21849  25228951.9764
  26768456.526     -201570.469 3   -106182.04847  26768461.6244
  22672630.815   -10058557.058 7  -8165705.58449  22672632.2224
 95  2  7 19 49  0.0070000  0  8 18 14 28 19 31 22 27 29
  22839190.323    -9327251.296 7  -7195686.26349  22839192.0584
  24572708.526     5944547.114 6   4715488.44849  24572712.7224
  26044032.933    -1050739.644 5   -782037.92249  26044036.7534
  23720359.128    -8495959.044 7  -6549593.86349  23720361.6834
  26331787.417     -552273.123 4   -341260.86348  26331792.5974
  25252654.979     6149821.153 6   4877585.52249  25252657.6514
  26759649.878     -247854.679 3   -142247.61047  26759654.8944
  22679920.870   -10020248.009 7  -8135854.38549  22679922.1474
 95  2  7 19 49 30.0070000  0  8 18 14 28 19 31 22 27 29
  22836283.464    -9342527.077 7  -7207589.46349  22836285.0934
  24597780.925     6076301.857 6   4818154.40849  24597784.8864
  26039839.136    -1072775.936 5   -799208.88649  26039842.9214
  23717889.737    -8508934.676 7  -6559704.72749  23717892.3514
  26321513.792     -606262.662 5   -383330.52348  26321518.8194
  25276414.628     6274678.457 6   4974876.88249  25276417.8624
  26750862.870     -294036.179 3   -178233.21745  26750867.1474
  22687285.644    -9981545.970 7  -8105696.96149  22687286.9214
 95  2  7 19 50  0.0070000  0  8 18 14 28 19 31 22 27 29
  22833443.237    -9357452.426 7  -7219219.59649  22833444.7264
  24622910.526     6208358.643 6   4921055.74249  24622914.1474
  26035715.073    -1094446.452 5   -816094.84749  26035718.7184
  23715476.300    -8521617.570 7  -6569587.48349  23715478.9954
  26311258.159     -660158.897 5   -425327.43849  26311264.3824
  25300230.269     6399829.783 6   5072397.34749  25300233.5734
  26742099.495     -340082.381 3   -214113.33647  26742102.0384
  22694727.729    -9942436.874 7  -8075222.35049  22694729.0074
 95  2  7 19 50 30.0070000  0  8 18 14 28 19 31 22 27 29
  22830665.058    -9372051.710 7  -7230595.65249  22830666.4764
  24648096.565     6340710.188 6   5024186.74049  24648100.1514
  26031656.136    -1115777.171 5   -832716.04449  26031660.4724
  23713111.003    -8534047.260 7  -6579272.94249  23713113.8044
  26301009.667     -714010.621 4   -467289.67648  26301015.1984
  25324094.339     6525237.421 6   5170117.54249  25324097.0584
  26733363.261     -385992.778 3   -249887.67047  26733368.8864
  22702242.292    -9902947.398 7  -8044451.34049  22702243.5934
 95  2  7 19 51  0.0070000  0  8 18 14 28 19 31 22 27 29
  22827953.714    -9386301.672 8  -7241699.51149  22827955.3084
  24673340.792     6473370.664 6   5127558.47949  24673345.0224
  26027665.151    -1136746.669 5   -849055.77649  26027669.5224
  23710794.753    -8546218.857 7  -6588757.28549  23710797.6834
  26290774.214     -767798.317 5   -509202.04049  26290780.1554
  25348011.644     6650923.863 6   5268054.99249  25348014.9834
  26724659.253     -431731.458 3   -285528.22647  26724662.1474
  22709832.206    -9863062.821 7  -8013372.45949  22709833.3904
 95  2  7 19 51 30.0070000  0  8 18 14 28 19 31 22 27 29
  22825310.089    -9400193.189 7  -7252524.06349  22825311.4014
  24698642.222     6606332.112 6   5231164.73849  24698646.2294
  26023743.394    -1157358.767 5   -865117.04649  26023747.2144
  23708525.136    -8558144.908 7  -6598050.30449  23708527.8434
  26280549.089     -821528.155 4   -551069.25349  26280554.9134
  25371985.784     6776907.935 6   5366224.35749  25371989.0894
  26715987.261     -477304.280 3   -321039.47347  26715990.8234
  22717496.714    -9822784.425 7  -7981986.70249  22717498.0614
 95  2  7 19 52  0.0070000  0  8 18 14 28 19 31 22 27 29
  22822736.487    -9413717.167 7  -7263062.22049  22822737.8354
  24724002.354     6739599.730 6   5335009.57449  24724006.2574
  26019890.636    -1177604.534 5   -880892.86049  26019893.8354
  23706301.644    -8569830.740 7  -6607156.13749  23706304.2804
  26270335.917     -875202.264 5   -592893.07049  26270341.7064
  25396018.526     6903199.601 6   5464633.40249  25396021.6904
  26707348.120     -522704.532 3   -356416.26747  26707352.5614
  22725237.776    -9782106.219 7  -7950289.40849  22725239.2764
 95  2  7 19 52 30.0070000  0  8 18 14 28 19 31 22 27 29
  22820229.987    -9426889.372 8  -7273326.26849  22820231.3354
  24749419.112     6873166.214 6   5439087.27749  24749423.5544
  26016109.886    -1197474.409 5   -896375.79349  26016113.4134
  23704124.784    -8581269.715 7  -6616069.61449  23704127.1514
  26260136.339     -928799.243 5   -634656.76349  26260142.1164
  25420110.284     7029802.818 6   5563285.21349  25420113.8114
  26698739.034     -567945.478 3   -391668.93147  26698742.2804
  22733057.034    -9741014.055 7  -7918269.55149  22733058.4764
 95  2  7 19 53  0.0070000  0  8 18 14 28 19 31 22 27 29
  22817785.862    -9439732.797 8  -7283334.12049  22817787.1984
  24774886.464     7006997.927 6   5543371.64249  24774890.0854
  26012398.222    -1216979.249 5   -911574.29249  26012401.0934
  23701992.683    -8592473.770 7  -6624800.03149  23701994.8274
  26249955.276     -982300.786 5   -676346.07649  26249960.0114
  25444256.979     7156695.839 6   5662162.83949  25444260.1794
  26690151.292     -613071.855 4   -426832.29547  26690154.7144
  22740954.526    -9699513.340 7  -7885931.34349  22740955.8624
 95  2  7 19 53 30.0070000  0  7 18 14 28 19 31 22 29
  22815404.808    -9452245.973 8  -7293084.63449  22815406.1204
  24800406.448     7141102.758 6   5647868.85249  24800410.1754
  26008759.214    -1236099.326 5   -926472.97249  26008763.0224
  23699906.589    -8603435.908 7  -6633341.94449  23699908.6044
  26239796.011    -1035689.249 5   -717947.26449  26239800.8624
  25468462.495     7283895.999 6   5761279.80349  25468465.6474
  22748935.050    -9657576.515 7  -7853253.30949  22748936.2104
 95  2  7 19 54  0.0070000  0  8 18 14 28 19 31 22 27 29
  22813080.589    -9464459.301 8  -7302601.50149  22813081.9254
  24825971.331     7275446.311 6   5752552.06849  24825975.0584
  26005189.901    -1254853.760 5   -941086.77649  26005194.0264
  23697863.245    -8614174.140 7  -6641709.38049  23697865.5304
  26229654.339    -1088985.633 5   -759476.71249  26229658.8154
  25492718.628     7411360.663 6   5860602.87549  25492721.5114
  26673032.769      -43438.897 4
  22756993.753    -9615227.216 7  -7820253.86449  22756995.0894
 95  2  7 19 54 30.0070000  0  8 18 14 28 19 31 22 27 29
  22810814.112    -9476369.434 8  -7311882.11449  22810815.4254
  24851577.354     7410008.559 6   5857405.70749  24851581.3394
  26001690.190    -1273246.288 5   -955418.54849  26001693.2964
  23695862.651    -8624685.096 7  -6649899.72249  23695865.3234
  26219530.636    -1142179.227 5   -800926.02549  26219535.9914
  25517022.800     7539083.855 6   5960127.39749  25517026.5384
  26664493.519      -16443.39714
  22765127.956    -9572481.745 7  -7786945.71849  22765129.0694
 95  2  7 19 55  0.0070000  0  8 18 14 28 19 31 22 27 29
  22808614.901    -9487927.360 8  -7320888.27949  22808615.9334
  24877227.948     7544801.949 6   5962439.43849  24877232.2024
  25998263.401    -1291253.022 5   -969449.76049  25998266.9764
  23693910.651    -8634943.554 7  -6657893.30749  23693913.4174
  26209427.972    -1195265.526 5   -842291.79849  26209432.6834
  25541383.175     7667097.124 6   6059877.93549  25541387.0424
  26655972.120      -61225.867 4         1.08858  26655978.5304
  22773339.815    -9529328.199 7  -7753319.58849  22773341.1984
 95  2  7 19 55 30.0070000  0  8 18 14 28 19 31 22 27 29
  22806487.198    -9499107.878 8  -7329600.35649  22806488.2884
  24902924.628     7679840.958 6   6067664.57449  24902928.5654
  25994912.370    -1308865.529 5   -983173.74849  25994916.0034
  23692010.808    -8644930.120 7  -6665675.02949  23692013.4564
  26199345.597    -1248252.319 5   -883579.99849  26199351.2574
  25565802.839     7795420.067 6   6159869.80049  25565806.2144
  26647472.792     -105886.305 4    -34799.14449  26647478.0424
  22781629.206    -9485766.195 7  -7719375.17749  22781630.5894
 95  2  7 19 56  0.0070000  0  8 18 14 28 19 31 22 27 29
  22804434.901    -9509892.748 8  -7338004.13849  22804436.1554
  24928671.058     7815139.036 6   6173091.57249  24928675.3234
  25991635.651    -1326081.950 5   -996589.11849  25991639.2024
  23690164.190    -8654632.014 7  -6673234.93049  23690166.7454
  26189283.565    -1301127.041 5   -924780.90649  26189290.1044
  25590278.464     7924041.369 6   6260094.13849  25590282.3434
  26639001.464     -150411.839 4    -69494.34549  26639005.7654
  22789995.636    -9441800.399 7  -7685116.12649  22789996.9254
 95  2  7 19 56 30.0070000  0  8 18 14 28 19 31 22 27 29
  22802455.558    -9520293.908 8  -7346108.92649  22802456.8474
  24954465.894     7950690.214 6   6278715.78649  24954470.4404
  25988433.604    -1342908.102 5  -1009700.38849  25988437.4484
  23688369.253    -8664063.311 7  -6680583.98049  23688371.8084
  26179242.769    -1353890.552 5   -965895.14949  26179248.5934
  25614808.847     8052948.855 6   6360541.48849  25614812.5034
  26630553.323     -194797.342 4   -104080.37949  26630558.9604
  22798437.487    -9397439.142 7  -7650548.92249  22798438.9054
 95  2  7 19 57  0.0070000  0  8 18 14 28 19 31 22 27 29
  22800548.354    -9530315.861 7  -7353918.22349  22800549.7964
  24980310.292     8086505.040 6   6384545.45449  24980314.6404
  25985306.862    -1359342.920 5  -1022506.72149  25985310.2844
  23686622.558    -8673243.206 7  -6687737.12949  23686625.1594
  26169223.722    -1406544.679 5  -1006924.17949  26169228.9604
  25639391.190     8182130.463 6   6461202.44449  25639394.5774
  26622136.698     -239028.483 5   -138546.18349  26622142.4054
  22806955.972    -9352672.846 7  -7615666.10449  22806957.1674
 95  2  7 19 57 30.0070000  0  8 18 14 28 19 31 22 27 29
  22798709.800    -9539977.685 7  -7361446.90549  22798711.3474
  25006205.292     8222582.554 6   6490579.78849  25006210.4484
  25982251.815    -1375393.822 5  -1035013.89349  25982255.6244
  23684917.714    -8682203.277 7  -6694718.98449  23684920.1984
  26159227.354    -1459071.951 5  -1047854.32749  26159233.0264
  25664020.151     8311556.780 6   6562054.06849  25664023.9254
  26613745.284     -283123.861 5   -172906.14849  26613750.0654
  22815551.511    -9307503.952 7  -7580469.57749  22815552.8584
 95  2  7 19 58  0.0070000  0  8 18 14 28 19 31 22 27 29
  22796936.776    -9549296.065 8  -7368707.97149  22796938.2764
  25032146.175     8358902.171 6   6596802.80949  25032150.7454
  25979269.690    -1391065.796 5  -1047225.78249  25979273.8394
  23683252.354    -8690956.341 7  -6701539.53349  23683254.6404
  26149255.628    -1511470.648 5  -1088684.33649  26149260.8664
  25688691.886     8441207.563 6   6663080.60549  25688695.7534
  26605375.706     -327106.679 5   -207178.41049  26605379.5154
  22824221.503    -9261942.275 7  -7544966.98449  22824223.0734
 95  2  7 19 58 30.0070000  0  8 18 14 28 19 31 22 27 29
  22795226.104    -9558284.495 7  -7375711.93649  22795227.3234
  25058129.495     8495442.970 6   6703198.15249  25058134.2064
  25976358.644    -1406365.728 5  -1059147.77349  25976362.0654
  23681624.933    -8699507.595 7  -6708202.82149  23681627.3354
  26139307.589    -1563753.708 5  -1129424.24249  26139313.4364
  25713405.308     8571075.951 6   6764276.70549  25713408.3544
  26597023.667     -370995.905 5   -241377.75049  26597027.7924
  22832963.862    -9216001.705 7  -7509169.15049  22832965.1514
 95  2  7 19 59  0.0070000  0  8 18 14 28 19 31 22 27 29
  22793581.308    -9566927.777 7  -7382446.94949  22793582.8544
  25084155.675     8632212.844 6   6809772.00349  25084160.4214
  25973519.362    -1421283.101 5  -1070771.65849  25973523.2654
  23680037.714    -8707845.869 7  -6714700.16549  23680040.4094
  26129381.019    -1615911.469 5  -1170066.48149  26129386.9014
  25738161.644     8701169.993 6   6865648.64949  25738164.7024
  26588690.198     -414794.217 5   -275506.25749  26588694.4404
  22841779.987    -9169673.066 7  -7473068.92349  22841781.1014
 95  2  7 19 59 30.0070000  0  8 18 14 28 19 31 22 27 29
  22791996.784    -9575254.622 7  -7388935.38949  22791998.1674
  25110217.503     8769169.290 6   6916491.25049  25110221.9334
  25970750.120    -1435838.351 6  -1082113.36549  25970753.6364
  23678491.558    -8715970.835 7  -6721031.29649  23678494.3474
  26119474.487    -1667972.785 5  -1210633.58949  26119478.7184
  25762956.237     8831468.771 6   6967180.12649  25762958.9214
  26580369.417     -458521.467 5   -309579.37449  26580375.3824
  22850664.995    -9122981.519 7  -7436685.91349  22850666.0854
 95  2  7 20  0  0.0070000  0  8 18 14 28 19 31 22 27 29
  22790477.784    -9583236.150 7  -7395154.75349  22790479.0504
  25136318.839     8906331.300 6   7023370.64649  25136323.5034
  25968055.042    -1450000.699 5  -1093148.91749  25968058.2534
  23676994.917    -8723834.974 7  -6727159.17649  23676997.7884
  26109589.440    -1719920.437 5  -1251112.10149  26109594.5614
  25787796.050     8961999.917 6   7068892.65749  25787799.0034
  26572069.401     -502136.029 4   -343564.70849  26572072.8944
  22859624.503    -9075898.772 7  -7399998.06949  22859625.7334
 95  2  7 20  0 30.0070000  0  8 18 14 28 19 31 22 27 29
  22789023.042    -9590882.821 7  -7401113.20049  22789024.1794
  25162456.511     9043687.368 6   7130401.27849  25162460.8474
  25965432.659    -1463779.476 5  -1103885.57649  25965435.9764
  23675542.019    -8731469.918 7  -6733108.42149  23675546.8354
  26099719.972    -1771777.242 5  -1291519.83549  26099725.1864
  25812676.370     9092748.268 6   7170774.44749  25812679.3354
  26563790.698     -545634.964 4   -377459.91148  26563793.5934
  22868658.456    -9028425.334 7  -7363005.79449  22868659.8394
 95  2  7 20  1  0.0070000  0  8 18 14 28 19 31 22 27 29
  22787635.675    -9598171.878 7  -7406792.96549  22787636.9404
  25188631.581     9181235.598 6   7237581.63249  25188636.4684
  25962885.214    -1477163.692 5  -1114314.77349  25962888.1794
  23674131.128    -8738885.403 7  -6738886.73449  23674133.4254
  26089871.026    -1823535.763 5  -1331850.95249  26089876.6044
  25837599.089     9223717.626 6   7272828.45349  25837602.3584
  26555538.815     -589003.882 4   -411253.82348  26555544.6634
  22877770.573    -8980539.937 7  -7325692.51149  22877771.8514
 95  2  7 20  1 30.0070000  0  8 18 14 28 19 31 22 27 29
  22786321.183    -9605079.688 7  -7412175.66449  22786322.5424
  25214844.425     9318985.838 6   7344919.40349  25214848.9954
  25960417.222    -1490133.302 5  -1124420.89049  25960421.8274
  23672764.628    -8746064.999 7  -6744481.20449  23672767.0194
  26080045.190    -1875171.633 5  -1372086.52449  26080050.3474
  25862566.745     9354925.096 6   7375067.98949  25862570.5424
  26547312.956     -632232.215 5   -444938.20349  26547317.5854
  22886966.003    -8932217.798 7  -7288038.90749  22886967.3514
 95  2  7 20  2  0.0070000  0  8 18 14 28 19 31 22 27 29
  22785078.472    -9611609.045 7  -7417263.46649  22785079.9724
  25241094.558     9456927.074 6   7452405.99849  25241099.5264
  25958024.940    -1502706.193 5  -1134217.87449  25958029.1474
  23671437.565    -8753039.791 7  -6749916.08449  23671439.7804
  26070239.628    -1926699.291 5  -1412237.75349  26070243.8824
  25887575.331     9486344.577 6   7477472.72749  25887578.4604
  26539106.253     -675355.909 5   -478541.02149  26539110.9874
  22896241.792    -8883474.610 7  -7250057.21649  22896242.7884
 95  2  7 20  2 30.0070000  0  8 18 14 28 19 31 22 27 29
  22783907.144    -9617764.501 7  -7422059.91449  22783908.4684
  25267375.479     9595038.172 6   7560024.94349  25267380.2024
  25955707.644    -1514887.273 6  -1143709.55749  25955711.5114
  23670145.456    -8759828.201 7  -6755205.73249  23670148.0694
  26060455.862    -1978111.524 5  -1452299.03249  26060460.9724
  25912624.026     9617976.735 6   7580043.20049  25912627.4014
  26530916.026     -718400.505 5   -512082.20749  26530919.7654
  22905594.784    -8834324.196 7  -7211758.20549  22905595.8514
 95  2  7 20  3  0.0070000  0  8 18 14 28 19 31 22 27 29
  22782805.440    -9623555.668 7  -7426572.50749  22782806.7534
  25293687.472     9733305.845 6   7667765.91749  25293691.5264
  25953460.940    -1526688.277 6  -1152905.08149  25953464.7264
  23668892.636    -8766413.378 7  -6760337.02249  23668895.2964
  26050697.339    -2029396.063 5  -1492260.82349  26050703.2224
  25937712.269     9749815.830 6   7682774.91649  25937715.2454
  26522734.386     -761393.247 4   -545582.99349  26522739.6124
  22915021.425    -8784787.809 7  -7173158.43749  22915022.4794
 95  2  7 20  3 30.0070000  0  8 18 14 28 19 31 22 27 29
  22781771.917    -9628987.669 7  -7430805.22249  22781773.1714
  25320035.019     9871761.264 6   7775653.18549  25320038.7454
  25951292.542    -1538085.143 6  -1161785.67149  25951296.5154
  23667686.378    -8772753.186 7  -6765277.11349  23667688.8974
  26040967.979    -2080521.767 5  -1532098.83349  26040973.3354
  25962843.503     9881879.285 6   7785681.43949  25962846.2454
  26514566.901     -804312.479 5   -579026.54348  26514570.1124
  22924523.808    -8734851.364 7  -7134246.93549  22924524.9684
 95  2  7 20  4  0.0070000  0  8 18 14 28 19 31 22 27 29
  22780800.831    -9634089.461 7  -7434780.64049  22780802.1904
  25346414.315    10010384.524 6   7883671.22649  25346418.2884
  25949197.550    -1549094.236 6  -1170364.10749  25949201.1944
  23666523.737    -8778862.338 7  -6770037.47249  23666526.3394
  26031263.636    -2131515.239 5  -1571833.80649  26031268.2654
  25988012.097    10014143.415 6   7888744.36349  25988014.7924
  26506412.675     -847166.471 5   -612419.23349  26506415.4644
  22934097.479    -8684544.223 7  -7095046.58049  22934098.5464
 95  2  7 20  4 30.0070000  0  8 18 14 28 19 31 22 27 29
  22779894.276    -9638853.825 7  -7438493.12249  22779895.5894
  25372828.909    10149197.293 6   7991836.93249  25372833.0814
  25947181.448    -1559688.018 6  -1178618.92449  25947184.8944
  23665410.276    -8784713.639 7  -6774596.91449  23665413.1124
  26021590.690    -2182348.254 5  -1611443.78649  26021595.5774
  26013223.425    10146628.934 6   7991979.79349  26013227.3624
  26498275.737     -889920.443 4   -645733.98449  26498278.1634
  22943745.011    -8633844.510 7  -7055540.33049  22943746.0654
 95  2  7 20  5  0.0070000  0  8 18 14 28 19 31 22 27 29
  22779053.214    -9643272.982 7  -7441936.61749  22779054.4334
  25399285.292    10288226.381 6   8100171.20049  25399289.4644
  25945247.651    -1569852.651 6  -1186539.35149  25945250.2414
  23664348.644    -8790290.626 7  -6778942.59749  23664351.5614
  26011949.222    -2233017.530 5  -1650926.15649  26011954.0734
  26038477.245    10279336.951 6   8095388.57949  26038480.6084
  26490163.534     -932547.887 4   -678950.15249  26490168.4334
  22953471.620    -8582730.889 7  -7015711.54849  22953472.8274
 95  2  7 20  5 30.0070000  0  8 18 14 28 19 31 22 27 29
  22778278.253    -9647345.848 7  -7445110.26749  22778279.5774
  25425780.269    10427455.929 6   8208661.67349  25425784.2184
  25943393.558    -1579594.302 6  -1194130.15649  25943396.5344
  23663335.409    -8795617.036 7  -6783093.03249  23663337.9874
  26002333.339    -2283546.202 5  -1690298.97949  26002338.8004
  26063771.245    10412260.322 5   8198965.17549  26063774.8194
  26482073.558     -975057.957 3   -712074.84949  26482077.0034
  22963276.269    -8531205.869 7  -6975562.19849  22963277.4404
 95  2  7 20  6  0.0070000  0  8 18 14 28 19 31 22 27 29
  22777574.440    -9651043.909 7  -7447991.87049  22777575.8474
  25452309.503    10566866.562 6   8317293.23649  25452313.9564
  25941619.815    -1588912.462 6  -1201391.00149  25941623.1554
  23662366.323    -8800709.802 7  -6787061.41049  23662368.7264
  25992744.753    -2333935.730 5  -1729563.39649  25992749.1714
  26089107.940    10545406.947 5   8302715.76149  26089111.3044
  26474005.456    -1017459.459 5   -745114.93849  26474008.8544
  22973160.276    -8479267.006 7  -6935090.37149  22973161.4724
 95  2  7 20  6 30.0070000  0  8 18 14 28 19 31 22 27 29
  22776945.089    -9654351.816 7  -7450569.45449  22776946.4954
  25478872.128    10706455.833 6   8426064.01749  25478876.3474
  25939927.753    -1597806.452 6  -1208321.31349  25939930.8234
  23661440.917    -8805573.860 7  -6790851.57549  23661443.1674
  25983183.675    -2384174.548 5  -1768710.37949  25983188.8904
  26114487.526    10678776.396 5   8406639.94649  26114491.3354
  26465956.589    -1059761.646 5   -778077.67049  26465961.2294
  22983124.558    -8426904.131 7  -6894288.15049  22983125.8354
 95  2  7 20  7  0.0070000  0  8 18 14 28 19 31 22 27 29
  22776392.073    -9657258.855 7  -7452834.67849  22776393.3044
  25505465.089    10846203.606 6   8534958.28249  25505470.1754
  25938315.261    -1606279.639 6  -1214923.72049  25938318.4014
  23660558.808    -8810208.491 7  -6794462.96449  23660561.2694
  25973652.729    -2434261.779 5  -1807739.27849  25973657.8044
  26139910.331    10812372.878 5   8510741.04749  26139913.5894
  26457923.394    -1101974.756 5   -810970.96849  26457928.5034
  22993170.104    -8374112.954 7  -6853152.18549  22993171.4404
 95  2  7 20  7 30.0070000  0  8 18 14 28 19 31 22 27 29
  22775918.284    -9659749.356 8  -7454775.32549  22775919.2574
  25532086.620    10986100.939 6   8643969.10249  25532090.6754
  25936784.440    -1614326.762 6  -1221194.13349  25936787.3354
  23659720.456    -8814613.204 7  -6797895.18349  23659722.9524
  25964151.097    -2484189.826 5  -1846644.12949  25964156.4994
  26165374.019    10946186.345 6   8615011.22449  26165377.1594
  26449907.956    -1144097.323 5   -843793.70649  26449912.5154
  23003296.534    -8320899.265 7  -6811686.98349  23003297.9174
 95  2  7 20  8  0.0070000  0  8 18 14 28 19 31 22 27 29
  22775523.097    -9661825.150 8  -7456392.82649  22775524.0814
  25558740.409    11126168.952 6   8753112.91249  25558745.0384
  25935336.472    -1621930.359 6  -1227118.95649  25935340.3514
  23658928.073    -8818776.565 7  -6801139.34449  23658930.6634
  25954685.675    -2533931.221 5  -1885403.52449  25954690.3744
  26190876.815    11080199.786 6   8719437.23349  26190879.5224
  26441914.706    -1186101.345 5   -876524.10749  26441918.6554
  23013505.229    -8267252.470 7  -6769884.29649  23013506.6474
 95  2  7 20  8 30.0080000  0  8 18 14 28 19 31 22 27 29
  22775202.594    -9663509.487 8  -7457705.28749  22775203.7424
  25585429.062    11266416.825 6   8862396.86649  25585433.8794
  25933973.164    -1629092.709 6  -1232699.94849  25933977.2664
  23658182.031    -8822698.058 7  -6804195.03649  23658184.6214
  25945256.992    -2583481.719 5  -1924014.19449  25945261.4574
  26216413.297    11214396.776 5   8824006.26449  26216416.6134
  26433943.359    -1227985.332 5   -909160.96149  26433946.3014
  23023795.531    -8213178.191 7  -6727748.50249  23023796.8674
 95  2  7 20  9  0.0080000  0  8 18 14 28 19 31 22 27 29
  22774954.406    -9664812.566 8  -7458720.66949  22774955.5084
  25612150.117    11406838.669 5   8971816.37349  25612155.5314
  25932694.977    -1635812.778 6  -1237936.30349  25932698.0234
  23657480.250    -8826385.984 7  -6807068.72549  23657482.4184
  25935865.437    -2632833.225 5  -1962469.82149  25935870.8984
  26241981.914    11348761.808 5   8928706.23449  26241985.3014
  26425998.547    -1269740.624 5   -941697.51549  26426001.7814
  23034163.344    -8158694.353 7  -6685293.57149  23034164.6094
 95  2  7 20  9 30.0080000  0  8 18 14 28 19 31 22 27 29
  22774777.523    -9665742.164 8  -7459445.02549  22774778.7194
  25638906.094    11547438.814 5   9081374.80949  25638911.2734
  25931499.937    -1642092.670 6  -1242829.66949  25931503.5944
  23656818.570    -8829863.650 7  -6809778.57949  23656820.9264
  25926510.773    -2681992.128 5  -2000775.36349  25926514.7464
  26267578.016    11483270.204 5   9033517.92549  26267581.7774
  26418075.547    -1311373.287 5   -974138.53149  26418078.6054
  23044605.750    -8103817.888 7  -6642532.69749  23044607.0164
 95  2  7 20 10  0.0080000  0  8 18 14 28 19 31 22 27 29
  22774665.680    -9666329.703 8  -7459902.83949  22774666.8054
  25665689.453    11688187.190 5   9191048.76949  25665694.8914
  25930384.695    -1647953.593 6  -1247396.57949  25930387.8014
  23656191.500    -8833158.057 7  -6812345.63149  23656194.0554
  25917188.719    -2730975.780 5  -2038944.35949  25917192.9734
  26293200.000    11617913.883 5   9138435.01849  26293203.8324
  26410172.437    -1352911.545 5  -1006505.91849  26410176.2464
  23055119.281    -8048569.287 7  -6599481.84249  23055120.5824
 95  2  7 20 10 30.0080000  0  8 18 14 28 19 31 22 27 29
  22774623.766    -9666549.550 7  -7460074.14449  22774624.8674
  25692500.609    11829079.093 5   9300834.54549  25692505.5434
  25929349.258    -1653392.026 6  -1251634.26349  25929353.2304
  23655599.328    -8836269.864 7  -6814770.39449  23655601.8364
  25907901.844    -2779782.477 5  -2076975.42749  25907906.2504
  26318854.406    11752725.663 5   9243483.10149  26318857.6414
  26402283.383    -1394364.274 5  -1038806.71349  26402287.8834
  23065704.531    -7992942.823 7  -6556136.55149  23065705.7734
 95  2  7 20 11  0.0080000  0  8 18 14 28 19 31 22 27 29
  22774656.695    -9666378.050 7  -7459940.50149  22774657.7504
  25719336.195    11970100.645 5   9410721.35749  25719341.2234
  25928396.453    -1658401.041 6  -1255537.35849  25928399.8524
  23655041.125    -8839203.384 7  -6817056.22549  23655043.5984
  25898648.516    -2828409.207 5  -2114866.29749  25898651.9494
  26344540.477    11887706.327 5   9348662.78149  26344543.5354
  26394411.414    -1435729.844 5  -1071039.57449  26394414.6724
  23076363.109    -7936930.373 7  -6512490.49449  23076364.4224
 95  2  7 20 11 30.0080000  0  8 18 14 28 19 31 22 27 29
  22774766.039    -9665802.078 7  -7459491.68849  22774767.3054
  25746194.969    12111244.272 6   9520703.28949  25746200.0434
  25927526.352    -1662971.544 6  -1259098.76249  25927529.9264
  23654520.312    -8841939.738 7  -6819188.42549  23654522.7264
  25889429.148    -2876853.764 5  -2152615.22049  25889433.6844
  26370259.586    12022859.804 5   9453977.11949  26370262.9374
  26386557.203    -1477000.528 5  -1103198.51449  26386561.2234
  23087100.203    -7880506.607 7  -6468523.93349  23087101.6684
 95  2  7 20 12  0.0080000  0  8 18 14 28 19 31 22 27 29
  22774955.695    -9664806.031 8  -7458715.53849  22774956.9374
  25773081.523    12252536.672 5   9630801.14949  25773086.9144
  25926744.016    -1667084.600 6  -1262303.69649  25926746.9574
  23654042.633    -8844449.537 7  -6821144.08849  23654045.0354
  25880248.484    -2925097.422 5  -2190207.57749  25880252.9844
  26396018.117    12158223.893 5   9559455.56749  26396021.6334
  26378725.859    -1518158.687 5  -1135269.76849  26378730.3124
  23097922.484    -7823636.111 7  -6424209.26949  23097923.9614
 95  2  7 20 12 30.0080000  0  8 18 14 28 19 31 22 27 29
  22775224.101    -9663395.918 8  -7457616.73749  22775225.3204
  25799995.328    12393967.209 5   9741006.65649  25800000.4024
  25926046.445    -1670749.701 6  -1265159.57849  25926049.0704
  23653608.859    -8846730.055 7  -6822921.09549  23653611.2274
  25871105.703    -2973144.431 5  -2227646.70549  25871109.8054
  26421811.500    12293770.185 5   9665076.00149  26421814.9104
  26370914.023    -1559210.475 5  -1167258.13049  26370918.8984
  23108828.844    -7766323.693 7  -6379550.25149  23108830.0984
 95  2  7 20 13  0.0080000  0  8 18 14 28 19 31 22 27 29
  22775570.258    -9661576.271 7  -7456198.81649  22775571.4774
  25826935.953    12535537.563 6   9851321.10249  25826941.3794
  25925435.953    -1673957.522 6  -1267659.15149  25925438.3794
  23653222.773    -8848758.588 7  -6824501.74649  23653225.1414
  25862000.734    -3020989.648 5  -2264928.60449  25862004.6134
  26447636.914    12429481.807 5   9770825.27049  26447639.9964
  26363124.727    -1600140.716 5  -1199151.79549  26363129.1094
  23119821.281    -7708557.527 7  -6334537.67049  23119822.5594
 95  2  7 20 13 30.0080000  0  8 18 14 28 19 31 22 27 29
  22775991.141    -9659365.916 7  -7454476.45149  22775992.3244
  25853901.680    12677243.360 5   9961741.07649  25853906.9414
  25924910.398    -1676718.464 6  -1269810.51949  25924913.4924
  23652883.898    -8850539.291 7  -6825889.28549  23652886.1014
  25852931.633    -3068648.156 5  -2302064.98449  25852936.9534
  26473492.953    12565357.631 5   9876702.48249  26473496.3404
  26355358.469    -1640954.647 5  -1230954.77649  26355362.2894
  23130896.695    -7650354.949 7  -6289185.02349  23130898.1484
 95  2  7 20 14  0.0080000  0  8 18 14 28 19 31 22 27 29
  22776483.398    -9656777.292 7  -7452459.32549  22776484.7464
  25880888.633    12819062.580 5  10072249.44549  25880893.2624
  25924467.500    -1679048.903 6  -1271626.40849  25924470.5004
  23652585.203    -8852109.060 7  -6827112.45849  23652587.6054
  25843897.531    -3116124.687 5  -2339059.57349  25843901.9144
  26499376.195    12701375.335 5   9982690.23949  26499379.8524
  26347609.906    -1681668.949 5  -1262680.18649  26347615.3324
  23142047.625    -7591758.221 7  -6243525.24849  23142049.1374
 95  2  7 20 14 30.0080000  0  8 18 14 28 19 31 22 27 29
  22777052.969    -9653784.549 7  -7450127.30249  22777054.3754
  25907897.836    12960991.554 5  10182843.33149  25907902.2894
  25924110.648    -1680922.931 6  -1273086.67349  25924113.6844
  23652329.492    -8853451.980 7  -6828158.86549  23652332.0004
  25834902.305    -3163392.629 5  -2375891.64349  25834906.0554
  26525287.602    12837540.266 5  10088792.73849  26525291.4344
  26339886.656    -1722253.638 5  -1294304.58749  26339890.8634
  23153274.539    -7532759.616 7  -6197552.32549  23153276.1684
 95  2  7 20 15  0.0080000  0  8 18 14 28 19 31 22 27 29
  22777695.266    -9650408.603 7  -7447496.68149  22777696.5554
  25934922.953    13103010.500 5  10293507.32249  25934927.5354
  25923837.516    -1682358.224 6  -1274205.07249  25923840.7034
  23652108.625    -8854613.100 7  -6829063.61349  23652111.2384
  25825941.773    -3210480.535 5  -2412583.40849  25825945.8404
  26551223.414    12973832.339 5  10194994.29849  26551227.2344
  26332185.273    -1762728.230 5  -1325843.16749  26332189.8094
  23164573.726    -7473382.557 7  -6151284.49949  23164575.2734
 95  2  7 20 15 30.0080000  0  8 18 14 28 19 31 22 27 29
  22778411.273    -9646647.010 7  -7444565.55249  22778412.4694
  25961965.266    13245119.117 5  10404241.18349  25961969.9534
  25923647.891    -1683351.650 6  -1274979.04049  25923650.0354
  23651919.773    -8855604.170 7  -6829835.85249  23651922.2934
  25817016.734    -3257380.958 5  -2449129.08549  25817020.9184
  26577181.773    13110244.965 5  10301289.80049  26577185.0084
  26324501.664    -1803103.217 5  -1357304.14849  26324506.5744
  23175944.250    -7413630.644 7  -6104724.58849  23175945.8444
 95  2  7 20 16  0.0080000  0  8 18 14 28 19 31 22 27 29
  22779193.078    -9642538.568 7  -7441364.15449  22779194.2854
  25989019.125    13387289.742 5  10515023.36249  25989024.6334
  25923538.156    -1683928.267 6  -1275428.41449  25923541.2854
  23651758.211    -8856455.070 7  -6830498.86949  23651760.7194
  25808123.351    -3304115.987 5  -2485545.91449  25808127.6874
  26603154.781    13246732.294 5  10407643.50149  26603158.1094
  26316830.437    -1843420.851 5  -1388720.44849  26316835.3244
  23187381.516    -7353526.658 7  -6057890.33349  23187383.0044
 95  2  7 20 16 30.0080000  0  8 18 14 28 19 31 22 27 29
  22780040.852    -9638082.282 7  -7437891.70649  22780042.0594
  26016084.977    13529521.414 5  10625853.10549  26016090.1914
  25923507.937    -1684086.704 6  -1275551.87249  25923511.3834
  23651625.609    -8857149.948 7  -6831040.31149  23651627.9064
  25799259.586    -3350694.514 5  -2521840.76749  25799263.4764
  26629140.398    13383289.126 5  10514051.38149  26629144.9454
  26309164.734    -1883701.083 5  -1420107.60349  26309169.5514
  23198890.078    -7293048.333 7  -6010764.38349  23198891.5084
 95  2  7 20 17  0.0080000  0  8 18 14 28 19 31 22 27 29
  22780954.719    -9633279.385 7  -7434149.17849  22780956.0314
  26043163.406    13671816.149 5  10736731.99449  26043167.4844
  25923555.523    -1683837.239 6  -1275357.46149  25923558.7584
  23651522.578    -8857691.189 7  -6831462.04249  23651524.8984
  25790426.812    -3397111.256 5  -2558009.54849  25790430.7264
  26655138.141    13519907.153 5  10620506.91749  26655143.0274
  26301503.000    -1923961.474 5  -1451479.32049  26301507.1134
  23210469.398    -7232199.158 7  -5963349.47149  23210470.9574
 95  2  7 20 17 30.0080000  0  8 18 14 28 19 31 22 27 29
  22781936.930    -9628118.068 7  -7430127.36149  22781938.3364
  26070254.281    13814177.600 5  10847662.87449  26070258.7344
  25923683.383    -1683165.476 6  -1274833.99649  25923686.4774
  23651454.117    -8858051.587 7  -6831742.85649  23651456.4614
  25781629.023    -3443341.122 5  -2594032.73949  25781633.5234
  26681152.586    13656613.175 5  10727031.04049  26681156.8634
  26293846.937    -1964196.610 5  -1482831.31549  26293849.7624
  23222120.539    -7170972.031 7  -5915640.04149  23222121.8634
 95  2  7 20 18  0.0080000  0  8 18 14 28 19 31 22 27 29
  22782987.562    -9622598.386 7  -7425826.30249  22782988.8054
  26097354.242    13956590.310 5  10958633.67949  26097359.0594
  25923890.180    -1682079.107 6  -1273987.44649  25923892.9804
  23651419.539    -8858234.091 7  -6831885.04549  23651421.5904
  25772866.992    -3489387.471 5  -2629912.92549  25772871.5864
  26707185.609    13793421.114 5  10833634.56649  26707189.2664
  26286195.594    -2004405.580 5  -1514162.95049  26286199.4494
  23233842.680    -7109371.637 7  -5867639.75849  23233843.8984
 95  2  7 20 18 30.0080000  0  8 18 14 28 19 31 22 27 29
  22784110.562    -9616696.920 7  -7421227.74549  22784111.7344
  26124462.969    14099049.500 5  11069640.72449  26124467.2114
  25924176.703    -1680574.723 6  -1272815.16849  25924180.1024
  23651419.601    -8858232.409 7  -6831883.71149  23651421.9224
  25764141.867    -3535239.502 6  -2665641.69649  25764145.3244
  26733240.625    13930341.075 5  10940325.39349  26733245.3834
  26278552.414    -2044568.410 5  -1545458.63549  26278555.8364
  23245636.961    -7047393.101 7  -5819344.81949  23245638.2274
 95  2  7 20 19  0.0080000  0  8 18 14 28 19 31 22 27 29
  22785302.344    -9610433.628 7  -7416347.24649  22785303.6444
  26151580.102    14241547.928 5  11180678.30549  26151585.4104
  25924541.039    -1678661.486 6  -1271324.32349  25924543.8524
  23651452.648    -8858058.949 7  -6831748.52749  23651455.1334
  25755452.258    -3580900.758 5  -2701221.83349  25755455.8674
  26759317.601    14067373.314 5  11047103.70949  26759321.5744
  26270920.586    -2084676.055 5  -1576711.29149  26270924.3944
  23257498.789    -6985058.644 7  -5770772.54049  23257499.9964
 95  2  7 20 19 30.0080000  0  8 18 14 28 19 31 22 27 29
  22786563.469    -9603805.937 7  -7411182.80049  22786564.7234
  26178703.320    14384082.425 5  11291744.00649  26178707.9144
  25924984.422    -1676329.166 6  -1269506.89349  25924987.7154
  23651519.125    -8857709.108 7  -6831475.90949  23651521.3404
  25746798.859    -3626373.706 5  -2736655.21349  25746804.3674
  26785416.820    14204526.011 5  11153975.88549  26785421.2384
  26263299.242    -2124726.322 5  -1607919.25449  26263303.3914
  23269430.586    -6922357.220 7  -5721914.30749  23269432.0274
 95  2  7 20 20  0.0080000  0  8 18 14 28 19 31 22 27 29
  22787894.992    -9596809.596 7  -7405731.09649  22787896.2934
  26205832.055    14526644.411 5  11402831.13249  26205837.4104
  25925506.086    -1673586.632 6  -1267369.82849  25925509.5084
  23651617.992    -8857188.684 7  -6831070.36349  23651620.2894
  25738181.211    -3671664.855 6  -2771946.92849  25738185.1134
  26811533.437    14341772.266 5  11260920.98349  26811537.7504
  26255685.570    -2164733.529 5  -1639093.66049  26255689.5084
  23281432.602    -6859285.807 7  -5672767.77249  23281433.9024
 95  2  7 20 20 30.0080000  0  8 18 14 28 19 31 22 27 29
  22789293.172    -9589460.193 7  -7400004.28449  22789294.3204
  26232965.914    14669231.164 5  11513937.55049  26232971.2584
  25926105.109    -1670438.378 6  -1264916.61049  25926108.7424
  23651748.148    -8856505.106 7  -6830537.69049  23651750.3874
  25729596.344    -3716775.742 6  -2807098.19749  25729600.3164
  26837664.305    14479086.153 5  11367918.75549  26837667.8204
  26248078.523    -2204710.105 5  -1670244.19549  26248082.3204
  23293502.961    -6795855.109 7  -5623341.28149  23293504.3324
 95  2  7 20 21  0.0080000  0  8 18 14 28 19 31 22 27 29
  22790758.312    -9581761.025 7  -7394004.92149  22790759.7194
  26260105.578    14811850.966 5  11625069.72749  26260111.2264
  25926783.656    -1666873.087 6  -1262138.44149  25926787.1484
  23651909.109    -8855660.073 7  -6829879.20949  23651911.4304
  25721047.336    -3761698.617 5  -2842102.96849  25721051.0514
  26863805.633    14616464.865 5  11474967.07249  26863808.9734
  26240475.742    -2244664.478 5  -1701377.42849  26240480.3834
  23305644.289    -6732051.379 7  -5573624.10649  23305645.7424
 95  2  7 20 21 30.0080000  0  8 18 14 28 19 31 22 27 29
  22792293.469    -9573694.872 8  -7387719.60149  22792294.7234
  26287252.734    14954509.101 5  11736231.79849  26287257.9614
  25927543.617    -1662880.041 6  -1259026.94749  25927546.2664
  23652099.437    -8854657.902 7  -6829098.27849  23652101.8634
  25712536.320    -3806424.764 6  -2876954.44249  25712540.5864
  26889959.227    14753900.541 5  11582059.75649  26889962.5664
  26232877.953    -2284590.120 5  -1732488.28749  26232882.2194
  23317860.125    -6667858.268 7  -5523603.52249  23317861.6374
 95  2  7 20 22  0.0080000  0  8 18 14 28 19 31 22 27 29
  22793896.398    -9565272.790 8  -7381156.93549  22793897.4064
  26314405.562    15097198.926 5  11847418.53949  26314410.3554
  25928383.414    -1658466.379 6  -1255587.70849  25928385.9804
  23652317.523    -8853512.801 7  -6828205.97449  23652319.7384
  25704062.687    -3850955.153 6  -2911653.38549  25704066.0394
  26916120.062    14891376.063 5  11689183.50749  26916123.9064
  26225286.086    -2324486.596 5  -1763576.37949  26225289.7544
  23330145.859    -6603296.037 7  -5473295.30649  23330147.3944
 95  2  7 20 22 30.0080000  0  8 18 14 28 19 31 22 27 29
  22795567.734    -9556489.212 8  -7374312.57849  22795568.6954
  26341565.742    15239927.047 5  11958635.11749  26341570.9804
  25929306.836    -1653612.435 6  -1251805.37549  25929309.7304
  23652562.164    -8852227.668 7  -6827204.55649  23652564.4614
  25695628.867    -3895274.171 6  -2946187.59949  25695632.5004
  26942290.633    15028902.626 5  11796347.02749  26942294.0784
  26217701.617    -2364339.564 5  -1794630.60449  26217705.4374
  23342503.531    -6538355.105 7  -5422691.99849  23342505.1374
 95  2  7 20 23  0.0080000  0  8 18 14 28 19 31 22 27 29
  22797310.859    -9547328.967 8  -7367174.71749  22797311.7974
  26368731.969    15382685.404 5  12069875.27549  26368736.4104
  25930316.195    -1648307.799 6  -1247671.86049  25930318.9964
  23652834.094    -8850798.528 7  -6826090.92649  23652836.1914
  25687237.742    -3939368.779 6  -2980546.99349  25687242.0314
  26968472.930    15166491.779 5  11903559.29049  26968477.1484
  26210127.969    -2404142.770 5  -1825646.02249  26210132.1414
  23354934.617    -6473029.703 7  -5371789.10349  23354936.1874
 95  2  7 20 23 30.0080000  0  8 18 14 28 19 31 22 27 29
  22799128.078    -9537778.718 8  -7359732.95849  22799129.2504
  26395900.930    15525458.997 5  12181127.29849  26395905.9804
  25931412.297    -1642550.315 6  -1243185.48149  25931414.9224
  23653135.750    -8849215.217 7  -6824857.16149  23653137.6954
  25678890.500    -3983232.932 6  -3014726.78949  25678894.8714
  26994668.367    15304147.453 5  12010823.42449  26994671.7894
  26202562.773    -2443896.220 5  -1856622.66949  26202567.0984
  23367436.430    -6407334.115 7  -5320597.74749  23367437.7894
 95  2  7 20 24  0.0080000  0  8 18 14 28 19 31 22 27 29
  22801019.445    -9527839.295 8  -7351987.95049  22801020.7234
  26423069.008    15668228.802 5  12292376.35349  26423074.4694
  25932592.797    -1636345.726 6  -1238350.69249  25932595.9964
  23653466.812    -8847473.524 7  -6823499.98749  23653468.9454
  25670588.250    -4026861.501 6  -3048723.02549  25670592.7734
  27020873.687    15441859.757 5  12118131.69549  27020876.8284
  26195005.211    -2483609.259 5  -1887567.82049  26195009.6524
  23380005.984    -6341278.658 7  -5269125.97149  23380007.3444
 95  2  7 20 24 30.0080000  0  8 18 14 28 19 31 22 27 29
  22802986.180    -9517503.353 8  -7343933.96249  22802987.6334
  26450237.883    15811000.894 5  12403627.19349  26450243.0744
  25933859.773    -1629685.578 6  -1233160.92349  25933862.4694
  23653831.672    -8845556.660 7  -6822006.31049  23653833.8634
  25662333.328    -4070243.427 6  -3082527.05949  25662337.1604
  27047090.875    15579631.195 5  12225486.03249  27047094.9654
  26187459.336    -2523263.220 5  -1918466.95249  26187463.6484
  23392646.687    -6274851.201 7  -5217364.32749  23392648.2114
 95  2  7 20 25  0.0080000  0  8 18 14 28 19 31 22 27 29
  22805033.266    -9506746.801 8  -7335552.22649  22805034.5194
  26477410.555    15953792.009 5  12514892.86449  26477415.3714
  25935217.836    -1622552.469 6  -1227602.62549  25935220.6604
  23654235.898    -8843432.389 7  -6820351.01549  23654238.0784
  25654128.820    -4113360.668 6  -3116124.85449  25654132.5124
  27073323.883    15717486.070 5  12332905.38649  27073327.7974
  26179932.750    -2562817.236 5  -1949288.19849  26179936.3944
  23405359.719    -6208045.369 7  -5165307.84349  23405361.2194
 95  2  7 20 25 30.0080000  0  8 18 14 28 19 31 22 27 29
  22807160.656    -9495567.562 8  -7326841.12149  22807161.7934
  26504588.187    16096611.467 5  12626180.61349  26504593.6844
  25936664.023    -1614951.444 6  -1221679.70349  25936666.8364
  23654679.172    -8841101.777 7  -6818534.93249  23654681.2234
  25645971.328    -4156226.072 6  -3149526.41549  25645974.9024
  27099570.148    15855413.237 5  12440381.06749  27099574.9304
  26172427.102    -2602258.280 5  -1980021.40649  26172430.5594
  23418144.117    -6140862.004 7  -5112957.17249  23418145.4414
 95  2  7 20 26  0.0080000  0  8 18 14 28 19 31 22 27 29
  22809366.250    -9483976.480 8  -7317809.10849  22809367.4574
  26531773.570    16239472.518 5  12737500.75549  26531779.2544
  25938199.742    -1606878.783 6  -1215389.28349  25938202.7544
  23655161.312    -8838570.149 7  -6816562.22549  23655163.3874
  25637862.984    -4198837.671 6  -3182730.19549  25637866.9344
  27125829.523    15993402.904 5  12547905.45549  27125833.4964
  26164946.508    -2641571.742 5  -2010655.21149  26164949.8124
  23431002.391    -6073291.530 7  -5060304.86949  23431003.8324
 95  2  7 20 26 30.0080000  0  8 18 14 28 19 31 22 27 29
  22811648.133    -9471984.267 8  -7308464.51449  22811649.5164
  26558964.703    16382365.277 4  12848845.59149  26558970.6914
  25939825.141    -1598338.782 6  -1208734.70849  25939827.7074
  23655678.219    -8835853.036 7  -6814444.97149  23655680.1764
  25629799.414    -4241209.632 6  -3215747.23349  25629803.1994
  27152099.187    16131452.230 5  12655476.33249  27152103.5944
  26157484.805    -2680779.933 5  -2041206.98849  26157488.3444
  23443933.133    -6005341.109 7  -5007356.49049  23443934.2814
 95  2  7 20 27  0.0080000  0  8 18 14 28 19 31 22 27 29
  22814012.672    -9459560.436 8  -7298783.60749  22814014.1254
  26586165.445    16525301.863 5  12960224.60149  26586170.6254
  25941542.273    -1589316.405 6  -1201704.25449  25941544.4884
  23656231.289    -8832946.228 7  -6812179.90649  23656233.4104
  25621782.719    -4283336.905 6  -3248573.63149  25621786.6914
  27178383.383    16269575.225 5  12763104.60749  27178388.0004
  26150042.344    -2719893.192 5  -2071684.77649  26150045.9654
  23456939.164    -5936991.826 7  -4954097.31849  23456940.4064
 95  2  7 20 27 30.0080000  0  8 18 14 28 19 31 22 27 29
  22816456.852    -9446714.725 8  -7288773.96049  22816458.1874
  26613373.055    16668280.277 5  13071636.18149  26613378.4224
  25943350.891    -1579811.582 6  -1194297.85749  25943353.8554
  23656819.070    -8829858.472 7  -6809773.83549  23656820.8754
  25613813.312    -4325216.596 6  -3281207.08149  25613815.7034
  27204678.531    16407754.994 5  12870777.11949  27204680.9694
  26142612.625    -2758934.338 5  -2102106.38649  26142616.1054
  23470024.703    -5868227.289 7  -4900514.57349  23470025.8634
 95  2  7 20 28  0.0080000  0  8 18 14 28 19 31 22 27 29
  22818983.172    -9433439.795 8  -7278429.85749  22818984.5664
  26640591.289    16811307.421 5  13183085.76749  26640596.5984
  25945256.047    -1569800.426 6  -1186496.91649  25945258.8944
  23657444.258    -8826572.108 7  -6807213.00649  23657446.1684
  25605897.953    -4366813.366 6  -3313620.05849  25605900.7894
  27230986.211    16546009.868 5  12978508.14149  27230990.0904
  26135197.867    -2797898.798 5  -2132468.24049  26135201.5594
  23483193.672    -5799024.780 7  -4846590.54949  23483194.7974
 95  2  7 20 28 30.0080000  0  8 18 14 28 19 31 22 27 29
  22821587.047    -9419756.905 8  -7267767.86149  22821588.4304
  26667810.234    16954344.140 5  13294542.81249  26667816.1294
  25947251.617    -1559312.430 6  -1178324.42049  25947254.7584
  23658101.320    -8823115.974 7  -6804519.88949  23658103.6414
  25598029.328    -4408160.657 6  -3345838.66549  25598032.7504
  27257305.148    16684316.135 5  13086279.23249  27257308.4654
  26127790.984    -2836821.885 5  -2162797.86049  26127795.3204
  23496440.141    -5729414.108 7  -4792348.46749  23496441.2194
 95  2  7 20 29  0.0080000  0  8 18 14 28 19 31 22 27 29
  22824267.492    -9405669.820 8  -7256790.91149  22824268.7814
  26695031.406    17097396.098 5  13406011.71949  26695036.2464
  25949338.812    -1548342.304 6  -1169776.23549  25949342.1524
  23658794.094    -8819476.779 7  -6801684.12949  23658796.5554
  25590209.437    -4449253.784 6  -3377859.20049  25590213.3874
  27283632.594    16822665.361 5  13194083.79549  27283636.5314
  26120396.391    -2875682.066 5  -2193078.46549  26120399.9774
  23509764.758    -5659392.478 7  -4737786.17249  23509765.9534
 95  2  7 20 29 30.0080000  0  8 18 14 28 19 31 22 27 29
  22827024.344    -9391182.742 8  -7245502.27749  22827025.7154
  26722258.359    17240470.659 5  13517498.21249  26722264.2194
  25951520.336    -1536877.632 6  -1160842.68849  25951523.3244
  23659524.523    -8815639.219 7  -6798693.79749  23659526.7154
  25582443.695    -4490060.913 6  -3409656.86449  25582448.1374
  27309969.180    16961067.398 5  13301929.51749  27309971.8164
  26113015.008    -2914470.868 5  -2223303.42649  26113019.3794
  23523171.555    -5588939.640 7  -4682887.86549  23523172.7274
 95  2  7 20 30  0.0080000  0  8 18 14 28 19 31 22 27 29
  22829858.875    -9376285.501 8  -7233894.03349  22829860.4694
  26749489.422    17383570.391 5  13629004.32349  26749494.5664
  25953796.984    -1524917.771 6  -1151523.29249  25953800.0554
  23660293.500    -8811597.807 7  -6795544.62249  23660295.5744
  25574734.031    -4530578.184 6  -3441228.70449  25574737.5704
  27336316.805    17099526.472 5  13409819.65649  27336320.0864
  26105645.039    -2953197.629 5  -2253480.06549  26105648.4024
  23536658.773    -5518064.052 7  -4627660.14549  23536660.0864
 95  2  7 20 30 30.0080000  0  8 18 14 28 19 31 22 27 29
  22832775.273    -9360960.085 8  -7221952.14649  22832776.8674
  26776727.055    17526701.376 5  13740534.82948  26776732.1874
  25956167.562    -1512458.028 6  -1141814.36249  25956170.0944
  23661102.852    -8807346.491 7  -6792231.88849  23661104.6914
  25567080.773    -4570794.330 6  -3472565.86049  25567085.2504
  27362679.070    17238054.918 5  13517763.86349  27362683.2304
  26098288.297    -2991859.717 5  -2283606.30349  26098293.0194
  23550227.273    -5446760.033 7  -4572098.58649  23550228.7154
 95  2  7 20 31  0.0080000  0  8 18 14 28 19 31 22 27 29
  22835774.727    -9345197.909 8  -7209669.92949  22835776.2854
  26803970.445    17669869.930 5  13852094.58248  26803975.9414
  25958634.922    -1499493.588 6  -1131712.18149  25958637.9344
  23661953.133    -8802877.752 7  -6788749.73549  23661954.8794
  25559492.648    -4610672.148 6  -3503639.40049  25559495.8014
  27389054.117    17376659.104 4  13625767.11249  27389058.1484
  26090943.539    -3030452.242 5  -2313678.33649  26090947.4064
  23563877.656    -5375027.658 7  -4516203.24349  23563879.0624
 95  2  7 20 31 30.0080000  0  8 18 14 28 19 31 22 27 29
  22838861.445    -9328978.394 8  -7197031.34349  22838862.8164
  26831223.008    17813080.052 5  13963686.70748  26831228.7504
  25961199.414    -1486014.038 6  -1121208.59949  25961202.1914
  23662845.156    -8798189.533 7  -6785096.55549  23662846.8094
  25551974.820    -4650177.061 6  -3534422.37849  25551978.1254
  27415447.430    17515361.893 4  13733847.15849  27415451.7074
  26083616.742    -3068958.597 5  -2343683.22349  26083620.3524
  23577611.273    -5302858.234 7  -4459967.34249  23577612.7734
 95  2  7 20 32  0.0080000  0  8 18 14 28 19 31 22 27 29
  22842038.852    -9312281.531 8  -7184020.79749  22842040.0594
  26858479.047    17956311.123 4  14075295.15648  26858484.9534
  25963862.906    -1472017.245 6  -1110301.96549  25963865.1334
  23663778.016    -8793286.661 7  -6781276.12049  23663779.8324
  25544527.601    -4689313.965 6  -3564918.57649  25544530.4024
  27441862.820    17654167.703 5  13842007.51049  27441866.7234
  26076311.016    -3107351.379 5  -2373599.61249  26076314.2974
  23591422.812    -5230276.586 7  -4403410.22549  23591424.2424
 95  2  7 20 32 30.0080000  0  8 18 14 28 19 31 22 27 29
  22845305.937    -9295112.012 8  -7170641.94349  22845307.1684
  26885733.992    18099541.480 4  14186903.06048  26885740.2504
  25966622.617    -1457512.904 6  -1098999.85949  25966625.5234
  23664747.000    -8788195.626 7  -6777309.06649  23664748.9104
  25537147.867    -4728094.082 6  -3595136.77249  25537150.5984
  27468293.070       50935.56715
  26069028.297    -3145620.281 5  -2403419.48849  26069031.8834
  23605310.758    -5157295.255 7  -4346541.67149  23605312.1524
 95  2  7 20 33  0.0090000  0  8 18 14 28 19 31 22 27 29
  22848666.466    -9277452.825 8  -7156881.53549  22848667.7674
  26912993.739    18242789.730 4  14298524.91049  26912999.9034
  25969482.614    -1442487.118 6  -1087291.42949  25969485.7204
  23665751.310    -8782917.832 7  -6773196.48649  23665752.9744
  25529834.067    -4766525.550 6  -3625083.28749  25529838.0174
  27494739.520       50962.15715
  26061771.583    -3183750.499 5  -2433131.29149  26061775.3334
  23619276.895    -5083902.719 7  -4289352.69549  23619278.3604
 95  2  7 20 33 30.0090000  0  8 18 14 28 19 31 22 27 29
  22852120.997    -9259299.747 8  -7142736.27649  22852122.3214
  26940253.278    18386039.928 4  14410148.26149  26940258.4704
  25972440.599    -1426941.990 6  -1075178.33549  25972442.7674
  23666789.685    -8777460.400 7  -6768943.93049  23666791.3844
  25522579.802    -4804647.644 6  -3654788.74749  25522583.5284
  27521197.075      190000.193 4      3608.25059  27521199.4074
  26054542.028    -3221746.668 5  -2462738.61349  26054546.5994
  23633318.935    -5010111.498 7  -4231853.05849  23633320.5634
 95  2  7 20 34  0.0090000  0  7 18 14 28 19 31 27 29
  22855667.692    -9240660.814 8  -7128212.42449  22855669.1224
  26967513.731    18529293.663 4  14521774.41649  26967520.5284
  25975497.099    -1410878.826 6  -1062661.54649  25975499.9464
  23667862.560    -8771823.113 7  -6764551.22449  23667864.2354
  25515379.333    -4842487.823 6  -3684274.52849  25515382.2984
  26047332.974    -3259627.835 5  -2492256.34949  26047336.8884
  23647437.747    -4935916.562 7  -4174038.83649  23647439.0134
 95  2  7 20 34 30.0090000  0  7 18 14 28 19 31 27 29
  22859303.528    -9221554.768 8  -7113324.58349  22859304.8884
  26994779.825    18672570.946 4  14633418.83749  26994784.8764
  25978652.903    -1394295.497 6  -1049739.44949  25978655.3994
  23668969.544    -8766005.519 7  -6760018.02049  23668971.1384
  25508232.286    -4880043.204 6  -3713538.39649  25508235.5794
  26040142.435    -3297416.883 5  -2521702.28749  26040146.3374
  23661638.536    -4861292.155 7  -4115889.95949  23661639.6494
 95  2  7 20 35  0.0090000  0  7 18 14 28 19 31 27 29
  22863028.466    -9201980.689 8  -7098072.04249  22863029.4744
  27022050.450    18815880.022 4  14745088.06348  27022056.9424
  25981910.450    -1377176.434 6  -1036399.90449  25981913.3684
  23670117.200    -8759975.047 7  -6755318.94349  23670118.8174
  25501142.302    -4917302.667 6  -3742571.65949  25501145.9814
  26032969.794    -3335106.827 5  -2551071.01349  26032972.5714
  23675923.263    -4786225.005 7  -4057396.08449  23675924.3064
 95  2  7 20 35 30.0090000  0  7 18 14 28 19 31 27 29
  22866836.286    -9181969.869 8  -7082479.18749  22866837.4814
  27049319.380    18959185.059 4  14856754.17248  27049326.3804
  25985267.825    -1359535.122 6  -1022653.42149  25985270.7674
  23671305.317    -8753730.022 7  -6750452.67949  23671307.2514
  25494109.028    -4954264.390 6  -3771372.92949  25494111.9584
  26025813.622    -3372711.508 5  -2580373.29049  26025817.0564
  23690289.216    -4710730.270 7  -3998569.03349  23690290.5634
 95  2  7 20 36  0.0090000  0  7 18 14 28 19 31 27 29
  22870727.739    -9161518.746 8  -7066543.23549  22870729.0524
  27076590.989    19102493.602 4  14968422.96847  27076596.8844
  25988727.810    -1341351.730 6  -1008484.52649  25988730.0954
  23672536.489    -8747261.821 7  -6745412.51349  23672538.4354
  25487140.224    -4990885.108 6  -3799908.47249  25487142.9664
  26018676.263    -3410216.369 5  -2609597.78849  26018680.0014
  23704743.903    -4634769.928 7  -3939379.17049  23704745.1574
 95  2  7 20 36 30.0090000  0  7 18 14 28 19 31 27 29
  22874701.708    -9140636.006 8  -7050270.96249  22874702.9154
  27103856.895    19245781.689 3  15080075.83649  27103863.9664
  25992288.138    -1322642.791 6   -993906.12149  25992290.1884
  23673805.278    -8740591.607 7  -6740214.93249  23673807.3644
  25480235.294    -5027169.794 6  -3828182.18149  25480238.3994
  26011556.520    -3447632.448 5  -2638753.10849  26011560.0834
  23719281.528    -4558376.217 7  -3879851.61849  23719282.9934
 95  2  7 20 37  0.0090000  0  7 18 14 28 19 31 27 29
  22878761.372    -9119301.185 8  -7033646.41149  22878762.5324
  27131119.630    19389045.688 3  15191709.98347  27131125.5014
  25995950.286    -1303396.703 6   -978909.16349  25995953.2044
  23675116.724    -8733701.231 7  -6734845.79449  23675118.7984
  25473397.638    -5063098.438 6  -3856178.45549  25473400.8844
  26004456.380    -3484943.143 5  -2667826.29549  26004460.3414
  23733898.794    -4481561.525 7  -3819996.03149  23733900.2124
 95  2  7 20 37 30.0090000  0  7 18 14 28 19 31 27 29
  22882912.833    -9097485.243 8  -7016646.97149  22882914.2044
  27158379.833    19532296.465 3  15303333.76246  27158386.0444
  25999716.974    -1283600.171 6   -963483.28149  25999720.1854
  23676470.942    -8726583.431 7  -6729299.44049  23676472.8884
  25466636.075    -5098633.172 6  -3883867.79449  25466639.1574
  25997376.763    -3522149.436 5  -2696818.13249  25997379.3414
  23748599.927    -4404306.663 7  -3759797.45649  23748601.3334
 95  2  7 20 38  0.0090000  0  7 18 14 28 19 31 27 29
  22887155.020    -9075192.480 8  -6999275.97949  22887156.4624
  27185634.013    19675523.006 3  15414938.69548  27185640.4934
  26003584.481    -1263277.310 6   -947647.27349  26003587.3064
  23677863.185    -8719268.498 7  -6723599.47749  23677865.1534
  25459946.388    -5133785.128 6  -3911258.86149  25459949.7394
  25990310.528    -3559280.445 5  -2725751.31649  25990313.9274
  23763378.849    -4326643.313 7  -3699280.57649  23763380.2554
 95  2  7 20 38 30.0090000  0  7 18 14 28 19 31 27 29
  22891493.388    -9052393.832 8  -6981510.79349  22891494.8644
  27212888.856    19818748.236 3  15526542.60047  27212895.3374
  26007555.317    -1242411.566 6   -931388.24849  26007557.6964
  23679297.856    -8711729.744 7  -6717725.10949  23679299.8724
  25453335.013    -5168531.209 6  -3938333.66949  25453337.7314
  25983262.200    -3596317.414 5  -2754611.23049  25983265.1654
  23778234.200    -4248577.387 7  -3638450.00549  23778235.5954
 95  2  7 20 39  0.0090000  0  7 18 14 28 19 31 27 29
  22895922.864    -9029115.780 8  -6963372.04749  22895924.5284
  27240140.778    19961949.263 3  15638127.60146  27240147.6384
  26011623.458    -1221032.857 6   -914729.51149  26011625.9544
  23680770.169    -8703992.152 7  -6711695.80149  23680772.2314
  25446795.474    -5202894.738 6  -3965110.37749  25446798.1104
  25976225.208    -3633299.142 5  -2783428.08349  25976228.1264
  23793164.239    -4170120.221 7  -3577314.57149  23793165.5874
 95  2  7 20 39 30.0090000  0  7 18 14 28 19 31 27 29
  22900445.231    -9005352.010 8  -6944854.82249  22900446.7554
  27267386.833    20105134.846 3  15749700.60147  27267393.2434
  26015790.520    -1199136.113 6   -897667.09149  26015793.1104
  23682278.966    -8696062.246 7  -6705516.63749  23682281.0174
  25440330.263    -5236869.069 6  -3991583.82149  25440333.7204
  25969199.966    -3670216.697 6  -2812194.93449  25969203.2704
  23808171.849    -4091254.216 7  -3515860.56249  23808173.2904
 95  2  7 20 40  0.0090000  0  7 18 14 28 19 31 27 29
  22905060.083    -8981101.281 8  -6925958.14649  22905061.4664
  27294635.552    20248322.978 3  15861275.62247  27294641.6344
  26020058.989    -1176705.809 6   -880188.91949  26020061.4034
  23683825.349    -8687934.945 7  -6699183.65949  23683827.5634
  25433938.809    -5270454.206 6  -4017753.98849  25433941.7744
  25962194.247    -3707032.734 6  -2840882.68049  25962197.7514
  23823259.677    -4011967.588 7  -3454078.79949  23823260.9774
 95  2  7 20 40 30.0090000  0  7 18 14 28 19 31 27 29
  22909767.239    -8956364.083 8  -6906682.40749  22909768.6104
  27321882.497    20391508.971 3  15972848.89248  27321888.6264
  26024430.333    -1153732.312 6   -862287.48649  26024433.1694
  23685412.880    -8679593.267 7  -6692683.63749  23685414.9894
  25427619.270    -5303664.228 6  -4043631.86049  25427622.4464
  25955211.606    -3743727.320 6  -2869475.79449  25955214.6654
  23838430.591    -3932243.624 7  -3391956.25749  23838431.9384
 95  2  7 20 41  0.0090000  0  7 18 14 28 19 31 27 29
  22914562.474    -8931165.665 8  -6887047.28049  22914563.9974
  27349125.270    20534667.493 3  16084400.81248  27349131.8334
  26028902.622    -1130229.583 6   -843973.66649  26028905.3174
  23687039.075    -8671049.485 7  -6686026.13149  23687040.6574
  25421366.310    -5336522.597 6  -4069235.73249  25421370.0714
  25948250.122    -3780308.421 6  -2897980.48649  25948252.8764
  23853684.177    -3852085.446 7  -3329495.36649  23853685.5244
 95  2  7 20 41 30.0090000  0  7 18 14 28 19 31 27 29
  22919448.864    -8905487.154 8  -6867038.05149  22919450.4464
  27376365.536    20677814.135 3  16195943.43648  27376372.4424
  26033482.981    -1106161.899 6   -825219.61649  26033485.6304
  23688708.552    -8662275.821 7  -6679189.49349  23688710.1814
  25415184.716    -5369008.483 6  -4094549.35349  25415187.6574
  25941319.200    -3816731.807 6  -2926362.28549  25941322.2004
  23869026.325    -3771463.433 7  -3266673.05149  23869027.5794
 95  2  7 20 42  0.0090000  0  7 18 14 28 19 31 27 29
  22924424.778    -8879336.519 8  -6846660.93249  22924426.3604
  27403601.208    20820938.723 3  16307468.89646  27403610.0714
  26038169.544    -1081533.451 6   -806028.62449  26038172.1694
  23690423.005    -8653266.241 7  -6672169.02949  23690424.7744
  25409069.708    -5401145.916 6  -4119591.44549  25409072.5914
  25934416.364    -3853004.552 6  -2954626.70349  25934419.9034
  23884454.411    -3690387.830 7  -3203497.28649  23884455.9234
 95  2  7 20 42 30.0090000  0  7 18 14 28 19 31 27 29
  22929489.513    -8852721.854 8  -6825922.23149  22929491.1304
  27430828.731    20964020.323 3  16418960.84446  27430836.3174
  26042959.942    -1056359.541 6   -786412.57249  26042962.4274
  23692179.919    -8644031.849 7  -6664973.38649  23692181.8414
  25403018.388    -5432944.884 6  -4144369.81149  25403021.8804
  25927534.263    -3889165.330 5  -2982803.87649  25927537.5914
  23899964.653    -3608881.511 7  -3139985.89949  23899965.9424
 95  2  7 20 43  0.0090000  0  8 18 14 28 19 31  2 27 29
  22934644.364    -8825634.854 8  -6804815.47649  22934645.8764
  27458051.981    21107075.809 3  16530432.48947  27458057.8174
  26047856.606    -1030626.373 6   -766360.75249  26047859.4424
  23693978.638    -8634579.515 7  -6657607.91649  23693980.5834
  25397037.622    -5464368.406 6  -4168855.62049  25397041.0204
  27568232.559      -60939.109 5
  25920674.770    -3925215.818 6  -3010895.11749  25920678.0054
  23915559.309    -3526931.251 7  -3076128.58549  23915560.6224
 95  2  7 20 43 30.0090000  0  8 18 14 28 19 31  2 27 29
  22939887.419    -8798082.706 8  -6783346.27049  22939888.7434
  27485266.200    21250082.015 3  16641865.73047  27485272.4704
  26052855.583    -1004355.070 6   -745889.58549  26052858.3134
  23695811.950    -8624946.147 7  -6650101.37849  23695813.8604
  25391129.106    -5495420.798 6  -4193052.23949  25391132.2474
  27556265.692     -123824.742 5    -21218.68958  27556270.9894
  25913830.255    -3961184.078 6  -3038922.27949  25913832.9974
  23931232.825    -3444565.275 7  -3011947.33449  23931234.3374
 95  2  7 20 44  0.0090000  0  7 18 28 19 31  2 27 29
  22945224.763    -8770033.896 8  -6761490.05149  22945226.1104
  26057958.309     -977541.473 6   -724995.86749  26057960.8994
  23697681.927    -8615121.317 7  -6642445.64849  23697683.8724
  25385295.419    -5526075.667 6  -4216939.10849  25385298.4194
  27544327.145     -186561.652 5    -70104.43549  27544330.8024
  25906999.903    -3997080.096 6  -3066893.14549  25907002.3994
  23946985.349    -3361786.754 7  -2947444.62349  23946986.8494
 95  2  7 20 44 30.0090000  0  7 18 28 19 31  2 27 29
  22950656.153    -8741491.412 8  -6739249.15449  22950657.7824
  26063163.450     -950189.759 6   -703682.84149  26063166.2984
  23699585.833    -8605114.745 7  -6634648.30749  23699587.7084
  25379543.567    -5556304.032 6  -4240493.63649  25379546.1574
  27532413.614     -249164.089 5   -118885.36948  27532418.1264
  25900179.559    -4032920.525 6  -3094820.69949  25900182.4074
  23962815.677    -3278598.030 7  -2882622.27149  23962817.0364
 95  2  7 20 45  0.0090000  0  7 18 28 19 31  2 27 29
  22956180.606    -8712460.790 8  -6716627.89149  22956182.2354
  26068470.731     -922301.504 6   -681951.72949  26068473.1454
  23701524.778    -8594926.569 7  -6626709.45449  23701526.4894
  25373871.606    -5586108.638 6  -4263717.95049  25373874.7354
  27520524.466     -311643.392 5   -167570.40149  27520530.4074
  25893372.981    -4068688.634 6  -3122691.91549  25893376.1574
  23978724.599    -3194995.929 7  -2817477.80649  23978726.1924
 95  2  7 20 45 30.0090000  0  7 18 28 19 31  2 27 29
  22961801.708    -8682922.669 8  -6693611.17349  22961803.1384
  26073882.591     -893860.860 6   -659790.18049  26073884.6774
  23703502.958    -8584530.288 7  -6618608.43949  23703504.5994
  25368279.903    -5615492.201 6  -4286614.18949  25368283.1144
  27508658.895     -373996.462 4   -216157.05749  27508663.4544
  25886584.622    -4104363.312 6  -3150490.30649  25886587.6694
  23994714.778    -3110966.004 7  -2751999.96749  23994716.4194
 95  2  7 20 46  0.0090000  0  6 18 28 19 31 27 29
  22967517.606    -8652885.297 8  -6670205.42749  22967518.9544
  26079400.286     -864863.895 6   -637195.13649  26079402.3844
  23705522.544    -8573915.599 7  -6610337.24049  23705524.4664
  25362768.005    -5644459.878 6  -4309186.36049  25362770.5364
  25879813.864    -4139941.863 6  -3178213.80049  25879817.1344
  24010788.075    -3026501.232 7  -2686183.29549  24010789.5404
 95  2  7 20 46 30.0090000  0  7 18 28 19 31  2 27 29
  22973324.942    -8622366.552 8  -6646424.58949  22973326.4074
  26085025.372     -835303.029 6   -614160.68049  26085027.9384
  23707582.622    -8563091.063 7  -6601902.52949  23707584.5204
  25357334.177    -5673015.857 6  -4331437.73249  25357337.1654
  27485018.349      -22722.62715
  25873066.231    -4175398.910 6  -3205842.62049  25873068.7514
  24026944.841    -2941597.782 7  -2620024.78949  24026946.2124
 95  2  7 20 47  0.0090000  0  7 18 28 19 31  2 27 29
  22979220.528    -8591385.175 8  -6622283.25649  22979221.8884
  26090754.786     -805197.568 6   -590701.86449  26090757.0484
  23709676.505    -8552087.867 7  -6593328.59949  23709678.5564
  25351970.981    -5701194.937 6  -4353395.41949  25351974.1344
  27473247.270      -22660.09015
  25866340.778    -4210742.303 6  -3233382.88949  25866343.7434
  24043181.153    -2856274.060 7  -2553538.79549  24043182.6424
 95  2  7 20 47 30.0090000  0  7 18 28 19 31  2 27 29
  22985203.145    -8559945.632 8  -6597784.91449  22985204.5284
  26096583.997     -774567.381 6   -566834.18449  26096585.7674
  23711799.544    -8540930.358 7  -6584634.42649  23711801.5484
  25346680.302    -5728997.698 6  -4375059.87149  25346683.1494
  27461505.200      -84360.523 5         0.80059  27461511.1424
  25859630.567    -4246004.699 6  -3260860.02349  25859633.6854
  24059492.247    -2770558.068 7  -2486747.13449  24059494.0634
 95  2  7 20 48  0.0090000  0  7 18 28 19 31  2 27 29
  22991278.208    -8528021.368 8  -6572908.86749  22991279.5564
  26102514.099     -743400.444 6   -542548.25349  26102516.7354
  23713955.513    -8529601.652 7  -6575806.85349  23713957.0834
  25341468.895    -5756384.523 6  -4396400.19349  25341471.7434
  27449796.700     -145889.444 5    -47943.64149  27449802.7004
  25852938.677    -4281169.472 6  -3288261.08649  25852942.1454
  24075879.489    -2684442.847 7  -2419644.38449  24075881.1304
 95  2  7 20 48 30.0090000  0  7 18 28 19 31  2 27 29
  22997447.864    -8495600.476 8  -6547645.84049  22997449.2704
  26108549.809     -711682.064 6   -517832.60649  26108552.3994
  23716147.020    -8518084.183 7  -6566832.19749  23716148.6384
  25336339.739    -5783336.651 6  -4417401.81049  25336343.1734
  27438115.614     -207270.776 5    -95773.07449  27438120.8174
  25846268.763    -4316222.850 6  -3315575.35949  25846271.5634
  24092345.833    -2597913.419 7  -2352218.87349  24092347.5444
 95  2  7 20 49  0.0090000  0  7 18 28 19 31  2 27 29
  23003714.036    -8462670.365 8  -6521986.02249  23003715.3844
  26114690.177     -679414.147 6   -492688.74449  26114693.1774
  23718378.036    -8506360.865 7  -6557697.13349  23718379.6534
  25331296.044    -5809841.519 6  -4438054.89149  25331298.9854
  27426460.966     -268521.393 5   -143500.65549  27426466.7084
  25839617.630    -4351172.266 6  -3342808.62249  25839620.0204
  24108891.575    -2510964.575 7  -2284466.54349  24108893.0634
 95  2  7 20 49 30.0090000  0  7 18 28 19 31  2 27 29
  23010075.911    -8429238.644 8  -6495935.34049  23010077.2124
  26120932.536     -646610.401 6   -467127.35549  26120934.7514
  23720647.802    -8494432.596 7  -6548402.37349  23720649.4544
  25326336.770    -5835906.772 6  -4458365.41949  25326339.1384
  27414824.841     -329667.563 5   -191146.88849  27414830.1964
  25832985.763    -4386024.597 6  -3369966.23849  25832988.2704
  24125513.841    -2423612.950 7  -2216400.35649  24125515.2354
 95  2  7 20 50  0.0090000  0  7 18 28 19 31  2 27 29
  23016534.825    -8395298.598 8  -6469488.55449  23016536.1384
  26127281.403     -613248.423 6   -441130.97749  26127283.9234
  23722962.059    -8482271.593 7  -6538926.25949  23722963.8764
  25321460.802    -5861528.401 6  -4478330.26749  25321462.8884
  27403212.325     -390688.681 5   -238695.64849  27403217.8104
  25826376.653    -4420754.998 6  -3397028.85049  25826379.4074
  24142219.239    -2335824.687 7  -2147993.92849  24142220.9034
 95  2  7 20 50 30.0090000  0  7 18 28 19 31  2 27 29
  23023082.856    -8360887.027 8  -6442674.34649  23023084.0754
  26133731.974     -579346.411 6   -414713.80549  26133734.7164
  23725314.685    -8469907.443 7  -6529291.84349  23725316.7004
  25316663.067    -5886740.543 6  -4497976.02549  25316665.6694
  27391625.669     -451579.702 5   -286143.04549  27391631.2354
  25819786.294    -4455385.467 6  -3424013.58449  25819789.6574
  24159005.395    -2247613.166 7  -2079257.69149  24159007.2004
 95  2  7 20 51  0.0090000  0  7 18 28 19 31  2 27 29
  23029724.880    -8325983.665 8  -6415476.92349  23029726.2164
  26140287.770     -544896.087 6   -387869.36149  26140290.7354
  23727707.364    -8457334.457 7  -6519494.69549  23727709.5674
  25311944.052    -5911537.932 6  -4517298.60849  25311946.3134
  27380072.310     -512291.538 5   -333450.82449  27380078.7434
  25813218.044    -4489901.687 6  -3450909.29249  25813221.5484
  24175872.958    -2158975.394 7  -2010189.30549  24175874.4234
 95  2  7 20 51 30.0090000  0  7 18 28 19 31  2 27 29
  23036460.763    -8290586.566 8  -6387894.77149  23036462.0754
  26146950.286     -509884.021 6   -360587.18949  26146952.8994
  23730139.528    -8444550.737 7  -6509533.33749  23730141.5094
  25307306.724    -5935908.785 6  -4536288.80849  25307309.0794
  27368558.114     -572798.713 5   -380599.13249  27368562.7204
  25806670.731    -4524303.925 6  -3477716.19649  25806674.0244
  24192822.286    -2069906.567 7  -1940785.03749  24192823.7044
 95  2  7 20 52  0.0090000  0  7 18 28 19 31  2 27 29
  23043292.317    -8254686.731 8  -6359920.87749  23043293.6884
  26153723.989     -474290.385 6   -332851.83849  26153726.6144
  23732614.919    -8431545.203 7  -6499399.14249  23732616.6304
  25302753.130    -5959835.730 6  -4554933.11549  25302756.4234
  27357089.489     -633066.456 5   -427560.87049  27357095.2674
  25800146.528    -4558592.471 6  -3504434.50249  25800148.7904
  24209856.599    -1980388.890 7  -1871031.01049  24209858.0284
 95  2  7 20 52 30.0090000  0  7 18 28 19 31  2 27 29
  23050216.442    -8218298.525 8  -6331566.43649  23050217.8494
  26160605.458     -438128.786 6   -304673.93349  26160607.9074
  23735129.513    -8418329.920 7  -6489101.49849  23735131.2354
  25298284.177    -5983321.012 6  -4573233.26749  25298286.8494
  27345662.474     -693115.888 5   -474352.49349  27345667.2434
  25793639.310    -4592789.202 6  -3531081.26549  25793642.0524
  24226972.302    -1890444.744 7  -1800944.67049  24226973.5914
 95  2  7 20 53  0.0090000  0  7 18 28 19 31  2 27 29
  23057234.474    -8181419.401 8  -6302829.45749  23057235.8334
  26167592.286     -401410.361 6   -276062.12449  26167594.8644
  23737682.786    -8404913.295 7  -6478646.97049  23737684.3684
  25293899.677    -6006357.872 6  -4591184.00449  25293902.6304
  27334268.497     -752986.672 5   -521004.88449  27334273.1854
  25787146.395    -4626909.929 6  -3557668.79849  25787149.1264
  24244163.958    -1800101.790 7  -1730547.57449  24244165.6574
 95  2  7 20 53 30.0090000  0  7 18 28 19 31  2 27 29
  23064343.677    -8144061.381 8  -6273719.31249  23064344.8844
  26174683.911     -364144.948 6   -247024.12749  26174688.3994
  23740272.739    -8391301.810 7  -6468040.60049  23740274.2634
  25289602.122    -6028946.340 6  -4608785.33649  25289604.9934
  27322905.013     -812705.481 5   -567538.88249  27322909.8764
  25780663.411    -4660976.228 6  -3584213.93049  25780666.5404
  24261429.958    -1709369.362 7  -1659846.99149  24261431.5874
 95  2  7 20 54  0.0090000  0  7 18 28 19 31  2 27 29
  23071547.927    -8106201.921 8  -6244218.44349  23071549.3454
  26181880.958     -326323.678 6   -217552.91649  26181883.3254
  23742902.606    -8377481.799 7  -6457271.74349  23742904.3174
  25285389.442    -6051082.356 6  -4626034.12249  25285391.9624
  27311569.794     -872268.701 5   -613951.63049  27311574.5174
  25774193.794    -4694975.226 6  -3610706.60949  25774197.0634
  24278771.552    -1618239.524 7  -1588836.74149  24278773.0634
 95  2  7 20 54 30.0090000  0  7 18 28 19 31  2 27 29
  23078848.310    -8067837.572 8  -6214324.14549  23078849.3414
  26189181.778     -287954.410 6
  23745569.153    -8363467.202 7  -6446351.26149  23745571.0404
  25281262.794    -6072767.118 6  -4642931.27249  25281265.7004
  27300262.520     -931691.359 5   -660254.85549  27300268.6854
  25767737.942    -4728898.708 6  -3637140.46049  25767740.8954
  24296184.520    -1526734.096 7  -1517533.82249  24296185.9154
 95  2  7 20 55  0.0090000  0  7 18 28 19 31  2 27 29
  23086240.560    -8028991.698 8  -6184054.63349  23086241.8134
  26196582.145     -249067.150 6
  23748265.255    -8349301.310 7  -6435312.88749  23748267.1304
  25277215.239    -6094037.494 6  -4659505.54849  25277218.2274
  27288977.809     -990988.933 5   -706460.61349  27288983.9034
  25761293.942    -4762762.566 6  -3663527.84649  25761297.0954
  24313663.169    -1434882.164 7  -1445960.89749  24313664.3994
 95  2  7 20 55 30.0090000  0  7 18 28 19 31  2 27 29
  23093726.966    -7989650.036 8  -6153398.78949  23093728.3024
  26204082.763     -209649.856 6     16433.87959  26204085.5754
  23750990.864    -8334978.031 7  -6424151.87449  23750992.7744
  25273245.935    -6114895.246 6  -4675758.29149  25273248.3134
  27277723.083    -1050133.262 5   -752546.92349  27277728.0754
  25754864.286    -4796551.911 6  -3689857.16349  25754867.0754
  24331213.231    -1342654.823 7  -1374095.44949  24331214.6384
 95  2  7 20 56  0.0090000  0  7 18 28 19 31  2 27 29
  23101311.950    -7949792.335 8  -6122340.84249  23101313.0874
  26211688.310     -169683.417 6     47576.59949  26211690.7944
  23753748.208    -8320487.932 7  -6412860.87449  23753749.9314
  25269358.700    -6135323.113 6  -4691676.05749  25269361.4314
  27266501.177    -1109103.629 5   -798497.71449  27266506.0174
  25748454.872    -4830232.528 6  -3716101.76249  25748457.8954
  24348837.864    -1250037.750 7  -1301926.31449  24348839.5524
 95  2  7 20 56 30.0090000  0  7 18 28 19 31  2 27 29
  23108993.224    -7909424.879 8  -6090885.68249  23108994.4774
  26219399.716     -129159.847 6     79153.44949  26219401.7784
  23756537.419    -8305830.173 7  -6401439.22949  23756539.0714
  25265557.411    -6155299.580 6  -4707242.09449  25265560.5054
  27255315.044    -1167890.564 5   -844305.56648  27255320.0134
  25742068.724    -4863791.830 6  -3742251.81849  25742071.5834
  24366541.177    -1157004.109 7  -1229432.58049  24366542.8524
 95  2  7 20 57  0.0090000  0  7 18 28 19 31  2 27 29
  23116767.731    -7868569.185 8  -6059050.07849  23116769.1734
  26227213.825      -88094.605 6    111152.37049  26227216.0634
  23759359.169    -8291002.256 7  -6389885.00049  23759360.9154
  25261838.864    -6174838.071 6  -4722466.84449  25261841.9814
  27244163.466    -1226490.989 5   -889968.08549  27244167.9074
  25735701.145    -4897253.883 6  -3768326.10749  25735703.7004
  24384325.606    -1063547.921 7  -1156609.59049  24384327.3064
 95  2  7 20 57 30.0100000  0  7 18 28 19 31  2 27 29
  23124636.877    -7827217.608 8  -6026828.07349  23124638.0604
  26235133.135      -46477.958 6    143580.97949  26235135.7484
  23762215.947    -8275989.661 7  -6378186.86549  23762217.6704
  25258209.525    -6193914.601 6  -4737331.62749  25258212.0804
  27233046.736    -1284905.280 5   -935485.57049  27233051.1074
  25729350.580    -4930625.949 6  -3794330.26849  25729353.1584
  24402191.439     -969663.473 7  -1083452.89249  24402192.9754
 95  2  7 20 58  0.0100000  0  7 18 28 19 31  2 27 29
  23132597.689    -7785383.579 8  -5994230.13349  23132598.9204
  26243158.424       -4306.705 6    176441.72549  26243160.7324
  23765109.768    -8260781.339 7  -6366336.21449  23765111.4904
  25254669.416    -6212516.276 6  -4751826.39749  25254671.9944
  27221967.330    -1343128.376 5   -980854.07949  27221972.6154
  25723018.533    -4963900.474 6  -3820258.42349  25723021.0184
  24420137.986     -875353.611 7  -1009964.70149  24420139.6624
 95  2  7 20 58 30.0100000  0  7 18 28 19 31  2 27 29
  23140648.088    -7743077.345 8  -5961264.24349  23140649.6354
  26251286.182       38404.617 6    209723.31149  26251288.3384
  23768040.135    -8245383.638 7  -6354337.99949  23768041.6354
  25251217.596    -6230654.199 6  -4765959.81149  25251220.2794
  27210922.119    -1401172.384 5  -1026083.01748  27210927.5334
  25716700.189    -4997103.148 6  -3846130.59349  25716703.2484
  24438163.830     -780628.269 7   -936152.76649  24438165.7284
 95  2  7 20 59  0.0100000  0  7 18 28 19 31  2 27 29
  23148791.158    -7700285.682 8  -5927920.09949  23148792.4594
  26259515.908       81655.174 6    243425.07049  26259517.9244
  23771006.494    -8229795.581 7  -6342191.45749  23771008.0884
  25247852.893    -6248336.849 6  -4779738.46649  25247855.5644
  27199908.978    -1459044.435 5  -1071177.98649  27199913.6544
  25710395.283    -5030234.692 6  -3871947.33049  25710398.2834
  24456261.955     -685520.985 7   -862043.20849  24456263.2564
 95  2  7 20 59 30.0100000  0  7 18 28 19 31  2 27 29
  23157028.697    -7656996.897 8  -5894188.58049  23157029.9634
  26267850.408      125452.993 6    277553.26449  26267852.4944
  23774009.377    -8214014.201 7  -6329894.26749  23774010.8304
  25244576.369    -6265554.208 6  -4793154.54749  25244579.0534
  27188925.541    -1516762.746 5  -1116153.17449  27188931.1894
  25704106.627    -5063285.534 6  -3897701.18449  25704109.6394
  24474432.486     -590035.097 7   -787638.63149  24474433.7404
 95  2  7 21  0  0.0100000  0  7 18 28 19 31  2 27 29
  23165358.572    -7613223.611 8  -5860079.53049  23165359.8264
  26276286.947      169785.159 6    312097.81349  26276289.2444
  23777049.299    -8198041.433 7  -6317447.94349  23777050.8574
  25241385.182    -6282322.217 6  -4806220.48449  25241387.7484
  27177969.033    -1574340.238 5  -1161018.59549  27177974.4124
  25697832.494    -5096255.590 6  -3923392.09049  25697835.3074
  24492674.299     -494173.489 7   -712941.29349  24492675.8694
 95  2  7 21  0 30.0100000  0  7 18 28 19 31  2 27 29
  23173783.283    -7568951.724 8  -5825581.95749  23173784.5254
  26284827.986      214667.906 6    347071.39749  26284830.1544
  23780128.346    -8181859.297 7  -6304838.47649  23780129.8934
  25238284.127    -6298619.043 6  -4818919.27149  25238287.0924
  27167041.924    -1631761.808 5  -1205762.54049  27167046.7644
  25691576.291    -5129132.692 6  -3949010.55849  25691578.9394
  24510988.557     -397930.366 7   -637946.66749  24510990.4434
 95  2  7 21  1  0.0100000  0  7 18 28 19 31  2 27 29
  23182301.252    -7524189.383 8  -5790702.21349  23182302.5064
  26293473.213      260102.403 6    382474.90349  26293475.4514
  23783248.135    -8165466.053 7  -6292064.50649  23783249.6704
  25235272.510    -6314445.767 6  -4831251.73649  25235275.0884
  27156146.166    -1689020.418 5  -1250379.50649  27156150.8894
  25685336.494    -5161920.359 6  -3974559.33549  25685339.0144
  24529376.932     -301298.934 7   -562649.45949  24529378.8654
 95  2  7 21  1 30.0100000  0  7 18 28 19 31  2 27 29
  23190912.932    -7478934.160 8  -5755438.40549  23190914.4084
  26302226.814      306101.689 6    418318.49449  26302228.8074
  23786409.260    -8148853.346 7  -6279119.52149  23786410.8654
  25232354.408    -6329781.429 6  -4843201.55449  25232356.7754
  27145286.267    -1746084.763 5  -1294845.10749  27145291.0844
  25679116.502    -5194606.311 6  -4000028.85449  25679119.0804
  24547845.642     -204245.007 7   -487023.04349  24547847.3654
 95  2  7 21  2  0.0100000  0  7 18 28 19 31  2 27 29
  23199615.260    -7433205.040 8  -5719805.32649  23199616.5604
  26311084.213      352647.523 6    454587.96749  26311087.0024
  23789606.455    -8132050.691 7  -6266026.53149  23789608.0844
  25229528.010    -6344634.100 6  -4854775.01149  25229530.7174
  27134465.752    -1802951.090 5  -1339156.42549  27134471.5064
  25672913.135    -5227206.633 6  -4025431.64949  25672915.4084
  24566389.838     -106796.615 7   -411089.24749  24566391.4554
 95  2  7 21  2 30.0100000  0  7 18 28 19 31  2 27 29
  23208412.549    -7386973.577 8  -5683780.80949  23208413.7214
  26320048.518      399752.972 6    491293.51249  26320050.6974
  23792838.361    -8115067.890 7  -6252793.15949  23792839.7914
  25226796.861    -6358984.318 6  -4865956.94149  25226799.5454
  27123687.182    -1859592.962 5  -1383292.82649  27123691.8574
  25666726.018    -5259719.742 6  -4050766.48249  25666729.0184
  24585007.627       -8959.547 7   -334852.59549  24585008.9044
 95  2  7 21  3  0.0100000  0  7 18 28 19 31  2 27 29
  23217307.807    -7340229.204 8  -5647356.62349  23217309.0374
  26329116.971      447409.173 6    528428.21549  26329118.7874
  23796100.557    -8097923.651 7  -6239433.99649  23796101.9044
  25224160.299    -6372841.561 6  -4876754.73449  25224162.8304
  27112950.338    -1916012.085 5  -1427255.64249  27112955.5174
  25660554.463    -5292149.377 6  -4076036.28349  25660557.2644
  24603698.002       89261.236 7   -258316.93849  24603699.4554
 95  2  7 21  3 30.0100000  0  7 18 28 19 31  2 27 29
  23226305.494    -7292946.843 8  -5610513.22549  23226306.9124
  26338293.603      495629.659 6    566002.62549  26338295.5494
  23799395.486    -8080610.276 7  -6225943.03749  23799396.7054
  25221621.939    -6386180.505 6  -4887148.65649  25221624.2364
  27102255.775    -1972213.154 5  -1471048.54249  27102260.1464
  25654404.064    -5324468.440 6  -4101219.92449  25654407.1234
  24622462.713      187868.904 7   -181479.81549  24622464.2254
 95  2  7 21  4  0.0100000  0  7 18 28 19 31  2 27 29
  23235409.346    -7245105.123 8  -5573233.96949  23235410.7524
  26347577.400      544422.059 6    604022.67249  26347579.8144
  23802725.650    -8063109.546 7  -6212306.09249  23802726.9864
  25219182.869    -6398996.897 6  -4897135.40049  25219184.9554
  27091601.611    -2028201.151 5  -1514675.42949  27091606.9324
  25648275.541    -5356675.293 6  -4126316.12449  25648278.4474
  24641301.791      286868.820 7   -104337.04949  24641303.4674
 95  2  7 21  4 30.0100000  0  7 18 28 19 31  2 27 29
  23244612.010    -7196744.004 8  -5535549.98249  23244613.3344
  26356964.900      593750.345 6    642460.29649  26356967.3504
  23806087.174    -8045443.703 7  -6198540.48249  23806088.8964
  25216833.978    -6411340.617 6  -4906753.81949  25216836.0764
  27080979.096    -2084021.812 5  -1558171.93149  27080983.8424
  25642159.361    -5388815.092 6  -4151360.08049  25642162.2094
  24660212.533      386245.390 7    -26900.77849  24660214.1744
 95  2  7 21  5  0.0100000  0  7 18 28 19 31  2 27 29
  23253917.018    -7147847.729 8  -5497448.99049  23253918.2014
  26366459.010      643643.951 6    681338.44949  26366461.8104
  23809490.986    -8027556.828 7  -6184602.63649  23809492.5684
  25214579.893    -6423185.285 6  -4915983.35849  25214582.3304
  27070391.478    -2139658.164 5  -1601524.81049  27070396.6584
  25636062.814    -5420851.072 6  -4176323.12849  25636065.4984
  24679203.025      486041.694 7     50862.55949  24679204.8184
 95  2  7 21  5 30.0100000  0  7 18 28 19 31  2 27 29
  23263317.807    -7098444.223 8  -5458952.75549  23263319.1894
  26376057.283      694083.262 6    720641.82249  26376059.4754
  23812934.783    -8009460.155 7  -6170501.31449  23812936.4124
  25212418.049    -6434544.590 6  -4924834.70649  25212420.2994
  27059835.627    -2195129.916 5  -1644749.43349  27059840.7014
  25629983.072    -5452804.630 6  -4201221.96149  25629985.5214
  24698268.455      586231.219 7    128932.29949  24698270.0254
 95  2  7 21  6  0.0100000  0  7 18 28 19 31  2 27 29
  23272813.174    -7048546.228 8  -5420071.20649  23272814.7444
  26385759.424      745068.640 6    760370.71149  26385761.6274
  23816419.713    -7991147.820 7  -6156231.94449  23816421.2604
  25210348.611    -6445419.253 6  -4933308.40749  25210350.7914
  27049315.252    -2250414.579 5  -1687828.26749  27049320.6664
  25623915.260    -5484691.080 6  -4226068.49649  25623917.7094
  24717410.158      686821.244 7    207314.11449  24717411.8104
 95  2  7 21  6 30.0100000  0  8 18 16 28 19 31  2 27 29
  23282402.619    -6998152.927 8  -5380803.70449  23282404.1314
  27834766.768      -33524.134 4
  26395567.408      796608.597 6    800531.74049  26395570.3854
  23819944.502    -7972623.518 7  -6141797.40249  23819946.0844
  25208374.830    -6455791.743 6  -4941390.81349  25208377.0574
  27038834.471    -2305491.928 5  -1730745.57049  27038838.9124
  25617864.463    -5516487.691 6  -4250845.03749  25617866.9004
  24736627.705      787808.463 7    286005.43149  24736629.4044
 95  2  7 21  7  0.0100000  0  8 18 16 28 19 31  2 27 29
  23292086.275    -6947265.967 8  -5341151.52949  23292087.5534
  27828247.111      -67785.245 4    -11525.18158  27828251.3654
  26405479.314      848695.451 6    841118.92649  26405481.5644
  23823504.775    -7953914.027 7  -6127218.55849  23823506.4164
  25206496.572    -6465662.442 7  -4949082.20449  25206498.7284
  27028393.799    -2360355.861 5  -1773496.58149  27028398.8854
  25611831.072    -5548190.428 6  -4275548.41449  25611833.6974
  24755915.275      889165.418 7    364984.85649  24755916.6464
 95  2  7 21  7 30.0100000  0  8 18 16 28 19 31  2 27 29
  23301867.533    -6895864.775 8  -5301098.65749  23301868.9394
  27821812.338     -101602.464 4    -37876.19648  27821817.0964
  26415497.986      901344.792 6    882144.42449  26415500.1194
  23827099.338    -7935024.258 7  -6112499.23849  23827100.7214
  25204717.853    -6475009.325 6  -4956365.42949  25204720.2794
  27017999.346    -2414979.336 5  -1816060.20749  27018004.1974
  25605820.322    -5579779.283 6  -4300163.06349  25605822.7364
  24775275.510      990904.995 7    444262.42749  24775276.9984
 95  2  7 21  8  0.0100000  0  8 18 16 28 19 31  2 27 29
  23311747.096    -6843946.463 8  -5260642.83349  23311748.4084
  27815461.517     -134973.995 4    -63879.91648  27815465.4204
  26425622.689      954556.329 6    923607.99649  26425625.0684
  23830727.072    -7915959.916 7  -6097643.88849  23830728.5144
  25203039.377    -6483828.257 7  -4963237.27149  25203041.8144
  27007651.455    -2469356.419 5  -1858431.85249  27007656.0604
  25599831.775    -5611247.319 6  -4324683.57449  25599834.2954
  24794710.416     1093034.698 7    523843.99249  24794711.8694
 95  2  7 21  8 30.0100000  0  8 18 16 28 19 31  2 27 29
  23321723.978    -6791519.359 8  -5219790.54849  23321725.3734
  27809189.010     -167932.585 3    -89561.89348  27809194.7284
  26435852.385     1008310.878 6    965494.68849  26435854.3894
  23834383.416    -7896745.020 7  -6082671.22449  23834384.9754
  25201459.057    -6492133.926 7  -4969709.16449  25201461.4004
  26997344.150    -2523520.279 5  -1900637.33849  26997348.1004
  25593865.767    -5642598.917 6  -4349113.35449  25593868.5684
  24814213.986     1195529.110 7    603709.74349  24814215.6034
 95  2  7 21  9  0.0100000  0  8 18 16 28 19 31  2 27 29
  23331798.721    -6738575.920 8  -5178535.92149  23331800.0334
  27802998.619     -200466.392 3   -114912.84449  27803003.5064
  26446187.596     1062619.875 6   1007813.41949  26446189.3774
  23838074.260    -7877349.526 7  -6067557.83349  23838075.8304
  25199980.072    -6499908.441 7  -4975767.17849  25199982.2874
  26987078.275    -2577464.893 5  -1942671.99649  26987083.2094
  25587921.955    -5673834.615 6  -4373452.80649  25587924.7564
  24833791.916     1298410.578 7    683877.10549  24833793.5104
 95  2  7 21  9 30.0100000  0  8 18 16 28 19 31  2 27 29
  23341969.658    -6685126.480 8  -5136887.01149  23341971.0764
  27796892.557     -232555.833 4   -139917.54846  27796898.4754
  26456626.978     1117479.396 6   1050561.13049  26456628.8304
  23841803.142    -7857755.933 7  -6052290.08249  23841804.4904
  25198601.307    -6507149.945 7  -4981409.86149  25198603.6624
  26976852.166    -2631203.843 5  -1984546.39449  26976857.4394
  25581998.205    -5704963.618 6  -4397709.12849  25582000.6074
  24853444.103     1401683.781 7    764349.70049  24853445.9204
 95  2  7 21 10  0.0100000  0  8 18 16 28 19 31  2 27 29
  23352235.533    -6631180.184 8  -5094850.93749  23352237.0574
  27790872.814     -264190.292 3   -164567.71447  27790877.4084
  26467171.580     1172891.774 6   1093739.63049  26467173.7254
  23845572.174    -7837949.352 7  -6036856.36849  23845573.6854
  25197323.549    -6513864.013 6  -4986641.57749  25197326.0454
  26966663.713    -2684745.751 5  -2026267.26249  26966668.9394
  25576091.916    -5736001.854 6  -4421894.71749  25576094.3654
  24873170.228     1505344.522 7    845124.27649  24873171.9634
 95  2  7 21 10 30.0100000  0  8 18 16 28 19 31  2 27 29
  23362593.736    -6576746.752 8  -5052435.27549  23362595.1314
  27784940.361     -295364.838 3   -188859.45049  27784946.9004
  26477820.205     1228853.576 6   1137346.26049  26477822.2914
  23849381.338    -7817931.141 7  -6021257.74549  23849382.8264
  25196144.596    -6520062.982 7  -4991471.89849  25196146.5644
  26956511.330    -2738094.175 5  -2067837.35249  26956516.0884
  25570199.393    -5766969.602 6  -4446025.37649  25570201.5964
  24892969.166     1609386.681 7    926196.06449  24892970.8074
 95  2  7 21 11  0.0100000  0  8 18 16 28 19 31  2 27 29
  23373044.322    -6521828.736 8  -5009642.01649  23373045.6354
  27779095.916     -326074.978 3   -212789.49247  27779100.9084
  26488574.346     1285365.996 6   1181381.94349  26488576.8894
  23853231.103    -7797701.396 7  -6005494.28649  23853232.5684
  25195060.213    -6525758.199 7  -4995909.68849  25195062.2874
  26946397.580    -2791245.487 5  -2109253.86449  26946402.2094
  25564317.861    -5797872.289 6  -4470105.33949  25564319.7834
  24912838.642     1713802.960 7   1007559.37349  24912840.4824
 95  2  7 21 11 30.0100000  0  8 18 16 28 19 31  2 27 29
  23383588.760    -6466417.693 8  -4966464.58549  23383590.1074
  27773337.064     -356340.197 3   -236372.67948  27773341.7284
  26499433.627     1342431.390 6   1225848.51649  26499435.8774
  23857118.260    -7777273.598 7  -5989576.50949  23857119.5724
  25194072.221    -6530951.066 7  -4999956.04449  25194074.3424
  26936318.767    -2844208.620 5  -2150523.74049  26936323.3734
  25558453.103    -5828695.048 6  -4494123.01949  25558455.0494
  24932777.314     1818581.544 7   1089204.99449  24932779.1314
 95  2  7 21 12  0.0100000  0  8 18 16 28 19 31  2 27 29
  23394231.072    -6410491.767 8  -4922885.94349  23394232.3854
  27767659.197     -386178.741 4   -259623.43649  27767663.8734
  26510399.033     1400056.710 6   1270751.38549  26510401.1544
  23861041.830    -7756654.487 7  -5973509.65349  23861043.3184
  25193180.760    -6535635.154 6  -5003605.95049  25193183.3734
  26926278.275    -2896971.378 5  -2191637.47849  26926282.3894
  25552605.603    -5859421.443 6  -4518065.62049  25552607.8184
  24952788.174     1923738.991 7   1171145.83249  24952789.9084
 95  2  7 21 12 30.0100000  0  8 18 16 28 19 31  2 27 29
  23404973.377    -6354040.236 8  -4878897.73749  23404974.7134
  27762058.291     -415609.848 3   -282556.70346  27762061.6074
  26521470.182     1458234.445 6   1316084.71649  26521472.1154
  23865000.939    -7735849.876 7  -5957298.25149  23865002.4044
  25192388.947    -6539797.420 7  -5006849.24549  25192391.2794
  26916276.455    -2949529.830 5  -2232592.02249  26916280.9784
  25546780.049    -5890035.893 6  -4541920.99149  25546782.0534
  24972869.775     2029271.247 7   1253378.73149  24972871.8384
